[[{"header":{"parameterUnit":"m.s-1","parameterCategory":1,"la1":30.6,"la2":28.766,"lo1":-90.7593,"lo2":-88.6598,"dy":0.0162,"dx":0.0183,"nx":116,"ny":114,"refTime":"2023-04-03T18:00:00:Z","depth":0,"parameterNumber":2,"parameterNumberName":"U-component_of_WINDS"},"data":[0.0,0.0,0.0,0.0,0.0,0.0,0.0,0.0,0.0,0.0,0.0,0.0,0.0,0.0,0.0,0.0,0.0,0.0,0.0,0.0,0.0,0.0,0.0,0.0,0.0,0.0,0.0,0.0,0.0,0.0,0.0,0.0,0.0,0.0,0.0,0.0,0.0,0.0,0.0,0.0,0.0,0.0,0.0,0.0,0.0,0.0,0.0,0.0,0.0,0.0,0.0,0.0,0.0,0.0,0.0,0.0,0.0,0.0,0.0,0.0,0.0,0.0,0.0,0.0,0.0,0.0,0.0,0.0,0.0,0.0,0.0,0.0,0.0,0.0,0.0,0.0,0.0,0.0,0.0,0.0,0.0,0.0,0.0,0.0,0.0,0.0,0.0,0.0,0.0,0.0,0.0,0.0,0.0,0.0,0.0,0.0,0.0,0.0,0.0,0.0,0.0,0.0,0.0,0.0,0.0,0.0,0.0,0.0,0.0,0.0,0.0,0.0,0.0,0.0,0.0,0.0,0.0,0.0,0.0,0.0,0.0,0.0,0.0,0.0,0.0,0.0,0.0,0.0,0.0,0.0,0.0,0.0,0.0,0.0,0.0,0.0,0.0,0.0,0.0,0.0,0.0,0.0,0.0,0.0,0.0,0.0,0.0,0.0,0.0,0.0,0.0,0.0,0.0,0.0,0.0,0.0,0.0,0.0,0.0,0.0,0.0,0.0,0.0,0.0,0.0,0.0,0.0,0.0,0.0,0.0,0.0,0.0,0.0,0.0,0.0,0.0,0.0,0.0,0.0,0.0,0.0,0.0,0.0,0.0,0.0,0.0,0.0,0.0,0.0,0.0,0.0,0.0,0.0,0.0,0.0,0.0,0.0,0.0,0.0,0.0,0.0,0.0,0.0,0.0,0.0,0.0,0.0,0.0,0.0,0.0,0.0,0.0,0.0,0.0,0.0,0.0,0.0,0.0,0.0,0.0,0.0,0.0,0.0,0.0,0.0,0.0,0.0,0.0,0.0,0.0,0.0,0.0,0.0,0.0,0.0,0.0,0.0,0.0,0.0,0.0,0.0,0.0,0.0,0.0,0.0,0.0,0.0,0.0,0.0,0.0,0.0,0.0,0.0,0.0,0.0,0.0,0.0,0.0,0.0,0.0,0.0,0.0,0.0,0.0,0.0,0.0,0.0,0.0,0.0,0.0,0.0,0.0,0.0,0.0,0.0,0.0,0.0,0.0,0.0,0.0,0.0,0.0,0.0,0.0,0.0,0.0,0.0,0.0,0.0,0.0,0.0,0.0,0.0,0.0,0.0,0.0,0.0,0.0,0.0,0.0,0.0,0.0,0.0,0.0,0.0,0.0,0.0,0.0,0.0,0.0,0.0,0.0,0.0,0.0,0.0,0.0,0.0,0.0,0.0,0.0,0.0,0.0,0.0,0.0,0.0,0.0,0.0,0.0,0.0,0.0,0.0,0.0,0.0,0.0,0.0,0.0,0.0,0.0,0.0,0.0,0.0,0.0,0.0,0.0,0.0,0.0,0.0,0.0,0.0,0.0,0.0,0.0,0.0,0.0,0.0,0.0,0.0,0.0,0.0,0.0,0.0,0.0,0.0,0.0,0.0,0.0,0.0,0.0,0.0,0.0,0.0,0.0,0.0,0.0,0.0,0.0,0.0,0.0,0.0,0.0,0.0,0.0,0.0,0.0,0.0,0.0,0.0,0.0,0.0,0.0,0.0,0.0,0.0,0.0,0.0,0.0,0.0,0.0,0.0,0.0,0.0,0.0,0.0,0.0,0.0,0.0,0.0,0.0,0.0,0.0,0.0,0.0,0.0,0.0,0.0,0.0,0.0,0.0,0.0,0.0,0.0,0.0,0.0,0.0,0.0,0.0,0.0,0.0,0.0,0.0,0.0,0.0,0.0,0.0,0.0,0.0,0.0,0.0,0.0,0.0,0.0,0.0,0.0,0.0,0.0,0.0,0.0,0.0,0.0,0.0,0.0,0.0,0.0,0.0,0.0,0.0,0.0,0.0,0.0,0.0,0.0,0.0,0.0,0.0,0.0,0.0,0.0,0.0,0.0,0.0,0.0,0.0,0.0,0.0,0.0,0.0,0.0,0.0,0.0,0.0,0.0,0.0,0.0,0.0,0.0,0.0,0.0,0.0,0.0,0.0,0.0,0.0,0.0,0.0,0.0,0.0,0.0,0.0,0.0,0.0,0.0,0.0,0.0,0.0,0.0,0.0,0.0,0.0,0.0,0.0,0.0,0.0,0.0,0.0,0.0,0.0,0.0,0.0,0.0,0.0,0.0,0.0,0.0,0.0,0.0,0.0,0.0,0.0,0.0,0.0,0.0,0.0,0.0,0.0,0.0,0.0,0.0,0.0,0.0,0.0,0.0,0.0,0.0,0.0,0.0,0.0,0.0,0.0,0.0,0.0,0.0,0.0,0.0,0.0,0.0,0.0,0.0,0.0,0.0,0.0,0.0,0.0,0.0,0.0,0.0,0.0,0.0,0.0,0.0,0.0,0.0,0.0,0.0,0.0,0.0,0.0,0.0,0.0,0.0,0.0,0.0,0.0,0.0,0.0,0.0,0.0,0.0,0.0,0.0,0.0,0.0,0.0,0.0,0.0,0.0,0.0,0.0,0.0,0.0,0.0,0.0,0.0,0.0,0.0,0.0,0.0,0.0,0.0,0.0,0.0,0.0,0.0,0.0,0.0,0.0,0.0,0.0,0.0,0.0,0.0,0.0,0.0,0.0,0.0,0.0,0.0,0.0,0.0,0.0,0.0,0.0,0.0,0.0,0.0,0.0,0.0,0.0,0.0,0.0,0.0,0.0,0.0,0.0,0.0,0.0,0.0,0.0,0.0,0.0,0.0,0.0,0.0,0.0,0.0,0.0,0.0,0.0,0.0,0.0,0.0,0.0,0.0,0.0,0.0,0.0,0.0,0.0,0.0,0.0,0.0,0.0,0.0,0.0,0.0,0.0,0.0,0.0,0.0,0.0,0.0,0.0,0.0,0.0,0.0,0.0,0.0,0.0,0.0,0.0,0.0,0.0,0.0,0.0,0.0,0.0,0.0,0.0,0.0,0.0,0.0,0.0,0.0,0.0,0.0,0.0,0.0,0.0,0.0,0.0,0.0,0.0,0.0,0.0,0.0,0.0,0.0,0.0,0.0,0.0,0.0,0.0,0.0,0.0,0.0,0.0,0.0,0.0,0.0,0.0,0.0,0.0,0.0,0.0,0.0,0.0,0.0,0.0,0.0,0.0,0.0,0.0,0.0,0.0,0.0,0.0,0.0,0.0,0.0,0.0,0.0,0.0,0.0,0.0,0.0,0.0,0.0,0.0,0.0,0.0,0.0,0.0,0.0,0.0,0.0,0.0,0.0,0.0,0.0,0.0,0.0,0.0,0.0,0.0,0.0,0.0,0.0,0.0,0.0,0.0,0.0,0.0,0.0,0.0,0.0,0.0,0.0,0.0,0.0,0.0,0.0,0.0,0.0,0.0,0.0,0.0,0.0,0.0,0.0,0.0,0.0,0.0,0.0,0.0,0.0,0.0,0.0,0.0,0.0,0.0,0.0,0.0,0.0,0.0,0.0,0.0,0.0,0.0,0.0,0.0,0.0,0.0,0.0,0.0,0.0,0.0,0.0,0.0,0.0,0.0,0.0,0.0,0.0,0.0,0.0,0.0,0.0,0.0,0.0,0.0,0.0,0.0,0.0,0.0,0.0,0.0,0.0,0.0,0.0,0.0,0.0,0.0,0.0,0.0,0.0,0.0,0.0,0.0,0.0,0.0,0.0,0.0,0.0,0.0,0.0,0.0,0.0,0.0,0.0,0.0,0.0,0.0,0.0,0.0,0.0,0.0,0.0,0.0,0.0,0.0,0.0,0.0,0.0,0.0,0.0,0.0,0.0,0.0,0.0,0.0,0.0,0.0,0.0,0.0,0.0,0.0,0.0,0.0,0.0,0.0,0.0,0.0,0.0,0.0,0.0,0.0,0.0,0.0,0.0,0.0,0.0,0.0,0.0,0.0,0.0,0.0,0.0,0.0,0.0,0.0,0.0,0.0,0.0,0.0,0.0,0.0,0.0,0.0,0.0,0.0,0.0,0.0,0.0,0.0,0.0,0.0,0.0,0.0,0.0,0.0,0.0,0.0,0.0,0.0,0.0,0.0,0.0,0.0,0.0,0.0,0.0,0.0,0.0,0.0,0.0,0.0,0.0,0.0,0.0,0.0,0.0,0.0,0.0,0.0,0.0,0.0,0.0,0.0,0.0,0.0,0.0,0.0,0.0,0.0,0.0,0.0,0.0,0.0,0.0,0.0,0.0,0.0,0.0,0.0,0.0,0.0,0.0,0.0,0.0,0.0,0.0,0.0,0.0,0.0,0.0,0.0,0.0,0.0,0.0,0.0,0.0,0.0,0.0,0.0,0.0,0.0,0.0,0.0,0.0,0.0,0.0,0.0,0.0,0.0,0.0,0.0,0.0,0.0,0.0,0.0,0.0,0.0,0.0,0.0,0.0,0.0,0.0,0.0,0.0,0.0,0.0,0.0,0.0,0.0,0.0,0.0,0.0,0.0,0.0,0.0,0.0,0.0,0.0,0.0,0.0,0.0,0.0,0.0,0.0,0.0,0.0,0.0,0.0,0.0,0.0,0.0,0.0,0.0,0.0,0.0,0.0,0.0,0.0,0.0,0.0,0.0,0.0,0.0,0.0,0.0,0.0,0.0,0.0,0.0,0.0,0.0,0.0,0.0,0.0,0.0,0.0,0.0,0.0,0.0,0.0,0.0,0.0,0.0,0.0,0.0,0.0,0.0,0.0,0.0,0.0,0.0,0.0,0.0,0.0,0.0,0.0,0.0,0.0,0.0,0.0,0.0,0.0,0.0,0.0,0.0,0.0,0.0,0.0,0.0,0.0,0.0,0.0,0.0,0.0,0.0,0.0,0.0,0.0,0.0,0.0,0.0,0.0,0.0,0.0,0.0,0.0,0.0,0.0,0.0,0.0,0.0,0.0,0.0,0.0,0.0,0.0,0.0,0.0,0.0,0.0,0.0,0.0,0.0,0.0,0.0,0.0,0.0,0.0,0.0,0.0,0.0,0.0,0.0,0.0,0.0,0.0,0.0,0.0,0.0,0.0,0.0,0.0,0.0,0.0,0.0,0.0,0.0,0.0,0.0,0.0,0.0,0.0,0.0,0.0,0.0,0.0,0.0,0.0,0.0,0.0,0.0,0.0,0.0,0.0,0.0,0.0,0.0,0.0,0.0,0.0,0.0,0.0,0.0,0.0,0.0,0.0,0.0,0.0,0.0,0.0,0.0,0.0,0.0,0.0,0.0,0.0,0.0,0.0,0.0,0.0,0.0,0.0,0.0,0.0,0.0,0.0,0.0,0.0,0.0,0.0,0.0,0.0,0.0,0.0,0.0,0.0,0.0,0.0,0.0,0.0,0.0,0.0,0.0,0.0,0.0,0.0,0.0,0.0,0.0,0.0,0.0,0.0,0.0,0.0,0.0,0.0,0.0,0.0,0.0,0.0,0.0,0.0,0.0,0.0,0.0,0.0,0.0,0.0,0.0,0.0,0.0,0.0,0.0,0.0,0.0,0.0,0.0,0.0,0.0,0.0,0.0,0.0,0.0,0.0,0.0,0.0,0.0,0.0,0.0,0.0,0.0,0.0,0.0,0.0,0.0,0.0,0.0,0.0,0.0,0.0,0.0,0.0,0.0,0.0,0.0,0.0,0.0,0.0,0.0,0.0,0.0,0.0,0.0,0.0,0.0,0.0,0.0,0.0,0.0,0.0,0.0,0.0,0.0,0.0,0.0,0.0,0.0,0.0,0.0,0.0,0.0,0.0,0.0,0.0,0.0,0.0,0.0,0.0,0.0,0.0,0.0,0.0,0.0,0.0,0.0,0.0,0.0,0.0,0.0,0.0,0.0,0.0,0.0,0.0,0.0,0.0,0.0,0.0,0.0,0.0,0.0,0.0,0.0,0.0,0.0,0.0,0.0,0.0,0.0,0.0,0.0,0.0,0.0,0.0,0.0,0.0,0.0,0.0,0.0,0.0,0.0,0.0,0.0,0.0,0.0,0.0,-4.4668,0.0,0.0,0.0,0.0,0.0,0.0,0.0,0.0,0.0,0.0,0.0,0.0,0.0,0.0,0.0,0.0,0.0,0.0,0.0,0.0,0.0,0.0,0.0,0.0,0.0,0.0,0.0,0.0,0.0,0.0,0.0,0.0,0.0,0.0,0.0,0.0,0.0,0.0,0.0,-5.2234,-5.2433,-5.3203,-5.3203,-5.298,-5.2599,0.0,0.0,0.0,0.0,0.0,0.0,0.0,0.0,0.0,0.0,0.0,0.0,0.0,0.0,0.0,0.0,0.0,0.0,0.0,0.0,0.0,0.0,0.0,0.0,0.0,0.0,0.0,0.0,0.0,0.0,0.0,0.0,0.0,0.0,0.0,0.0,0.0,0.0,0.0,0.0,0.0,0.0,0.0,0.0,0.0,0.0,0.0,0.0,0.0,0.0,0.0,0.0,0.0,0.0,0.0,0.0,0.0,0.0,0.0,0.0,0.0,0.0,0.0,0.0,0.0,0.0,0.0,0.0,0.0,0.0,0.0,-4.4665,0.0,0.0,0.0,0.0,0.0,0.0,0.0,0.0,0.0,0.0,0.0,0.0,0.0,0.0,0.0,0.0,0.0,0.0,0.0,0.0,0.0,0.0,0.0,0.0,-5.4074,-5.3925,-5.3584,-5.3408,0.0,0.0,0.0,0.0,0.0,0.0,0.0,-5.2417,-5.1977,-5.1977,-5.161,-5.2344,-5.4032,-5.4157,-5.4188,-5.3939,-5.1965,0.0,0.0,0.0,0.0,0.0,0.0,0.0,0.0,0.0,0.0,0.0,0.0,0.0,0.0,0.0,0.0,0.0,0.0,0.0,0.0,0.0,0.0,0.0,0.0,0.0,0.0,0.0,0.0,0.0,0.0,0.0,0.0,0.0,0.0,0.0,0.0,0.0,0.0,0.0,0.0,0.0,0.0,0.0,0.0,0.0,0.0,0.0,0.0,0.0,0.0,0.0,0.0,0.0,0.0,0.0,0.0,0.0,0.0,0.0,0.0,0.0,0.0,0.0,-5.3324,-5.3324,-5.3503,-5.2965,-5.2366,-5.1588,-4.882,-4.6681,-4.5035,-4.5334,0.0,0.0,0.0,0.0,0.0,0.0,0.0,0.0,0.0,0.0,0.0,0.0,0.0,0.0,0.0,0.0,0.0,0.0,0.0,0.0,0.0,-5.5061,-5.5152,-5.4407,-5.4259,-5.4252,0.0,0.0,0.0,0.0,0.0,0.0,-5.3203,-5.2417,-5.1977,-5.1977,-5.3298,-5.5097,-5.7373,-5.8107,-5.8032,-5.718,-5.2977,-5.1841,-5.2939,0.0,0.0,0.0,0.0,0.0,0.0,0.0,0.0,0.0,0.0,0.0,0.0,0.0,0.0,0.0,0.0,0.0,0.0,0.0,0.0,0.0,0.0,0.0,0.0,0.0,0.0,0.0,0.0,0.0,0.0,0.0,0.0,0.0,0.0,0.0,0.0,0.0,0.0,0.0,0.0,0.0,-4.7938,-4.7369,0.0,0.0,0.0,0.0,0.0,0.0,0.0,0.0,0.0,0.0,0.0,0.0,0.0,-5.2276,-5.3533,-5.5299,-5.5777,-5.494,-5.6555,-5.6496,-5.491,-5.482,-5.4431,-5.3803,-5.3354,0.0,-4.7668,-4.6621,0.0,0.0,0.0,0.0,0.0,0.0,0.0,0.0,0.0,0.0,0.0,0.0,0.0,0.0,0.0,0.0,0.0,0.0,0.0,0.0,0.0,-5.601,-5.6387,-5.5495,-5.7138,-5.7328,-5.5192,0.0,0.0,0.0,0.0,-5.2527,-5.2527,-5.1279,-5.1116,-5.1977,-5.4509,-5.6748,-5.8694,-5.9501,-5.992,-5.9889,-5.6536,-5.4202,-5.268,-5.0955,0.0,0.0,0.0,0.0,0.0,0.0,0.0,0.0,0.0,0.0,0.0,0.0,0.0,0.0,0.0,0.0,0.0,0.0,0.0,0.0,0.0,0.0,0.0,0.0,0.0,0.0,0.0,0.0,0.0,0.0,0.0,0.0,0.0,0.0,0.0,0.0,0.0,0.0,0.0,-4.7967,-4.8446,-4.7429,-4.7638,-4.7309,0.0,0.0,0.0,0.0,0.0,0.0,0.0,0.0,0.0,-5.2995,-5.3952,-5.488,-5.5807,-5.7064,-5.7962,-5.853,-5.9009,-5.8979,-5.8501,-5.8112,-5.7393,-5.6376,-5.5987,-5.4221,-5.1468,-4.9374,-4.7326,-4.5484,0.0,0.0,0.0,0.0,-4.4197,-4.3928,0.0,0.0,0.0,0.0,0.0,0.0,0.0,0.0,0.0,0.0,0.0,0.0,-5.6038,-5.7753,-5.8682,-5.8159,-6.0021,-5.9924,-5.672,-5.6675,0.0,0.0,-5.2307,-5.1903,-5.1683,-5.0912,-5.1499,-5.3518,-5.6345,-5.8767,-6.0762,-6.1594,-6.2018,-6.2103,-6.0581,-5.7907,-5.4474,-5.2379,-5.1183,-5.0608,0.0,0.0,0.0,0.0,0.0,0.0,0.0,0.0,0.0,0.0,0.0,0.0,0.0,0.0,0.0,0.0,0.0,0.0,0.0,0.0,0.0,0.0,0.0,0.0,0.0,0.0,0.0,0.0,0.0,0.0,0.0,0.0,0.0,0.0,0.0,0.0,0.0,-4.8297,-4.9164,-4.7489,-4.8626,-4.8566,0.0,0.0,0.0,0.0,0.0,0.0,-5.2127,-5.3324,-5.4551,-5.5897,-5.6735,-5.7573,-5.8351,-5.9039,-6.0057,-6.1373,-6.1014,-6.0954,-6.1104,-6.0416,-5.9458,-5.8321,-5.7483,-5.6196,-5.4491,-5.1828,-4.9494,-4.7459,-4.6441,-4.5454,-4.4676,-4.5514,-4.5274,-4.4646,0.0,0.0,0.0,0.0,0.0,0.0,0.0,0.0,0.0,0.0,0.0,-5.6476,-5.8495,-6.0895,-6.2606,-6.328,-6.2122,-6.0736,-5.9145,-5.5515,-5.3041,-5.2087,-5.2013,-5.1646,-5.0875,-5.227,-5.4546,-5.7703,-5.9391,-6.1851,-6.5007,-6.5815,-6.5335,-6.3815,-6.4359,-6.3271,-6.0575,-5.4722,-5.345,-5.4971,-5.0744,0.0,0.0,0.0,0.0,0.0,0.0,0.0,0.0,0.0,0.0,0.0,0.0,0.0,0.0,0.0,0.0,0.0,0.0,0.0,0.0,0.0,0.0,0.0,0.0,0.0,0.0,0.0,0.0,0.0,0.0,0.0,0.0,0.0,0.0,0.0,0.0,0.0,0.0,-4.7608,-5.0631,0.0,0.0,0.0,0.0,-5.087,-5.2187,-5.3533,-5.491,-5.5658,-5.6615,-5.7932,-5.9219,-6.0505,-6.1822,-6.248,-6.257,-6.2061,-6.266,-6.2301,-6.1104,-6.0416,-5.9697,-5.8979,-5.7663,-5.6705,-5.5867,-5.3204,-5.0571,-4.8237,-4.8177,-4.695,-4.5394,-4.6711,-4.6381,-4.5334,0.0,0.0,0.0,0.0,0.0,0.0,0.0,0.0,-5.351,-5.4395,-5.6165,-5.8165,-6.0265,-6.3493,-6.5655,-6.6036,-6.6383,-6.4919,-6.1005,-5.796,-5.5244,-5.2894,-5.1279,-5.0822,-5.1573,-5.3665,-5.6308,-5.9538,-6.2254,-6.442,-6.6109,-6.688,-6.6652,-6.5479,-6.5655,-6.4912,-6.3276,-5.8591,-5.5716,-5.4059,-5.1488,-4.9864,0.0,0.0,0.0,0.0,0.0,0.0,0.0,0.0,0.0,0.0,0.0,0.0,0.0,0.0,0.0,0.0,0.0,0.0,0.0,0.0,0.0,0.0,0.0,0.0,0.0,0.0,0.0,0.0,0.0,0.0,0.0,0.0,0.0,0.0,0.0,0.0,0.0,-5.1768,-5.4072,0.0,-5.2606,-5.2217,-5.2426,-5.3084,-5.4371,-5.5867,-5.7603,-5.874,-5.9967,-6.1283,-6.1762,-6.2241,-6.272,-6.2959,-6.275,-6.2091,-6.2331,-6.1523,-5.9817,-5.9578,-5.8411,-5.6555,-5.6077,-5.5269,-5.4162,-5.3234,-5.2037,-5.069,-4.9404,-4.8207,-4.7279,-4.7758,-4.7369,-4.6621,0.0,0.0,0.0,0.0,0.0,0.0,0.0,0.0,-5.3087,-5.3933,-5.6549,-5.9365,-6.2153,-6.6279,-6.8954,-6.9278,-6.9135,-6.6929,-6.1912,-5.8327,-5.495,-5.1683,-5.0545,-5.0986,-5.3151,-5.5831,-5.8804,-6.2071,-6.4237,-6.5852,-6.6916,-6.7173,-6.6798,-6.594,-6.6332,-6.5723,-6.4267,-6.2416,-5.9505,-5.5919,-5.3382,-5.2367,-5.1928,0.0,0.0,0.0,0.0,0.0,0.0,0.0,0.0,0.0,0.0,0.0,0.0,0.0,0.0,0.0,0.0,0.0,0.0,0.0,0.0,0.0,0.0,0.0,0.0,0.0,0.0,0.0,0.0,0.0,0.0,0.0,0.0,0.0,0.0,-5.1169,-5.3803,-5.4461,-5.6855,-5.7663,-5.5718,-5.5329,-5.5448,-5.6137,-5.7214,-5.859,-6.0356,-6.1283,-6.2181,-6.3049,-6.3079,-6.2959,-6.275,-6.275,-6.2181,-6.1104,-6.1313,-6.0356,-5.8411,-5.8201,-5.7034,-5.5149,-5.47,-5.3892,-5.2845,-5.2606,-5.2127,-5.1439,-5.0361,-4.9404,-4.8626,-4.8626,-4.8057,-4.7266,0.0,0.0,0.0,0.0,0.0,0.0,0.0,-5.1395,-5.2192,-5.3087,-5.6242,-5.9973,-6.4205,-6.9206,-7.2454,-7.3019,-7.0095,-6.6357,-6.1923,-5.6308,-5.1756,-4.8526,-4.9994,-5.238,-5.5647,-5.8841,-6.2071,-6.5338,-6.5375,-6.6182,-6.7677,-6.688,-6.5967,-6.507,-6.6595,-6.5922,-6.37,-6.5899,-6.4749,-6.1129,-5.6596,-5.6494,-5.8254,0.0,0.0,0.0,0.0,0.0,0.0,0.0,0.0,0.0,0.0,0.0,0.0,0.0,0.0,0.0,0.0,0.0,0.0,0.0,0.0,0.0,0.0,0.0,0.0,0.0,0.0,0.0,0.0,0.0,0.0,0.0,0.0,0.0,-4.9389,-5.3402,-5.6017,-5.5478,-5.883,-5.9907,-5.6735,-5.8112,-5.9488,-6.0116,-6.0805,-6.1732,-6.3019,-6.3079,-6.3079,-6.3079,-6.3049,-6.275,-6.2121,-6.2061,-6.1074,-5.9129,-5.9757,-5.9009,-5.7004,-5.6406,-5.5748,-5.4999,-5.3683,-5.2725,-5.2067,-5.1409,-5.0734,-5.0179,-5.0853,-5.0391,-4.9254,-4.9254,-4.8372,-4.7019,0.0,0.0,0.0,0.0,0.0,0.0,0.0,-5.1395,-5.2192,-5.3087,-5.7242,-6.1704,-6.5936,-7.0437,-7.3538,-7.4448,-7.0176,-6.5952,-6.2479,-5.6003,-5.1683,-5.0178,-5.1683,-5.4326,-5.8143,-6.0786,-6.3466,-6.6182,-6.6733,-6.7247,-6.7687,-6.7467,-6.654,-6.507,-6.6595,-6.6201,-6.441,-6.6102,-6.6542,-6.5696,-6.1264,-5.8964,-5.778,0.0,0.0,0.0,0.0,0.0,0.0,0.0,0.0,0.0,0.0,0.0,0.0,0.0,0.0,0.0,0.0,0.0,0.0,0.0,0.0,0.0,0.0,0.0,0.0,0.0,0.0,0.0,0.0,0.0,0.0,0.0,-5.0062,-5.2067,-5.2755,-5.5598,-5.8231,-5.9997,-6.1583,-6.2361,-6.1882,-6.1942,-6.2061,-6.2241,-6.2421,-6.269,-6.3049,-6.3079,-6.3079,-6.3079,-6.26,-6.2271,-6.2091,-6.1613,-6.0625,-5.9099,-5.9279,-5.8082,-5.5718,-5.5538,-5.4311,-5.2276,-5.1917,-5.1109,-5.0062,-4.9883,-4.9186,-4.8313,-4.9383,-4.9021,-4.787,-4.7403,-4.608,-4.4489,0.0,0.0,0.0,0.0,0.0,0.0,0.0,-5.1395,-5.2192,-5.3087,-5.7627,-6.2127,-6.5667,-6.9552,-7.2048,-7.2439,-6.7896,-6.354,-6.0099,-5.4314,-5.1242,-5.1793,-5.3995,-5.6785,-6.0126,-6.3282,-6.5558,-6.699,-6.7467,-6.7687,-6.7687,-6.7357,-6.6584,-6.5497,-6.6737,-6.6617,-6.5628,-6.7151,-6.8199,-6.8639,-6.6068,-6.4208,-6.2516,-5.7645,-5.6055,-5.6021,-5.3382,-5.2468,-5.2155,-4.9968,0.0,0.0,0.0,0.0,0.0,0.0,0.0,0.0,0.0,0.0,0.0,0.0,0.0,0.0,0.0,0.0,0.0,0.0,0.0,0.0,0.0,0.0,0.0,0.0,-5.2845,-5.5359,-5.6885,-5.8411,-6.0146,-6.2271,-6.2839,-6.3228,-6.3588,-6.3288,-6.3079,-6.3079,-6.3079,-6.3079,-6.3079,-6.3079,-6.2959,-6.266,-6.2301,-6.1822,-6.1253,-6.0595,-5.9608,-5.8261,-5.7992,-5.6795,-5.476,-5.4192,-5.2935,-5.1122,-5.0088,-4.8997,-4.8054,-4.752,-4.6695,0.0,0.0,0.0,0.0,0.0,-4.3798,-4.2385,0.0,0.0,0.0,0.0,0.0,0.0,0.0,-5.1318,-5.2115,-5.3087,-5.7473,-6.1435,-6.3897,-6.7205,-6.9068,-6.8521,-6.4322,-6.0051,-5.6031,-5.2058,-5.1022,-5.3628,-5.6748,-5.9575,-6.2108,-6.5962,-6.7944,-6.7944,-6.8054,-6.8054,-6.7944,-6.7136,-6.6555,-6.6277,-6.709,-6.7208,-6.6914,-6.847,-6.9519,-7.0195,-7.0195,-7.0128,-6.9316,-6.2482,-6.1467,-6.299,-5.8118,-5.5557,-5.4262,-5.2877,0.0,0.0,0.0,0.0,0.0,0.0,0.0,0.0,0.0,0.0,0.0,0.0,0.0,0.0,0.0,0.0,0.0,0.0,0.0,0.0,0.0,0.0,0.0,0.0,-5.5718,-5.8351,-6.0954,-6.1343,-6.1762,-6.2929,-6.3079,-6.3079,-6.3079,-6.3079,-6.3079,-6.3079,-6.3079,-6.3079,-6.3079,0.0,0.0,0.0,0.0,-6.1253,-5.9997,-5.9308,-5.8291,-5.6885,-5.6316,-5.5278,-5.3724,-5.2472,-5.1363,-5.0431,-4.8101,-4.6659,-4.5992,-4.4833,-4.3925,-4.3464,-4.5119,-4.4762,-4.3188,-4.2504,-4.1564,-4.068,0.0,0.0,0.0,0.0,0.0,0.0,0.0,-5.0827,-5.1471,-5.301,-5.6472,-5.9473,-6.132,-6.4589,-6.6602,-6.6485,-6.2209,-5.7747,-5.3479,-5.2149,-5.3188,-5.6895,-5.9538,-6.2365,-6.5485,-6.8238,-6.9633,-6.9633,-7.0293,-7.0257,-6.9596,-6.8825,-6.7962,-6.7089,-6.7868,-6.7695,-6.6914,-6.847,-6.9519,-7.0195,-7.0195,-6.9823,-6.9011,-6.6339,-6.4918,-6.4038,-6.1231,-6.1148,-6.1635,-5.6605,-5.5365,-5.5112,-5.0734,-4.7679,0.0,0.0,0.0,0.0,0.0,0.0,0.0,0.0,0.0,0.0,0.0,0.0,0.0,0.0,0.0,0.0,0.0,0.0,0.0,-5.5119,-5.7782,-6.0266,-6.2391,-6.269,-6.278,-6.3049,-6.3079,-6.3079,-6.3079,-6.3079,-6.3079,-6.3079,-6.3079,-6.3079,-6.3079,-6.257,-6.2241,-6.2091,-6.1044,-6.0086,-5.9308,-5.865,-5.7393,-5.5568,0.0,0.0,-5.0967,-5.0202,-4.8603,-4.6392,-4.5468,-4.4654,-4.4049,-4.3812,-4.2991,-4.1932,-4.1925,-4.1662,-4.1218,-4.0091,-3.9777,-3.9855,0.0,0.0,0.0,0.0,0.0,0.0,0.0,-5.1395,-5.2241,-5.3087,-5.6165,-5.8781,-6.0012,-6.132,-6.2089,-6.2089,-5.8012,-5.4623,-5.2641,-5.3678,-5.6198,-6.0236,-6.2365,-6.4787,-6.765,-6.9669,-7.0697,-7.0697,-7.1505,-7.1505,-7.0697,-6.9889,-6.9159,-6.8469,-6.8823,-6.8809,-6.8538,-6.9316,-7.006,-7.0737,-7.0737,-7.0297,-6.9519,-6.8368,-6.7489,-6.6508,-6.3903,-6.3429,-6.3472,-5.9743,-5.772,-5.6401,-5.3778,-5.0581,-4.7459,0.0,0.0,0.0,0.0,0.0,0.0,0.0,0.0,0.0,0.0,0.0,0.0,0.0,0.0,-4.8731,-5.0451,0.0,-5.5418,-5.7752,-5.9787,-6.1553,-6.2899,-6.3079,-6.3079,-6.3079,-6.3079,-6.3079,-6.3079,-6.3079,-6.3079,-6.3079,-6.3079,-6.2929,-6.26,-6.2271,-6.1642,-6.0625,-5.9937,-5.9129,-5.8112,-5.7124,-5.6166,-5.5179,-5.4521,-5.2802,-5.0162,-4.9231,-4.7523,-4.5194,-4.3699,-4.2863,-4.2496,-4.1838,-4.1063,-4.0205,-3.9971,-4.0022,-4.0103,-3.8868,-3.8617,-3.8768,0.0,0.0,0.0,0.0,0.0,0.0,0.0,-5.1972,-5.301,-5.3164,-5.5895,-5.7973,-5.8473,-5.8088,-5.755,-5.6896,-5.4009,-5.2462,-5.3049,-5.5729,-5.9134,-6.3356,-6.5118,-6.7136,-6.9559,-7.1027,-7.1798,-7.1798,-7.2569,-7.2459,-7.1541,-7.0881,-7.0417,-7.0132,-7.0062,-7.0213,-7.0512,-7.0419,-7.077,-7.1312,-7.1312,-7.0872,-7.0094,-6.9214,-6.8876,-6.8504,-6.5797,-6.4072,-6.2849,-6.1397,-5.8738,-5.5898,-5.5474,-5.289,-4.9523,-4.7023,-4.5663,0.0,0.0,0.0,0.0,0.0,0.0,0.0,0.0,-4.4706,-4.6082,-4.8865,-5.0391,-5.1917,-5.4341,-5.6346,-5.8261,-5.9997,-6.1403,-6.248,-6.2989,-6.3079,-6.3079,-6.3079,-6.3079,-6.3079,-6.3079,-6.3079,-6.3079,-6.3079,-6.3079,-6.278,-6.2121,-6.1972,-6.1044,-5.9159,-5.8979,-5.8201,-5.6735,-5.5688,-5.4999,-5.4581,-5.3503,-5.1739,-4.9409,-4.8264,-4.6504,-4.4234,-4.214,-4.1219,-4.1169,-4.0134,-3.9421,-3.907,-3.907,-3.9295,-3.9572,-3.8542,-3.8165,-3.809,0.0,0.0,0.0,0.0,0.0,0.0,0.0,0.0,0.0,-5.3087,-5.4818,-5.5742,-5.5126,-5.5626,-5.478,-5.1828,-5.2473,-5.3666,-5.5047,-5.7524,-6.108,-6.5888,-6.765,-6.9633,-7.2055,-7.2973,-7.3413,-7.3413,-7.4258,-7.3854,-7.2349,-7.2275,-7.2134,-7.2014,-7.1766,-7.1616,-7.1512,-7.128,-7.1244,-7.1312,-7.1312,-7.0872,-7.0026,-6.8571,-6.803,-6.7827,-6.617,-6.3835,-6.1346,-5.9975,-5.8429,-5.6686,-5.4681,-5.3365,-5.177,-4.7563,-4.4964,-4.305,-4.0965,-4.0576,-4.1265,-4.3449,-4.3618,-4.4485,0.0,-4.9434,-4.9643,-5.2875,-5.4132,-5.5089,-5.6496,-5.8411,-6.0027,-6.0864,-6.2121,-6.2989,-6.3079,-6.3079,-6.3079,-6.3079,-6.3079,-6.3079,-6.3079,-6.3079,-6.3079,-6.3079,-6.3079,-6.278,-6.2121,-6.1553,-6.0565,-5.9159,-5.853,-5.7334,-5.5418,-5.5269,-5.4281,-5.2546,-5.2366,-5.0359,-4.6729,-4.611,-4.4084,-4.1023,-4.0259,-3.9929,-3.9878,-3.9749,-3.9647,-3.9597,-3.9597,-3.9647,-3.9622,-3.8994,-3.8768,-3.8693,0.0,0.0,0.0,0.0,0.0,0.0,0.0,0.0,0.0,0.0,-5.4241,-5.5049,-5.5164,-5.4626,-5.3087,-5.0202,-5.1724,-5.38,-5.6055,-5.8801,-6.2593,-6.765,-6.8531,-7.0257,-7.312,-7.3523,-7.3927,-7.4404,-7.5212,-7.5028,-7.3891,-7.3891,-7.3805,-7.3591,-7.2905,-7.25,-7.2264,-7.1596,-7.1312,-7.1312,-7.1312,-7.0601,-6.9383,-6.7861,-6.5933,-6.3869,-6.2347,-6.0182,0.0,-5.6891,-5.5658,-5.4483,-5.4243,-5.2715,-5.0444,-4.7262,-4.5143,-4.3629,-4.2393,-4.1833,-4.2073,-4.4317,-4.5544,-4.698,-4.9927,-5.1109,-5.2366,-5.5299,-5.7034,-5.8441,-5.9757,-6.1014,-6.1912,-6.2211,-6.272,-6.3079,-6.3079,-6.275,-6.2211,-6.1433,-6.1343,-6.1792,-6.2959,-6.3079,-6.3079,-6.3079,-6.272,-6.2211,-6.1553,-6.0894,-5.9727,-5.7992,-5.7304,-5.6226,-5.464,-5.3832,-5.3025,-5.2187,-5.1798,-4.9766,-4.6283,-4.5724,-4.3513,-4.0023,-3.9798,-3.9697,-3.9697,-3.9697,-3.9697,-3.9697,-3.9697,-3.9496,-3.9145,-3.8592,-3.8366,-3.8241,0.0,0.0,0.0,0.0,0.0,0.0,0.0,0.0,0.0,0.0,-5.3818,-5.4703,-5.5318,-5.3857,-5.201,-4.9933,-5.127,-5.3414,-5.6185,-5.9094,-6.3063,-6.8338,-6.9229,-7.0954,-7.3964,-7.4258,-7.4661,-7.5249,-7.5799,-7.5689,-7.4918,-7.5139,-7.5134,-7.4968,-7.419,-7.3628,-7.3131,-7.2142,-7.1454,-7.1007,-7.1007,-6.9857,-6.7963,-6.6237,-6.3024,-5.9336,-5.8423,-5.6292,-5.372,-5.2741,-5.1623,-5.0765,-5.131,-5.0241,-4.8224,-4.5906,-4.4137,-4.294,-4.2821,-4.2851,-4.3489,-4.5813,-4.8027,-5.0032,-5.1528,-5.3114,-5.497,-5.7423,-5.9069,-6.0446,-6.1613,-6.2361,-6.281,-6.281,-6.2959,-6.3079,-6.3079,-6.2361,-6.1403,-6.0236,-5.9757,-6.0116,-6.1583,-6.2032,-6.2331,-6.251,-6.2091,-6.1523,-6.0864,-6.0356,-5.9159,-5.7154,-5.6645,-5.5718,-5.4221,-5.3054,-5.2366,-5.2187,-5.1528,-4.9387,-4.6034,-4.4566,-4.2332,-3.9697,-3.9697,-3.9697,-3.9697,-3.9697,-3.9597,-3.9471,-3.9471,-3.912,-3.8567,-3.799,-3.7789,-3.7663,0.0,0.0,0.0,0.0,0.0,0.0,0.0,0.0,0.0,0.0,0.0,0.0,0.0,-5.2972,-5.1587,-5.075,-5.1079,-5.2541,-5.5358,-5.8253,-6.2188,-6.7494,-7.0,-7.2386,-7.4808,-7.5616,-7.6056,-7.6056,-7.6093,-7.5689,-7.4918,-7.5689,-7.6093,-7.6069,-7.5832,-7.5192,-7.4196,-7.3171,-7.1781,-7.0229,-7.0229,-6.8436,-6.5561,-6.3362,-5.9302,-5.4871,-5.5581,-5.2976,-4.8993,-4.7463,-4.6447,-4.5634,-4.4551,-4.5142,-4.5701,-4.3249,-4.1085,-3.9858,-4.1085,-4.2821,-4.5035,-4.8371,-5.1156,-5.3563,-5.5538,-5.6496,-5.7543,-5.9578,-6.0057,-6.0296,-6.1014,-6.1672,-6.2121,-6.2121,-6.266,-6.3079,-6.3079,-6.1972,-6.0864,-6.0176,-5.8949,-5.8201,-5.8261,-5.9428,-6.0446,-6.1134,-6.1164,-6.0835,-6.0146,-6.0086,-5.9159,-5.7154,-5.7064,-5.6137,-5.4221,-5.3503,-5.2815,-5.2187,-5.1528,-4.923,-4.5398,-4.1591,-3.9825,-3.9697,-3.9697,-3.9697,-3.9697,-3.9697,-3.9371,-3.8944,-3.8944,-3.8542,-3.7965,-3.7412,-3.7211,-3.7211,0.0,0.0,0.0,0.0,0.0,0.0,0.0,0.0,0.0,0.0,0.0,0.0,0.0,0.0,0.0,0.0,-5.1303,-5.2676,-5.4958,-5.7311,-6.0252,-6.3904,-6.6659,-6.9486,-7.2459,-7.3817,-7.5028,-7.6093,-7.6644,-7.624,-7.4955,-7.6276,-7.6607,-7.6099,-7.5901,-7.5227,-7.4234,-7.3212,-7.2056,-7.0804,-6.9282,-6.776,-6.5967,-6.1738,-5.7543,-5.3518,0.0,-4.7868,-4.5105,-4.413,-4.3294,-4.2676,-4.2587,-4.2268,-4.1562,-3.9647,-3.9858,-4.1115,-4.2851,-4.5723,-4.9,-5.2366,-5.485,-5.6735,-5.7872,-5.862,-5.9009,-5.883,-5.8082,-5.7423,-5.7214,-5.7723,-5.8441,-5.9308,-6.0775,-6.1942,-6.2361,-6.1672,-6.0206,-5.7782,-5.7453,-5.6944,-5.5658,-5.7513,-5.9069,-5.9727,-5.9787,-5.9668,-5.9458,-5.9009,-5.8261,-5.7124,-5.6286,-5.5089,-5.3533,-5.2875,-5.1977,-5.0823,-4.8093,-4.6079,-4.4712,-4.1282,-3.9697,-3.9697,-3.9697,-3.9697,-3.9672,-3.9295,-3.9044,-3.8894,-3.8442,-3.7965,-3.7437,-3.7262,-3.696,-3.6681,0.0,0.0,0.0,0.0,0.0,0.0,0.0,0.0,0.0,0.0,0.0,0.0,0.0,0.0,0.0,0.0,0.0,-5.2154,-5.3727,-5.5346,-5.7454,-6.0152,-6.261,-6.5118,-6.7797,-6.9119,-7.044,-7.1798,-7.2642,-7.2642,-7.1945,-7.3266,-7.3744,-7.3531,-7.3681,-7.3374,-7.262,-7.1696,-7.0222,-6.8368,-6.5752,-6.3802,-6.1975,-5.7509,-5.3856,0.0,-4.7225,-4.4553,-4.2469,-4.1419,-4.0773,-4.032,-4.0098,-3.9526,-3.8828,-3.8266,-4.0008,-4.2671,-4.5364,-4.8805,-5.2396,-5.5478,-5.7543,-5.886,-5.9069,-5.9069,-5.859,-5.7034,-5.5658,-5.4491,-5.3593,-5.3773,-5.4491,-5.5777,-5.7274,-5.8919,-6.0775,-6.0057,-5.883,-5.7393,-5.6944,-5.6286,-5.5029,-5.6226,-5.7453,-5.8321,-5.862,-5.874,-5.874,-5.8351,-5.7812,-5.7124,-5.5867,-5.467,-5.3563,-5.2665,-5.1528,-5.0166,-4.6348,-4.4484,-4.4387,-4.1204,-3.9697,-3.9697,-3.9496,-3.9396,-3.9346,-3.8793,-3.8442,-3.8216,-3.7864,-3.7387,-3.6885,-3.6885,-3.6707,-3.6405,0.0,0.0,0.0,0.0,0.0,0.0,0.0,0.0,0.0,0.0,0.0,0.0,0.0,0.0,0.0,0.0,0.0,0.0,-5.179,-5.2589,-5.4088,-5.6456,-5.813,-5.9795,-6.1374,-6.2254,-6.3099,-6.3943,-6.4751,-6.5448,-6.6145,-6.6953,-6.7687,-6.8458,-6.9302,-6.9544,-6.9241,-6.8524,-6.6356,-6.3195,-6.0049,-5.7103,-5.4262,-5.1183,-4.868,-4.6616,-4.5122,-4.3132,-4.1032,-3.9568,-3.91,-3.8859,-3.7363,-3.7264,-3.7982,-3.9301,-4.1602,-4.4586,-4.8461,-5.1947,-5.5119,-5.7693,-5.9249,-5.9937,-5.9219,-5.7962,-5.6376,-5.4311,-5.2785,-5.1379,-4.9986,-4.9837,-5.0405,-5.1858,-5.2785,-5.47,-5.865,-5.7573,-5.7064,-5.889,-5.7453,-5.6286,-5.6226,-5.5688,-5.5837,-5.7004,0.0,-5.8022,-5.8022,-5.8022,-5.7723,-5.7004,-5.5777,-5.482,-5.4102,-5.2755,-5.1409,-5.0076,-4.6339,-4.4505,-4.4332,-4.1229,-3.9724,-3.9622,-3.912,-3.8944,-3.8869,-3.8266,-3.7739,-3.7236,-3.7186,-3.6883,-3.6405,-3.6405,-3.6405,-3.6405,0.0,0.0,0.0,0.0,0.0,0.0,0.0,0.0,0.0,0.0,0.0,0.0,0.0,0.0,0.0,0.0,0.0,0.0,-5.0993,-5.1778,-5.2478,-5.311,-5.5316,-5.7262,-5.8877,-6.0309,-6.141,-6.2218,-6.2438,-6.2034,-6.1056,-6.1887,-6.2071,-6.1716,-6.3135,-6.3328,-6.2579,-6.252,-6.1551,-5.984,-5.688,-5.5277,-5.4194,-5.0642,-4.824,-4.6616,-4.5122,-4.3498,-4.1955,-4.156,-4.1788,-4.2081,-4.108,-4.1451,-4.2397,-4.3254,-4.587,-4.9,-5.1498,-5.5329,-5.8979,-6.0655,-6.0954,-6.0416,-5.877,-5.6585,-5.3952,-5.0511,-4.7938,-4.5783,-4.3958,-4.5244,-4.7459,-5.0226,-5.3354,-5.6615,-6.0116,-5.9727,-5.9099,-5.9099,-5.865,-5.7962,-5.6944,-5.7184,-5.7304,-5.7094,-5.6825,-5.6675,-5.6675,-5.6675,-5.6376,-5.5688,-5.488,-5.3892,-5.2725,-5.093,-4.9613,-4.8775,-4.6343,-4.4696,-4.3677,-4.1918,-4.036,-3.9094,-3.9371,-3.9245,-3.8919,-3.8718,-3.8316,-3.7764,-3.7337,-3.6883,-3.6405,-3.6405,-3.6405,-3.6405,0.0,0.0,0.0,0.0,0.0,0.0,0.0,0.0,0.0,0.0,0.0,0.0,0.0,0.0,0.0,0.0,0.0,0.0,0.0,-5.0585,-5.0679,-5.0342,-5.1652,-5.2821,-5.3739,-5.462,-5.55,-5.6308,-5.6308,-5.6235,-5.6051,-5.6161,-5.6345,-5.6616,-5.7886,-5.8324,-5.8119,-5.8239,-5.7429,0.0,0.0,-5.1199,-5.0405,-4.7597,-4.6244,-4.5703,-4.4919,-4.4248,-4.3842,-4.4147,-4.4332,-4.4438,-4.4982,-4.5655,-4.6562,-4.8382,-5.0598,-5.2905,-5.5179,-5.8321,-6.1074,-6.1553,-6.0954,-5.9488,-5.6615,-5.3922,-5.084,-4.6604,-4.4047,-4.2073,-4.0367,-4.1504,-4.3688,-4.6668,-5.0062,-5.3743,-5.7932,-5.865,-5.8949,-5.9488,-5.9787,-5.9458,-5.8112,-5.8321,-5.8141,-5.7154,-5.6765,-5.6585,-5.6585,-5.6047,-5.5568,-5.5209,-5.3982,-5.2695,-5.1349,-4.9972,-4.897,-4.8267,-4.5751,-4.421,-4.3456,-4.1591,-4.0185,-3.922,0.0,-3.917,-3.8869,-3.8391,-3.7939,-3.7588,-3.7036,-3.6681,-3.6405,-3.6405,-3.6405,-3.6405,0.0,0.0,0.0,0.0,0.0,0.0,0.0,0.0,0.0,0.0,-5.0596,0.0,0.0,0.0,0.0,0.0,0.0,0.0,0.0,0.0,-4.9155,-4.8402,-4.8344,-4.8306,-4.8306,-4.8306,-4.8636,-4.928,-4.928,-4.9941,-5.1169,-5.0472,-5.0912,-5.227,-5.3078,-5.3812,-5.4466,-5.4496,-5.3376,-5.1386,-4.8564,-4.6659,-4.5399,0.0,0.0,-4.4615,-4.4615,-4.4993,-4.5703,-4.6752,-4.6834,-4.6904,-4.9161,-4.9992,-5.0725,-5.389,-5.5197,-5.6137,-5.868,-6.0715,-6.1972,-6.1373,-6.0027,-5.7812,-5.3832,-5.075,-4.7472,-4.283,-4.0846,-3.9589,-3.8242,-3.8691,-4.018,-4.308,-4.5753,-4.9314,-5.47,-5.6406,-5.7842,-5.9847,-6.0625,-6.0505,-5.9338,-5.9159,-5.859,-5.7334,-5.7064,-5.6885,-5.6705,-5.5658,-5.494,-5.467,-5.2905,-5.1319,-4.9956,-4.9434,-4.8761,-4.7852,-4.5096,-4.3598,-4.317,-4.0995,-3.9801,-3.9572,-3.917,-3.8994,-3.8844,-3.7814,-3.7362,-3.7236,-3.6732,-3.648,-3.6405,-3.6405,-3.6405,-3.6405,0.0,0.0,0.0,0.0,0.0,0.0,0.0,0.0,0.0,0.0,-5.0048,-4.9625,0.0,0.0,0.0,0.0,0.0,0.0,0.0,0.0,0.0,-4.883,-4.8495,-4.8306,-4.8306,-4.8306,-4.8049,-4.7516,-4.7516,-4.7352,-4.6948,-4.6801,-4.6911,-4.7205,-4.7993,-4.8434,-4.8598,-4.8741,-4.8289,-4.7356,-4.6307,-4.5451,-4.4784,-4.4513,0.0,0.0,-4.4615,-4.4682,-4.519,-4.7767,-4.9801,-5.1595,-5.3854,-5.4859,-5.5641,-5.7947,-5.8159,-5.8082,-6.0176,-6.1403,-6.2061,-6.1942,-5.9668,-5.6406,-5.2456,-4.8656,-4.4676,-4.0038,-3.8452,-3.7524,-3.6237,-3.7404,-3.9978,-4.4257,-4.6741,-5.0152,-5.5957,-5.6944,-5.7842,-5.9847,-6.0176,-6.0176,-5.9937,-5.9428,-5.877,-5.7992,-5.6944,-5.5867,-5.476,-5.4491,-5.3623,-5.1977,-5.1003,-4.9942,-4.8626,-4.8506,-4.76,-4.5908,-4.5355,-4.3975,-4.1936,-4.1468,-4.0435,-3.9044,-3.9396,0.0,-3.8894,-3.8718,-3.8291,-3.7814,-3.7262,-3.6807,-3.6405,-3.6405,-3.6405,-3.6405,0.0,0.0,0.0,0.0,0.0,0.0,0.0,-4.8548,-4.9394,-5.1087,-5.1356,-5.1048,-5.0164,-4.9279,-4.9086,0.0,0.0,0.0,0.0,0.0,0.0,0.0,0.0,0.0,-4.8306,-4.8306,-4.8122,-4.77,0.0,-4.7113,-4.7131,-4.6287,-4.6104,-4.6526,-4.6929,-4.7113,-4.713,-4.7667,-4.7491,-4.6864,-4.6233,-4.5597,0.0,0.0,0.0,0.0,0.0,-4.4852,-4.55,-4.7699,-5.0168,-5.2942,-5.6359,-5.7918,-5.8993,-6.118,-6.0958,-6.038,-6.1751,-6.2361,-6.245,-6.1762,-5.883,-5.488,-5.0242,-4.6112,-4.2043,-3.7764,-3.6656,-3.6237,-3.5609,-3.6806,-3.896,-4.2222,-4.4436,-4.7549,-5.2785,-5.4401,-5.5927,-5.8261,-5.9458,-5.9937,-5.9608,-5.9279,-5.868,-5.7663,-5.6406,-5.5388,-5.476,-5.3414,-5.2067,-5.0704,-5.0062,-4.9254,-4.8297,-4.8297,-4.7673,-4.6344,-4.5024,-4.3787,-4.2544,-4.1219,-4.0134,-3.932,-3.9572,-3.9546,-3.9245,-3.8668,-3.8266,-3.7914,-3.7086,-3.6631,-3.6405,-3.6405,-3.6405,-3.6405,0.0,0.0,0.0,0.0,0.0,0.0,0.0,-4.9163,-5.001,-5.1692,-5.25,-5.2356,-5.0866,-4.9471,-4.8779,0.0,0.0,0.0,0.0,0.0,0.0,0.0,0.0,0.0,0.0,0.0,0.0,-4.8306,-4.7663,0.0,0.0,0.0,0.0,0.0,-4.7369,-4.7369,-4.7406,-4.8049,-4.7858,0.0,0.0,-4.5965,0.0,0.0,0.0,0.0,0.0,-4.4959,-4.5669,-4.6959,-4.9086,-5.1792,-5.5649,-5.8269,-6.0226,-6.1915,-6.2048,-6.1827,-6.2698,-6.2959,-6.275,-6.1433,-5.8022,-5.3623,-4.8476,-4.4137,-4.0098,-3.6297,-3.5519,-3.5519,-3.5519,-3.6327,-3.7734,-4.0038,-4.1713,-4.4407,-4.9164,-5.1528,-5.3743,-5.6376,-5.8441,-5.9458,-5.8949,-5.877,-5.8171,-5.6974,-5.5448,-5.4551,-5.4551,-5.2306,-5.072,-5.0062,-4.9404,-4.8745,-4.8087,-4.8087,-4.7656,-4.6887,-4.4581,-4.3361,-4.3026,-4.0743,-3.9697,-3.9697,-3.9697,-3.9697,-3.9597,-3.8467,-3.8015,-3.7889,-3.6832,-3.6405,-3.6405,-3.6405,-3.6405,-3.6405,0.0,0.0,0.0,0.0,0.0,0.0,0.0,-4.8432,-5.001,-5.1692,-5.1962,-5.1702,-5.0789,-5.0558,-4.9856,0.0,0.0,0.0,0.0,0.0,0.0,0.0,0.0,0.0,0.0,0.0,0.0,-4.8306,-4.8233,0.0,0.0,0.0,0.0,0.0,0.0,-4.8196,-4.8196,-4.8269,0.0,0.0,0.0,0.0,0.0,0.0,0.0,0.0,0.0,-4.4649,-4.4818,-4.5635,-4.6515,-4.7597,-4.9357,-5.3825,-5.832,-5.8,-5.9328,-6.112,-6.195,-6.263,-6.275,-6.1433,-5.7693,-5.3054,-4.8386,-4.3778,-3.9529,-3.6207,-3.5519,-3.5519,-3.5519,-3.5609,-3.6716,-3.9888,-4.0546,-4.2491,-4.7728,-5.0152,-5.2396,-5.5059,-5.7094,-5.8291,-5.8231,-5.7633,-5.7004,-5.6316,-5.3922,-5.2486,-5.2486,-5.1109,-5.0032,-4.9419,-4.8716,-4.8057,-4.7399,-4.7399,-4.6785,-4.5553,-4.4163,-4.2882,-4.1739,-4.0313,-3.9697,-3.9697,-3.9697,-3.9697,0.0,-3.8467,-3.8015,-3.7889,-3.6832,-3.6405,-3.6405,-3.6405,-3.6405,-3.6405,0.0,0.0,0.0,0.0,0.0,0.0,-4.7432,-4.8625,-5.0202,-5.2395,-5.3549,-5.3664,-5.2356,-5.1741,-5.0317,-4.7625,0.0,0.0,0.0,0.0,0.0,0.0,0.0,0.0,0.0,0.0,-4.8306,-4.8306,-4.8306,0.0,0.0,0.0,0.0,0.0,0.0,-4.8306,-4.8306,-4.8306,0.0,0.0,0.0,0.0,0.0,0.0,0.0,0.0,0.0,0.0,-4.4649,-4.4925,-4.5534,-4.6007,-4.5196,-4.8202,-5.2584,-5.5588,-5.7172,-5.851,-6.0696,-6.1569,-6.1583,-6.0236,-5.6137,-5.1409,-4.7578,-4.2821,-3.8482,-3.6028,-3.5519,-3.5519,-3.5519,-3.5519,-3.6178,-3.8272,-3.8272,-3.9619,-4.4118,-4.5436,-4.7608,-5.2247,-5.3832,-5.5329,-5.7304,-5.6555,-5.5329,-5.3892,-5.2426,-5.1439,-5.105,-4.9763,-4.8955,-4.8686,-4.8027,-4.7578,-4.7309,-4.7309,-4.7062,-4.655,-4.4489,-4.3218,-4.2689,-4.0642,-3.9697,-3.9697,-3.9697,-3.9697,0.0,-3.8467,-3.8015,-3.7889,-3.6832,-3.6405,-3.6405,-3.6405,-3.6405,-3.6405,0.0,0.0,0.0,0.0,0.0,-4.6086,-4.7548,-4.8471,-4.974,-5.1818,-5.3318,-5.371,-5.2384,-5.1373,-4.9749,-4.7159,-4.6326,0.0,0.0,0.0,0.0,0.0,0.0,0.0,0.0,0.0,-4.8306,-4.8306,-4.8306,-4.8306,0.0,0.0,-4.8192,-4.8035,0.0,0.0,0.0,0.0,0.0,0.0,0.0,0.0,0.0,0.0,0.0,0.0,0.0,0.0,0.0,0.0,0.0,-4.4384,-4.2557,-4.3639,-4.6514,-5.1221,-5.3898,-5.5797,-5.8275,-5.9379,-5.9697,-5.874,-5.4551,-4.9823,-4.6711,-4.2073,-3.7853,-3.5908,-3.5519,-3.5519,-3.5519,-3.5519,-3.5878,-3.6956,-3.6926,-3.7943,-4.1332,-4.2321,-4.4436,-4.9194,-5.0511,-5.2247,-5.5359,-5.5209,-5.4221,-5.2606,-5.1528,-5.0631,-4.9972,-4.8716,-4.8087,-4.8267,-4.7638,-4.7309,-4.7309,-4.7309,-4.7309,-4.7266,-4.472,-4.3504,-4.3409,-4.0844,-3.9697,-3.9697,-3.9697,-3.9597,0.0,-3.8391,-3.7914,-3.7663,-3.6782,-3.6405,-3.6405,-3.6405,-3.6405,-3.6405,0.0,0.0,0.0,0.0,0.0,0.0,-4.6778,-4.7586,-4.8432,-4.9317,-5.0212,-5.0563,-5.0073,-4.8907,-4.782,-4.7078,-4.5834,0.0,0.0,0.0,0.0,0.0,0.0,0.0,0.0,0.0,-4.8306,-4.8306,-4.8306,-4.8306,-4.8306,-4.8306,-4.7995,-4.7406,0.0,0.0,0.0,0.0,0.0,0.0,0.0,0.0,0.0,0.0,0.0,0.0,0.0,0.0,0.0,0.0,0.0,0.0,0.0,-4.073,-4.0793,-4.3965,-4.8822,-5.3334,-5.4206,-5.5769,-5.7124,-5.7124,-5.3174,-4.864,-4.5903,-4.1713,-3.7853,-3.5908,-3.5519,-3.5519,-3.5519,-3.5519,-3.5729,-3.6387,-3.7015,-3.8093,-4.0127,-4.2132,-4.4137,-4.61,-4.7519,-4.9374,-5.2007,-5.3443,-5.3922,-5.3234,-5.1349,0.0,-4.9359,-4.8027,-4.7608,-4.8267,-4.7638,-4.7309,-4.7309,-4.7309,-4.7309,-4.7266,-4.472,-4.3504,-4.3409,-4.0844,-3.9697,-3.9697,-3.9697,-3.9371,0.0,-3.8241,-3.7688,-3.7136,-3.6631,-3.6405,-3.6405,-3.6405,-3.6405,-3.6405,0.0,0.0,0.0,0.0,0.0,0.0,0.0,-4.674,-4.7586,-4.8394,-4.9053,-4.9629,-5.0021,-4.8464,-4.7238,-4.675,-4.5515,0.0,0.0,0.0,0.0,0.0,0.0,0.0,0.0,-4.8306,-4.86,-4.9206,-4.86,-4.86,-4.915,-4.817,-4.7575,-4.7385,-4.6932,-4.6577,0.0,0.0,0.0,0.0,0.0,0.0,-4.5669,0.0,0.0,0.0,0.0,0.0,0.0,0.0,0.0,0.0,0.0,0.0,0.0,-4.0776,-4.3912,-4.7656,-4.8973,-5.0191,-5.087,-4.9972,-4.713,-4.4118,-4.2342,-3.9439,-3.6776,-3.5729,-3.5519,-3.5519,-3.5519,-3.5519,-3.5848,-3.6956,-3.7285,-3.7943,-3.9499,-4.1055,-4.309,-4.595,-4.9883,-5.2665,-5.3503,-5.3533,-5.3234,-5.2576,-5.069,-4.9494,-4.9329,-4.8027,-4.7399,-4.7608,-4.7429,-4.7309,-4.7309,-4.7309,-4.7309,-4.7266,-4.472,-4.3504,-4.3409,-4.0844,-3.9697,-3.9672,-3.9295,-3.9245,-3.932,-3.799,-3.7563,-3.7663,-3.6782,-3.6405,-3.6405,-3.6405,-3.6405,-3.6405,0.0,0.0,0.0,0.0,0.0,0.0,0.0,-4.5936,-4.6407,-4.6906,-4.7132,-4.7631,-4.8588,-4.7184,-4.6205,-4.6327,-4.5133,0.0,0.0,0.0,0.0,0.0,0.0,0.0,-4.8269,-4.8306,-4.871,-4.961,-4.937,-4.9517,-5.0031,-4.9147,-4.8285,-4.7487,-4.6777,-4.6195,0.0,0.0,0.0,0.0,0.0,0.0,-4.6041,0.0,0.0,0.0,0.0,0.0,0.0,0.0,0.0,0.0,0.0,0.0,0.0,0.0,-4.0156,-4.2419,-4.4439,-4.5675,-4.6292,-4.5693,-4.3569,-4.1354,-4.0277,-3.8182,-3.6297,-3.5639,-3.5519,-3.5519,-3.5519,-3.5519,-3.5759,-3.6567,-3.7105,-3.7793,-3.8871,-4.0606,-4.288,-4.5963,-5.0331,-5.3084,-5.3084,-5.3144,-5.3025,-5.2606,-5.0557,-4.9299,-4.9299,-4.8027,-4.7309,-4.7309,-4.7309,-4.7309,-4.7309,-4.7309,-4.7309,-4.7266,-4.5207,-4.3975,-4.3456,-4.1369,-4.0185,-3.9672,-3.932,-3.927,0.0,-3.8015,-3.7563,-3.7613,-3.6757,-3.6405,-3.6405,-3.6405,-3.6405,-3.6405,0.0,0.0,0.0,0.0,0.0,0.0,0.0,-4.5263,-4.5044,-4.5044,-4.4776,-4.4988,-4.6121,-4.5227,-4.4841,-4.5662,0.0,0.0,0.0,0.0,0.0,0.0,0.0,0.0,-4.8269,-4.8306,-4.8746,-4.9684,-5.0435,-5.0819,-5.0904,-5.0909,-4.9758,-4.7674,-4.6943,-4.5836,-4.4649,-4.5331,-4.6041,-4.665,-4.5974,-4.6109,0.0,0.0,0.0,0.0,0.0,0.0,0.0,0.0,0.0,0.0,0.0,0.0,0.0,0.0,0.0,0.0,0.0,-4.1954,-4.2931,-4.3539,-4.1863,-3.9888,-3.9254,-3.7734,0.0,-3.5639,-3.5519,-3.5519,-3.5579,-3.5549,-3.5519,-3.5639,-3.6626,-3.7644,-3.8362,-4.0943,-4.3688,-4.6249,-4.9464,-5.1409,-5.1289,-5.2426,-5.3144,-5.3114,-5.0767,-4.9299,-4.9299,-4.8027,-4.7309,-4.7309,-4.7309,-4.7309,-4.7309,-4.7309,-4.7309,-4.7266,-4.6003,-4.472,-4.3456,-4.2181,-4.0895,0.0,-3.9647,-3.9346,-3.8869,-3.8191,-3.7638,-3.7136,-3.6631,-3.6405,-3.6405,-3.6405,-3.6405,-3.6405,0.0,0.0,0.0,0.0,0.0,0.0,0.0,0.0,0.0,0.0,-4.4373,-4.4252,-4.4519,-4.4056,-4.3845,0.0,0.0,0.0,0.0,0.0,0.0,0.0,0.0,0.0,-4.8269,-4.8306,-4.904,-5.0508,-5.0729,-5.1104,-5.1687,-5.126,-4.9861,-4.7691,-4.7049,-4.5943,-4.4615,-4.4784,-4.5263,-4.594,-4.5771,-4.5805,0.0,0.0,0.0,0.0,-4.4615,-4.4615,0.0,0.0,0.0,0.0,0.0,0.0,0.0,0.0,-3.7329,-3.6847,-3.6942,0.0,-3.8003,-3.7674,-3.7105,-3.6626,0.0,-3.6058,-3.5699,-3.5549,-3.5519,-3.5669,-3.6178,-3.5848,-3.5818,-3.6806,-3.7225,-3.7823,-3.902,-4.321,-4.695,-4.903,-5.1798,-5.3114,-5.2067,-5.2695,-5.2965,-5.2456,-5.0481,-4.9299,-4.9299,-4.8027,-4.7309,-4.7309,-4.7309,-4.7309,-4.7309,-4.7309,-4.7309,-4.7266,-4.6003,-4.472,-4.3456,-4.2181,-4.0895,-3.9672,-3.9245,-3.9045,-3.8844,-3.7789,-3.7287,-3.7136,-3.6631,-3.6405,-3.6405,-3.6405,-3.6405,-3.6405,0.0,0.0,0.0,0.0,0.0,0.0,0.0,0.0,0.0,0.0,0.0,-4.3791,-4.3791,-4.3614,0.0,0.0,0.0,0.0,0.0,0.0,0.0,0.0,0.0,-4.6654,-4.8269,-4.8306,-4.9114,-5.0802,-5.0827,-5.1411,-5.2522,-5.1617,-5.0138,-4.8176,-4.6522,-4.5359,-4.4615,-4.4959,-4.5331,-4.5703,-4.5703,0.0,0.0,0.0,0.0,0.0,-4.4615,-4.4615,0.0,-4.4181,-4.3538,-4.276,0.0,0.0,0.0,0.0,-3.6995,-3.6006,-3.5619,-3.5759,-3.5938,-3.5579,-3.5519,-3.5519,-3.5519,-3.5519,-3.5519,-3.5519,-3.5519,-3.5609,-3.5968,-3.5759,-3.5818,-3.6836,-3.7494,-3.8751,-4.1294,-4.4915,-4.8147,-5.0375,-5.2486,-5.3563,0.0,-5.2875,-5.2456,-5.1798,-4.9942,-4.885,-4.885,-4.7848,-4.7309,-4.7309,-4.7309,-4.7309,-4.7309,-4.7309,-4.7309,-4.7309,-4.6594,-4.5298,-4.3504,-4.2786,-4.1311,-3.9295,-3.9045,-3.8718,-3.8417,-3.7686,-3.7333,-3.7283,-3.6631,-3.6405,-3.6405,-3.6405,-3.6405,-3.6405,0.0,0.0,0.0,0.0,0.0,0.0,0.0,0.0,0.0,0.0,0.0,0.0,0.0,0.0,0.0,0.0,0.0,0.0,0.0,0.0,0.0,0.0,-4.5883,-4.6654,-4.8269,-4.8306,-4.9074,-5.0643,-5.0931,-5.1718,-5.2899,-5.2011,-5.0622,-4.8653,-4.5948,-4.4716,-4.4649,-4.5263,-4.5534,-4.5534,-4.5534,0.0,0.0,0.0,0.0,0.0,0.0,0.0,0.0,-4.3639,-4.2861,-4.1989,-4.1242,0.0,0.0,0.0,0.0,0.0,-3.5519,-3.5639,-3.5759,-3.5549,-3.5519,-3.5519,-3.5519,-3.5519,-3.5519,-3.5519,-3.5519,-3.5549,-3.5639,-3.5639,-3.5908,-3.6656,-3.8123,-4.0516,-4.4377,-4.6651,-4.8775,-5.1079,-5.2636,0.0,-5.3743,-5.2815,-5.1887,-5.1139,-4.9344,-4.8297,-4.8297,-4.7668,-4.7309,-4.7309,-4.7309,-4.7309,-4.7309,-4.7309,-4.7222,-4.7019,-4.7019,-4.5689,-4.3218,-4.3108,-4.1586,-3.8919,-3.8768,0.0,-3.7913,-3.7608,-3.7455,-3.7255,-3.6653,-3.6405,-3.6405,-3.6405,-3.6405,-3.6405,0.0,0.0,0.0,0.0,0.0,0.0,0.0,0.0,0.0,0.0,0.0,0.0,0.0,0.0,0.0,0.0,0.0,0.0,0.0,0.0,0.0,-4.581,-4.5883,-4.6654,-4.8269,-4.8306,-4.8859,-4.9945,-5.121,-5.1729,-5.1527,-5.2646,-5.1335,-4.795,-4.6302,-4.5162,-4.4615,-4.4716,-4.4784,-4.4784,-4.4784,0.0,0.0,0.0,0.0,0.0,0.0,0.0,0.0,-4.3443,-4.2523,-4.1235,-4.0506,0.0,0.0,0.0,0.0,0.0,-3.5519,-3.6297,-3.6866,-3.5789,-3.5519,-3.5519,-3.5519,-3.5519,-3.5519,-3.5519,-3.5519,-3.5669,-3.6237,-3.6327,-3.6716,-3.7913,-4.0636,-4.3808,-4.7189,-4.9374,-5.096,-5.1947,-5.3713,-5.4042,-5.1887,-5.2007,-5.1708,-5.0435,-4.9075,-4.8297,-4.8297,-4.7668,-4.7309,-4.7309,-4.7309,-4.7309,-4.7309,-4.7309,-4.677,-4.5689,-4.5689,-4.4349,-4.1861,-4.1431,-4.0363,-3.8894,0.0,-3.7913,-3.7558,-3.7531,-3.7129,-3.6556,-3.6455,-3.6405,-3.6405,-3.6405,-3.6405,-3.6405,0.0,0.0,0.0,0.0,0.0,0.0,0.0,0.0,0.0,0.0,0.0,0.0,0.0,0.0,0.0,0.0,0.0,0.0,0.0,0.0,-4.4195,-4.581,-4.5586,-4.6161,-4.7781,-4.8592,-4.927,-4.9865,-5.0944,-5.1815,-5.2364,-5.1489,-4.9722,-4.7259,-4.5771,-4.4919,-4.4615,-4.4615,-4.4615,-4.4615,0.0,0.0,0.0,0.0,0.0,0.0,0.0,0.0,0.0,0.0,-4.1779,-4.1006,-3.9812,0.0,0.0,0.0,0.0,0.0,-3.5519,-3.5938,-3.6327,-3.6088,-3.6297,-3.6357,-3.5669,-3.5519,-3.5519,-3.5519,-3.5519,-3.5699,-3.6357,-3.7045,-3.8422,-4.1145,-4.3479,-4.5753,-4.7967,-4.9374,-5.0351,-5.0935,0.0,-5.1712,-4.9716,-4.9824,-4.9527,-4.8236,-4.7911,-4.7758,-4.7758,-4.7459,-4.7309,-4.7309,-4.7309,-4.713,-4.677,-4.677,-4.615,-4.4944,-4.4283,-4.2794,-4.0689,-4.0769,-3.98,-3.7989,0.0,-3.7409,-3.6905,-3.6905,-3.6729,-3.6405,-3.6405,-3.6405,-3.6383,-3.6416,-3.6413,-3.6386,0.0,0.0,0.0,0.0,0.0,0.0,0.0,0.0,0.0,0.0,0.0,0.0,0.0,0.0,0.0,0.0,0.0,0.0,0.0,-4.3515,-4.4142,-4.5644,-4.524,-4.5993,-4.8157,-4.8964,-4.9637,-5.0198,-5.0967,-5.1869,-5.2819,-5.0212,-4.8206,-4.6718,-4.5461,-4.4784,-4.4615,-4.4615,-4.4615,-4.4615,0.0,0.0,0.0,0.0,0.0,0.0,0.0,0.0,0.0,0.0,0.0,0.0,0.0,0.0,0.0,-3.6569,-3.5943,-3.5519,-3.5519,-3.5729,-3.5998,-3.6207,-3.6596,-3.6866,-3.6507,-3.6297,-3.6267,-3.6596,-3.6537,-3.6537,-3.6866,-3.8123,-4.0187,-4.3539,-4.5603,-4.7249,-4.8566,-4.9207,-4.9716,-5.0191,-5.009,-4.9388,-4.8048,-4.7807,-4.7405,-4.6472,-4.6681,-4.6887,-4.6887,-4.7149,-4.7149,-4.6887,-4.7,-4.6701,-4.5908,-4.5582,-4.4907,-4.3926,-4.295,-4.1381,-3.9494,-3.9808,-3.8965,-3.7186,-3.7207,-3.6905,-3.6405,-3.6405,-3.6405,-3.6405,-3.6405,-3.6408,-3.6413,-3.6376,-3.6739,-3.7149,0.0,0.0,0.0,0.0,0.0,0.0,0.0,0.0,0.0,0.0,0.0,0.0,0.0,0.0,0.0,0.0,0.0,0.0,0.0,-4.3515,-4.3962,-4.5028,-4.5003,-4.6744,-5.0482,-4.9399,-4.9547,-5.1095,-5.181,-5.1871,-5.1315,-4.976,-4.8206,-4.6752,-4.5974,-4.5229,-4.4615,-4.4615,-4.4615,-4.4615,-4.4615,0.0,0.0,0.0,0.0,0.0,0.0,0.0,0.0,0.0,0.0,0.0,0.0,0.0,-3.6538,-3.5814,-3.5522,-3.5519,-3.5519,-3.6357,-3.7015,-3.5878,-3.5609,-3.6267,-3.8601,-3.8631,-3.8542,-3.9798,-3.9559,-3.896,-3.8362,-3.9858,-4.1654,-4.311,-4.6082,-4.8596,-4.9867,-5.0066,-5.0348,-5.094,-4.9945,-4.8711,-4.747,-4.68,-4.6455,-4.6379,-4.5854,-4.5553,-4.5553,-4.6638,-4.677,-4.5598,-4.6091,-4.5852,-4.4733,-4.3502,-4.2537,-4.19,-4.1809,-4.0489,-3.8138,-3.7659,-3.7358,-3.7161,-3.6707,-3.6455,-3.6405,-3.6405,-3.6405,-3.6405,-3.6405,-3.6416,-3.6377,-3.6402,-3.7726,-3.9488,0.0,0.0,0.0,0.0,0.0,0.0,0.0,0.0,0.0,0.0,0.0,0.0,0.0,0.0,0.0,0.0,0.0,0.0,0.0,-4.3196,-4.3628,-4.5007,-4.4325,-4.5481,-4.886,-4.9318,-5.0074,-5.1185,-5.1904,-5.1437,-4.983,-4.8815,-4.753,-4.6075,-4.5331,-4.4857,-4.4615,-4.4615,-4.4615,-4.4615,-4.4615,-4.4615,0.0,0.0,0.0,0.0,0.0,0.0,0.0,0.0,-3.9388,-3.869,-3.744,-3.6843,-3.6477,-3.5718,-3.5519,-3.5519,-3.5519,-3.5848,-3.6207,-3.6148,-3.5818,-3.6088,-3.8272,-3.8571,-3.8661,-3.9589,-4.0247,-4.0696,-4.0883,-4.2132,-4.3629,-4.4934,-4.695,-4.8596,-4.9432,-4.9591,-4.9279,-4.8593,-4.7405,-4.6009,-4.4306,-4.396,-4.376,-4.3436,-4.3899,-4.421,-4.421,-4.4379,-4.4543,-4.4768,-4.3957,-4.3457,-4.3344,-4.2092,-4.0819,-3.9454,-3.9803,-3.895,-3.6985,-3.7136,-3.6985,-3.6707,-3.6505,-3.6405,-3.6405,-3.6405,-3.6405,-3.6405,-3.6405,-3.6416,-3.6574,-3.7909,-3.8981,-3.961,0.0,0.0,0.0,0.0,0.0,0.0,0.0,0.0,0.0,0.0,0.0,0.0,0.0,0.0,0.0,0.0,0.0,0.0,-4.325,-4.2884,-4.3133,-4.4114,-4.3314,-4.4086,-4.6721,-4.822,-4.971,-5.1185,-5.1725,-5.0947,-4.8984,-4.8003,-4.7022,-4.6007,-4.5026,-4.475,-4.4925,-4.4716,-4.4615,-4.4615,-4.4615,-4.4615,0.0,0.0,0.0,0.0,0.0,0.0,0.0,0.0,-3.8608,-3.7987,-3.6934,-3.6446,-3.6134,-3.5651,-3.5519,-3.5519,-3.5519,-3.5519,-3.5609,-3.6058,-3.6148,-3.6686,-3.8841,-3.9349,-3.9709,-4.0995,-4.1324,-4.1602,-4.2291,-4.309,-4.4016,-4.4921,-4.687,-4.8147,-4.7778,-4.7877,-4.7404,-4.5981,-4.4727,-4.3351,-4.1789,-4.1747,-4.1745,-4.1594,-4.2237,-4.2658,-4.2658,-4.2507,-4.2775,-4.3527,-4.2206,-4.1647,-4.2038,-4.1016,-3.9518,-3.754,-3.8444,-3.7981,-3.643,-3.6807,-3.6757,-3.6405,-3.6405,-3.6405,-3.6405,-3.6405,-3.6405,-3.643,-3.6388,-3.6374,-3.6676,-3.8914,-3.9671,-3.9597,0.0,0.0,0.0,0.0,0.0,0.0,0.0,0.0,0.0,0.0,0.0,0.0,0.0,0.0,0.0,0.0,0.0,0.0,-4.2713,-4.2674,-4.2495,-4.2122,-4.2085,-4.2893,-4.4513,-4.6007,-4.8206,-5.1151,-5.1151,-5.0439,-4.8951,-4.7462,-4.6786,-4.6718,-4.5258,-4.4993,-4.5635,-4.4891,-4.4615,-4.4615,-4.4615,-4.4615,-4.4615,0.0,0.0,0.0,0.0,0.0,0.0,0.0,-3.7873,-3.66,-3.6569,-3.6071,-3.5519,-3.5519,-3.5519,-3.5519,-3.5519,-3.5519,-3.5519,-3.5519,-3.6477,-3.8123,-4.0786,-4.1422,-4.2132,-4.4766,-4.321,-4.1662,-4.2321,-4.244,-4.2436,-4.242,-4.574,-4.7403,-4.4821,-4.4961,-4.4802,-4.3512,-4.2131,-4.1075,-4.0576,-4.0501,-4.0822,-4.1544,-4.1063,-4.0795,-4.0769,-4.1385,-4.1744,-4.1681,-4.1073,-4.0741,-4.0786,-4.0189,-3.872,-3.6405,-3.7952,-3.786,-3.6405,-3.6405,-3.6405,-3.6405,-3.6405,-3.6405,-3.6405,-3.6405,-3.6405,-3.6383,-3.6374,-3.6431,-3.6677,-3.8894,-3.9702,-3.9702,0.0,0.0,0.0,0.0,0.0,0.0,0.0,0.0,0.0,0.0,0.0,0.0,0.0,0.0,0.0,0.0,0.0,0.0,-4.2693,-4.1916,-4.1356,-4.1267,-4.1395,-4.1716,-4.2185,-4.4209,-4.6684,-4.9661,-4.9661,-4.8646,-4.6684,-4.6752,-4.6244,-4.5258,-4.5331,-4.5196,-4.4891,-4.4716,-4.4615,-4.4615,-4.4615,-4.4615,-4.4615,0.0,0.0,0.0,0.0,0.0,0.0,0.0,0.0,0.0,-3.6006,-3.5683,-3.5519,-3.5519,-3.5519,-3.5519,-3.5519,-3.5519,-3.5609,-3.6088,-3.7165,-3.8661,-4.0913,-4.1422,-4.2132,-4.4766,-4.4317,-4.3629,-4.4317,-4.4436,-4.4445,-4.443,-4.5798,-4.6285,-4.4614,-4.4505,-4.3941,-4.2133,-4.1243,-4.0701,-4.0526,-4.0174,-3.9852,-3.9726,-3.9522,-3.9292,-3.8834,-3.8633,-3.8914,-3.968,-3.8411,-3.8096,-3.8889,-3.7939,-3.7083,-3.6405,-3.6854,-3.6854,-3.6405,-3.6405,-3.6405,-3.6405,-3.6405,-3.6405,-3.6405,-3.6405,-3.6405,-3.643,-3.6411,-3.7333,-3.8662,-3.826,-3.8843,-3.965,0.0,0.0,0.0,0.0,0.0,0.0,0.0,0.0,0.0,0.0,-4.3515,-4.3515,0.0,0.0,0.0,0.0,0.0,0.0,-4.2,-4.1296,-4.0803,-4.0601,-4.0721,-4.1035,-4.161,-4.3876,-4.5602,-4.6786,-4.7699,-4.7293,-4.5737,-4.6447,-4.6312,-4.5495,-4.594,-4.5872,-4.5432,-4.4778,-4.4567,-4.4587,-4.4207,-4.4093,-4.4093,0.0,0.0,0.0,0.0,0.0,0.0,0.0,0.0,0.0,-3.5651,-3.5519,-3.5519,-3.5519,-3.5519,-3.5519,-3.5519,-3.5519,-3.5729,-3.6626,-3.8033,-3.9709,-4.1713,-4.2761,-4.3868,-4.5723,-4.5155,-4.4616,-4.5514,-4.5035,-4.4512,-4.4529,-4.5092,-4.4905,-4.3108,-4.3069,-4.2602,-4.089,-4.04,-4.0099,-3.9898,-3.9572,-3.912,-3.8567,-3.8316,-3.804,-3.7688,-3.696,-3.7049,-3.8247,-3.6606,-3.6427,-3.7907,-3.6585,-3.6132,-3.6405,-3.6405,-3.6405,-3.6405,-3.6405,-3.6405,-3.6405,-3.6405,-3.6405,-3.6405,-3.6405,-3.6405,-3.643,-3.6413,-3.7232,-3.8333,-3.7711,-3.8066,-3.8842,0.0,0.0,0.0,0.0,0.0,0.0,0.0,0.0,0.0,0.0,-4.3463,-4.3445,0.0,0.0,0.0,0.0,0.0,0.0,0.0,-4.0874,-4.0625,-4.0138,-4.018,-4.0857,-4.2252,-4.4248,-4.4688,-4.3375,-4.5635,-4.6278,-4.55,-4.638,-4.6752,-4.6684,-4.6693,-4.6629,-4.6469,-4.4851,-4.4248,-4.4298,-4.3502,-4.3169,-4.3169,-4.3169,0.0,0.0,0.0,0.0,0.0,0.0,0.0,0.0,-3.5519,-3.5519,-3.5519,-3.5519,-3.5519,-3.5519,-3.5519,-3.5549,-3.5908,-3.7165,-3.908,-4.1175,-4.305,-4.4874,-4.6381,-4.686,-4.5603,-4.4766,-4.595,-4.4695,-4.3504,-4.3545,-4.3977,-4.35,-4.1026,-4.1116,-4.0963,-3.9675,-3.9546,-3.9346,-3.8894,-3.8844,-3.8542,-3.7965,-3.7412,-3.7086,-3.7036,-3.6031,-3.5958,-3.7077,-3.5609,-3.5564,-3.7263,-3.5907,-3.5587,-3.6279,-3.6254,-3.6207,-3.6182,-3.6355,-3.6405,-3.6405,-3.6405,-3.6405,-3.6405,-3.6405,-3.6405,-3.6383,-3.6397,-3.645,-3.6574,-3.7194,-3.7443,-3.7667,0.0,0.0,0.0,0.0,0.0,0.0,0.0,0.0,0.0,0.0,0.0,0.0,0.0,0.0,0.0,0.0,0.0,0.0,0.0,-4.0504,-4.0229,-4.0113,-4.0629,-4.1373,-4.2286,-4.2219,-4.2591,-4.3375,-4.5094,-4.5229,-4.3944,-4.5872,-4.6481,-4.5945,-4.5821,-4.5445,-4.4821,-4.3196,-4.2524,-4.2552,-4.2363,-4.23,-4.23,-4.23,-4.1723,0.0,0.0,0.0,0.0,0.0,0.0,0.0,-3.5519,-3.5519,-3.5519,-3.5519,-3.5519,-3.5519,-3.5519,-3.5878,-3.6596,-3.7853,-4.0457,-4.305,-4.4526,-4.5214,-4.5274,-4.4336,-4.4676,-4.5155,-4.5454,-4.5155,-4.4863,-4.4882,-4.4237,-4.3234,-4.1672,-4.0777,-3.9786,-3.8516,-3.8366,-3.8316,-3.8191,-3.8191,-3.7965,-3.7412,-3.6908,-3.6358,-3.5884,-3.5207,-3.5133,-3.5711,-3.5384,-3.5077,-3.4906,-3.4871,-3.5047,-3.5552,-3.5219,-3.4936,-3.4724,-3.5859,-3.6405,-3.6405,-3.6405,-3.6405,-3.6405,-3.6405,-3.6405,-3.6405,-3.6386,-3.6759,-3.7209,-3.681,-3.7163,-3.7865,0.0,0.0,0.0,0.0,0.0,0.0,0.0,0.0,0.0,0.0,0.0,0.0,0.0,0.0,0.0,0.0,0.0,0.0,0.0,0.0,-4.0282,-4.0595,-4.1339,-4.1745,-4.1779,-4.2083,-4.2065,-4.1744,-4.3275,-4.381,-4.338,-4.452,-4.4799,-4.4471,-4.4721,-4.4463,-4.3684,-4.2075,-4.1468,-4.1501,-4.1085,-4.0702,-4.045,-4.0797,-4.0175,-3.8967,-3.7994,0.0,0.0,0.0,0.0,0.0,0.0,0.0,-3.5519,-3.5519,-3.5519,-3.5519,-3.5519,-3.5759,-3.6567,-3.8811,-4.1115,-4.321,-4.4526,-4.4586,-4.4077,-4.306,-4.4167,-4.5304,-4.5304,-4.5035,-4.4825,-4.4825,-4.3356,-4.1952,-4.1284,-3.9947,-3.8748,-3.8088,-3.8015,-3.7889,-3.7638,-3.7362,-3.6985,-3.6433,-3.5881,-3.5454,-3.5132,-3.472,-3.4558,-3.4793,-3.4445,-3.4073,-3.3672,-3.3881,-3.424,-3.4751,-3.4585,-3.4445,-3.447,-3.5819,-3.642,-3.6405,-3.6405,-3.6405,-3.6405,-3.6405,-3.6405,-3.6405,-3.6405,-3.6606,-3.6905,-3.6531,-3.6782,-3.7211,0.0,0.0,0.0,0.0,0.0,0.0,0.0,0.0,0.0,0.0,0.0,0.0,0.0,0.0,0.0,0.0,0.0,0.0,0.0,0.0,0.0,-4.117,-4.1779,-4.188,-4.1407,-4.2455,-4.2076,-4.0137,-4.1238,-4.2136,-4.2863,-4.3041,-4.3104,-4.3103,-4.3579,-4.3352,-4.2584,-4.1024,-4.0402,-4.0325,-3.9581,-3.8974,-3.8542,-3.9098,-3.8507,-3.7315,-3.6716,-3.6477,-3.6417,-3.5848,0.0,0.0,0.0,0.0,-3.5519,-3.5519,-3.5519,-3.5519,-3.5519,-3.5669,-3.6537,-3.9499,-4.1145,-4.2381,-4.3539,-4.3389,-4.2851,-4.2351,-4.3609,-4.4766,-4.4646,-4.4167,-4.3728,-4.3537,-4.1681,-4.014,-4.0035,-3.8564,-3.7588,-3.7588,-3.7663,-3.7513,-3.696,-3.6483,-3.5981,-3.5408,-3.4856,-3.46,-3.46,-3.4212,-3.4004,-3.4004,-3.3431,-3.3089,-3.3077,-3.3102,-3.3394,-3.4005,-3.4005,-3.4195,-3.46,-3.5552,-3.6084,-3.6254,-3.6254,-3.6329,-3.6405,-3.6405,-3.6405,-3.6405,-3.6405,-3.6405,-3.6405,-3.6405,-3.6405,-3.648,0.0,0.0,0.0,0.0,0.0,0.0,0.0,0.0,0.0,0.0,-4.134,-4.1001,0.0,0.0,0.0,0.0,0.0,0.0,0.0,0.0,0.0,-4.117,-4.1305,-4.161,-4.2117,-4.1711,-4.1332,-4.104,-4.0418,-4.042,-4.1095,-4.2456,-4.3104,-4.3071,-4.2396,-4.1744,-4.1024,-3.9417,-3.84,-3.7899,-3.7763,-3.7635,-3.7575,-3.7665,-3.7567,-3.7315,-3.6716,-3.6477,-3.6477,-3.6387,-3.5968,0.0,0.0,0.0,-3.5519,-3.5519,-3.5519,-3.5519,-3.5519,-3.6327,-3.7524,-3.914,-4.0098,-4.0846,-4.1594,-4.1713,-4.1624,-4.1572,-4.2201,-4.262,-4.2013,-4.1833,-4.1475,-4.0556,-3.925,-3.8084,-3.7187,-3.6347,-3.5834,-3.5834,-3.6282,-3.6358,-3.5759,-3.5658,-3.5382,-3.4831,-3.4324,-3.4092,-3.4256,-3.3633,-3.3237,-3.3237,-3.3162,-3.3093,-3.3101,-3.3101,-3.3151,-3.3226,-3.3226,-3.352,-3.4022,-3.4167,-3.4745,-3.5608,-3.5608,-3.5931,-3.6405,-3.6405,-3.6405,-3.6405,-3.6405,-3.6405,-3.6405,-3.6405,-3.6405,-3.6405,0.0,0.0,0.0,0.0,0.0,0.0,0.0,0.0,0.0,0.0,0.0,-4.0466,0.0,0.0,0.0,0.0,0.0,0.0,0.0,0.0,0.0,-4.117,-4.0798,-4.0933,-4.1677,-4.0507,-3.9875,-3.9859,-3.9373,-3.9391,-4.0021,-4.1054,-4.1573,-4.1573,-4.1179,-4.0664,-3.9899,-3.8482,-3.7674,-3.7375,-3.7015,-3.6656,-3.6387,-3.6746,-3.6656,-3.6297,-3.6028,-3.5938,-3.5938,-3.5938,-3.5759,-3.5549,-3.5848,0.0,0.0,0.0,-3.5519,-3.5519,-3.5519,-3.5908,-3.6656,-3.7973,-3.8512,-3.899,-4.0038,-4.0576,-4.0726,-4.0367,-4.0816,-4.1294,-4.1422,-4.1422,-4.105,-3.9952,-3.9287,-3.8352,-3.6711,-3.6191,-3.5731,-3.5123,-3.5303,-3.5353,-3.5056,-3.4756,-3.4399,-3.3847,-3.3269,-3.2968,-3.2968,-3.3038,-3.2819,-3.2162,-3.2757,-3.2918,-3.2499,-3.2893,-3.3111,-3.3111,-3.3111,-3.3194,-3.3445,-3.3445,-3.4048,-3.5031,-3.5031,-3.5228,-3.5454,-3.578,-3.5906,-3.5931,-3.6279,-3.6405,-3.6405,-3.6405,-3.6405,-3.6405,0.0,0.0,0.0,0.0,0.0,0.0,0.0,0.0,0.0,0.0,0.0,0.0,0.0,0.0,0.0,0.0,0.0,0.0,0.0,0.0,0.0,-4.0899,-4.0392,-4.0248,-4.0606,-3.9475,-3.8702,-3.8233,-3.8309,-3.8611,-3.917,-3.9828,-4.0247,-4.0397,-4.0576,-4.0098,-3.908,-3.8093,-3.7464,-3.7135,-3.6477,-3.5938,-3.5549,-3.6058,-3.5938,-3.5519,-3.5519,-3.5519,-3.5519,-3.5699,-3.5639,-3.5519,-3.5699,-3.5639,0.0,0.0,0.0,-3.5459,-3.528,-3.525,-3.5459,-3.6417,-3.6806,-3.7225,-3.8422,-3.917,-3.9499,-3.902,-3.929,-3.9798,-4.0277,-4.0666,-4.0469,-3.9108,-3.8802,-3.8,-3.5943,-3.567,-3.5381,-3.4589,-3.465,-3.4675,-3.4525,-3.4022,-3.347,-3.2893,-3.2407,-3.2131,-3.2014,-3.271,-3.2642,-3.1588,-3.2347,-3.2499,-3.1855,-3.2541,-3.2943,-3.3111,-3.3111,-3.3111,-3.3111,-3.3111,-3.352,-3.4299,-3.4449,-3.46,-3.4705,-3.5132,-3.5382,-3.5533,-3.6006,-3.6279,-3.6405,-3.6405,-3.6405,-3.6405,0.0,0.0,0.0,0.0,0.0,0.0,0.0,0.0,0.0,0.0,0.0,0.0,-4.0113,-4.0113,-4.0113,-4.0113,-4.0113,0.0,0.0,0.0,0.0,-4.018,-4.0113,0.0,-3.9055,-3.8941,-3.8189,-3.6723,-3.7343,-3.791,-3.8452,-3.914,-3.9798,-4.0427,-4.1055,-4.0247,-3.8452,-3.8362,-3.7644,-3.6477,-3.5818,-3.5519,-3.5519,-3.5549,-3.5519,-3.5519,-3.5519,-3.5519,-3.5609,-3.6237,-3.6028,-3.5609,-3.6237,-3.5998,-3.5519,0.0,0.0,0.0,-3.4743,-3.4563,-3.4563,-3.4653,-3.513,-3.5789,-3.6477,-3.7105,-3.7554,-3.7524,-3.7524,-3.7584,-3.7614,-3.8661,-3.8848,-3.6727,-3.6373,-3.5642,-3.3547,-3.3683,-3.3991,-3.3947,-3.4399,-3.4525,-3.3997,-3.3445,-3.2867,-3.229,-3.2095,-3.2019,-3.1989,-3.271,-3.2735,-3.1989,-3.2039,-3.1855,-3.1436,-3.1989,-3.2541,-3.3111,-3.3111,-3.3111,-3.3111,-3.3111,-3.3119,-3.3194,-3.3721,-3.4248,-3.468,-3.4705,-3.5031,-3.5508,-3.5533,-3.5906,-3.6405,-3.6405,-3.6405,-3.6405,0.0,0.0,0.0,0.0,0.0,0.0,0.0,0.0,0.0,0.0,0.0,0.0,0.0,-4.0113,-4.0113,-4.0113,-4.0113,0.0,0.0,0.0,0.0,-3.9342,-3.9342,-3.8962,-3.8189,-3.7703,-3.7142,-3.66,-3.6806,-3.7168,-3.7793,-3.8901,-3.9559,-3.9798,-4.0457,-3.9888,-3.8362,-3.7943,-3.7255,-3.6417,-3.5759,-3.5519,-3.5519,-3.5519,-3.5519,-3.5519,-3.5519,-3.5519,-3.5549,-3.5789,-3.5699,-3.5549,-3.5789,-3.5699,-3.5519,-3.5519,-3.5519,-3.534,-3.4683,-3.4204,-3.3844,-3.3844,-3.3724,-3.3754,-3.4412,-3.54,-3.6178,-3.6178,-3.6836,-3.7404,-3.7404,-3.7793,-3.7754,-3.6759,-3.659,-3.5864,-3.3852,-3.4043,-3.3894,-3.2449,-3.2767,-3.2893,-3.234,-3.2114,-3.1829,-3.1392,-3.1297,-3.1075,-3.0636,-3.1276,-3.1342,-3.0595,-3.1248,-3.1562,-3.1386,-3.1938,-3.2315,-3.2516,-3.2893,-3.3111,-3.3111,-3.3111,-3.3111,-3.3136,-3.3294,-3.3495,-3.3696,-3.4048,-3.4299,-3.455,-3.5232,-3.5608,-3.5881,-3.6279,-3.6405,-3.6405,0.0,0.0,0.0,0.0,0.0,0.0,0.0,0.0,-4.0113,-4.0113,0.0,0.0,0.0,0.0,-4.0113,-4.0113,-4.0113,-4.0113,-4.0113,-3.985,-3.9447,-3.8908,-3.8663,-3.8189,-3.7411,-3.6873,-3.6477,-3.6228,-3.6202,-3.6477,-3.7135,-3.8003,-3.8542,-3.8751,-3.92,-3.902,-3.8362,-3.7913,-3.7255,-3.6417,-3.5759,-3.5519,-3.5519,-3.5519,-3.5519,-3.5519,-3.5519,-3.5519,-3.5519,-3.5519,-3.5519,-3.5519,-3.5519,-3.5519,-3.5519,-3.5519,-3.5519,-3.534,-3.4683,-3.3993,-3.3484,-3.3484,-3.3006,-3.2677,-3.3335,-3.4203,-3.4891,-3.513,-3.5818,-3.6507,-3.6716,-3.6776,-3.6674,-3.6512,-3.6225,-3.5414,-3.3701,-3.3549,-3.306,-3.1543,-3.1712,-3.1788,-3.1411,-3.1235,-3.105,-3.0918,-3.0651,-3.0303,-2.9831,-3.0503,-3.0633,-3.0089,-3.0588,-3.0934,-3.1135,-3.1486,-3.1863,-3.2215,-3.2591,-3.2893,-3.3111,-3.3111,-3.3111,-3.3111,-3.3111,-3.3111,-3.3136,-3.347,-3.3746,-3.3972,-3.4655,-3.5182,-3.5533,-3.5956,-3.6207,-3.6405,0.0,0.0,0.0,0.0,0.0,0.0,0.0,0.0,-4.0113,-4.0113,0.0,0.0,0.0,0.0,0.0,-4.0054,-4.0028,-4.0062,-4.0054,-3.9315,-3.8854,-3.8827,0.0,0.0,-3.66,-3.6569,-3.6228,-3.5519,-3.5519,-3.5818,-3.6447,-3.6477,-3.6806,-3.7375,-3.7404,-3.7764,-3.8332,-3.8332,-3.7614,-3.6387,-3.5759,-3.5519,-3.5519,-3.5519,-3.5519,-3.5519,-3.5519,-3.5519,-3.5519,-3.5519,-3.5519,-3.5519,-3.5519,-3.5519,-3.5519,-3.5519,-3.5519,-3.534,0.0,0.0,0.0,-3.3484,-3.2976,-3.2677,-3.3305,-3.3455,-3.3634,-3.4324,-3.4474,-3.4683,-3.534,-3.5459,-3.5581,-3.5854,-3.502,-3.4011,-3.2999,-3.1983,-3.1386,-3.1361,-3.1361,-3.1361,-3.1336,-3.0884,-3.0673,-3.0867,-3.0209,-2.9813,-2.9782,-3.0478,-3.0802,-3.0583,-3.008,-3.0055,-3.0583,-3.0608,-3.1135,-3.2164,-3.219,-3.2516,-3.3043,-3.3111,-3.3111,-3.3111,-3.3111,-3.3111,-3.3111,-3.3111,-3.3395,-3.3872,-3.3897,-3.4575,-3.5483,-3.5508,-3.5906,-3.6405,0.0,0.0,0.0,0.0,0.0,-4.0113,-4.0113,-4.0113,-4.0113,0.0,0.0,0.0,-4.0113,-3.9584,-3.9236,-3.9236,-3.8718,-3.8668,-3.9209,-3.8525,-3.7847,-3.7261,-3.7054,-3.6569,-3.5814,-3.5814,-3.5686,-3.5519,-3.5519,-3.5609,-3.5789,-3.6267,-3.6567,-3.6776,-3.7225,-3.7255,-3.7015,-3.7015,-3.6537,-3.5759,-3.5579,-3.5519,-3.5519,-3.5519,-3.5519,-3.5519,-3.5519,-3.5519,-3.5519,-3.5519,-3.5519,-3.5519,-3.5519,-3.5519,-3.5519,-3.5519,-3.5519,-3.534,-3.4683,0.0,0.0,0.0,0.0,0.0,-3.2108,-3.2437,-3.2826,-3.3036,-3.3425,-3.3963,-3.4651,-3.4803,-3.4976,-3.5515,-3.4512,-3.3606,-3.342,-3.2215,-3.111,-3.0331,-3.0583,-3.0683,-3.0281,-3.0105,-3.003,0.0,-2.9918,-2.979,-2.9813,-3.0005,-3.0094,-3.003,-2.988,-2.9854,-3.0005,-3.0407,-3.0758,-3.106,-3.1838,-3.229,-3.2466,-3.2893,-3.3111,-3.3111,-3.3111,-3.3111,-3.3111,-3.3111,-3.3212,-3.3395,-3.4173,-3.4675,-3.5006,-3.583,-3.6279,-3.6405,0.0,0.0,0.0,0.0,0.0,-4.0561,-4.0561,-4.0561,-4.045,0.0,0.0,0.0,-3.9156,-3.8985,-3.8739,-3.8474,-3.808,-3.7962,-3.8414,-3.7732,-3.7084,-3.66,-3.6321,-3.5943,-3.5519,-3.5519,-3.5519,-3.5519,-3.5519,-3.5519,-3.5519,-3.5908,-3.6088,-3.6088,-3.6447,-3.6417,-3.6088,-3.6088,-3.5848,-3.5519,-3.5519,-3.5519,-3.5519,-3.5519,-3.5519,-3.5519,-3.5519,-3.5519,-3.5519,-3.5519,-3.5519,-3.5519,-3.5519,-3.5519,-3.5519,-3.5519,-3.5519,-3.54,-3.5011,-3.4713,-3.4384,-3.3873,0.0,0.0,-3.2348,-3.2198,-3.2138,-3.2467,-3.2826,-3.3275,-3.3933,-3.4053,-3.4198,-3.4466,-3.3476,-3.277,-3.3126,-3.211,-3.0943,-2.9893,-3.008,-3.0156,-2.9829,-2.9804,-2.9804,-2.9804,-2.9804,-2.9804,-2.9804,-2.9804,-2.9804,-2.9804,-2.9804,-2.9804,-2.9804,-3.0105,-3.0507,-3.0934,-3.1562,-3.2114,-3.2591,-3.2918,-3.3111,-3.3111,-3.3111,-3.3111,-3.3111,-3.3111,-3.3219,-3.3495,-3.4123,-3.465,-3.5107,-3.578,-3.6157,-3.6405,0.0,0.0,-4.0087,-4.0054,-4.0601,-4.1047,-4.1069,-4.0975,-4.0722,0.0,-3.9391,-3.8595,-3.7764,-3.8189,-3.8316,-3.7709,-3.7589,-3.7589,-3.7677,-3.6904,-3.6477,-3.6477,-3.5846,-3.5519,-3.5519,-3.5519,-3.5519,-3.5519,-3.5519,-3.5519,-3.5519,-3.5519,-3.5519,-3.5519,-3.5519,-3.5519,-3.5519,-3.5519,-3.5519,-3.5519,-3.5519,-3.5519,-3.5519,-3.5519,-3.5519,-3.5519,-3.5519,-3.5519,-3.5519,-3.5519,-3.5519,-3.5519,-3.5519,-3.5519,-3.5519,-3.5519,-3.5519,-3.5519,-3.5519,-3.507,-3.4743,-3.525,-3.4053,0.0,-3.3275,-3.2467,-3.175,-3.2258,-3.2378,-3.2587,-3.3275,-3.3395,-3.3357,-3.3148,-3.2466,-3.2041,-3.2404,-3.1646,-3.0733,-2.9895,-2.9804,-2.9804,-2.9804,-2.9804,-2.9804,-2.9804,-2.9804,-2.9804,-2.9804,-2.9804,-2.9804,-2.9804,-2.9804,-2.9804,-2.9804,-2.9804,-3.0281,-3.121,-3.1336,-3.1913,-3.2935,-3.3061,-3.3111,-3.3111,-3.3111,-3.3111,-3.3111,-3.3111,-3.337,-3.3822,-3.3947,-3.46,-3.5433,-3.5533,-3.5956,-3.6405,0.0,-4.0113,-4.0078,-3.9945,-4.0034,-4.0137,-4.0092,-3.9615,-3.9424,-3.9826,-3.9248,-3.8312,-3.6966,-3.6938,-3.6969,-3.6844,-3.629,-3.6196,-3.6783,-3.6102,-3.5686,-3.5686,-3.5587,-3.5519,-3.5519,-3.5519,-3.5519,-3.5519,-3.5519,-3.5519,-3.5519,-3.5519,-3.5519,-3.5519,-3.5519,-3.5519,-3.5519,-3.5519,-3.5519,-3.5519,-3.5519,-3.5519,-3.5519,-3.5519,-3.5519,-3.5519,-3.5519,-3.5519,-3.5519,-3.5519,-3.5519,-3.5519,-3.5519,-3.5519,-3.5519,-3.5519,-3.5519,-3.5519,-3.5519,-3.54,-3.522,-3.4771,-3.4414,0.0,-3.2916,-3.2497,-3.2168,-3.178,-3.169,-3.1899,-3.2557,-3.2706,-3.2856,-3.3358,-3.3706,-3.3359,-3.1711,-3.0658,-3.0011,-2.9818,-2.9804,-2.9804,-2.9804,-2.9804,-2.9804,-2.9804,-2.9804,-2.9804,-2.9804,-2.9804,-2.9804,-2.9804,-2.9804,-2.9804,-2.9804,-2.9804,-2.9905,-3.0105,-3.0984,-3.1512,-3.1738,-3.2667,-3.3111,-3.3111,-3.3111,-3.3111,-3.3111,-3.3111,-3.3144,-3.3319,-3.4223,-3.47,-3.5002,-3.5881,-3.6329,-3.6405,-3.9584,-3.9506,-3.9468,-3.9357,-3.9401,-3.9512,-3.9804,-3.9264,-3.8824,-3.8746,-3.8122,-3.7247,-3.6162,-3.6344,-3.6435,-3.61,-3.5686,-3.5651,-3.6038,-3.5686,-3.5519,-3.5519,-3.5519,-3.5519,-3.5519,-3.5519,-3.5519,-3.5519,-3.5519,-3.5519,-3.5519,-3.5519,-3.5519,-3.5519,-3.5519,-3.5519,-3.5519,-3.5519,-3.5519,-3.5519,-3.5519,-3.5519,-3.5519,-3.5519,-3.5519,-3.5519,-3.5519,-3.5519,-3.5519,-3.5519,-3.5519,-3.5519,-3.5519,-3.5519,-3.5519,-3.5519,-3.5519,-3.5519,-3.5519,-3.5519,-3.5429,-3.507,-3.4773,0.0,0.0,-3.3245,-3.2826,-3.2138,-3.1989,-3.1989,-3.1989,-3.1989,-3.2199,-3.272,-3.2655,-3.2281,-3.1546,-3.132,-3.0846,-2.9895,-2.9804,-2.9804,-2.9804,-2.9804,-2.9804,-2.9804,-2.9804,-2.9804,-2.9804,-2.9804,-2.9804,-2.9804,-2.9804,-2.9804,-2.9804,-2.9804,-2.993,-3.0206,-3.1009,-3.1537,-3.1838,-3.2692,-3.3111,-3.3111,-3.3111,-3.3111,-3.3111,-3.3111,-3.3111,-3.3169,-3.3997,-3.4474,-3.4781,-3.5655,-3.5956,-3.5981,-3.8799,-3.869,-3.8669,-3.8569,-3.8607,-3.8829,-3.9344,-3.8869,-3.8181,-3.7373,-3.691,-3.6357,-3.5579,-3.6088,-3.6327,-3.5908,-3.5639,-3.5609,-3.5848,-3.5639,-3.5519,-3.5519,-3.5519,-3.5519,-3.5519,-3.5519,-3.5519,-3.5519,-3.5519,-3.5519,-3.5519,-3.5519,-3.5519,-3.5519,-3.5519,-3.5519,-3.5489,-3.537,-3.537,-3.5489,-3.537,-3.54,-3.5519,-3.5519,-3.5519,-3.5519,-3.5519,-3.5519,-3.5519,-3.5519,-3.5359,-3.5231,-3.5424,-3.5359,-3.5231,-3.5424,-3.5359,-3.5198,-3.5198,-3.5198,-3.5198,-3.5198,-3.4942,-3.4683,0.0,0.0,0.0,-3.2826,-3.2706,-3.2527,-3.1989,-3.1899,0.0,-3.2214,0.0,0.0,0.0,-3.2128,0.0,-3.0011,-2.9804,-2.9804,-2.9804,-2.9804,-2.9804,-2.9804,-2.9804,-2.9804,-2.9804,-2.9804,-2.9804,-2.9804,-2.9804,-2.9804,-2.9804,-2.9804,-3.008,-3.0633,-3.1135,-3.1687,-3.224,-3.2817,-3.3111,-3.3111,-3.3111,-3.3111,-3.3111,-3.3111,-3.3111,-3.3144,-3.3696,-3.4173,-3.465,-3.5257,-3.5508,-3.5583,-3.7966,-3.7937,-3.7868,-3.7748,-3.7748,-3.7743,-3.7691,-3.7168,-3.6501,-3.5832,-3.6663,-3.6836,-3.5639,-3.6088,-3.6686,-3.7135,-3.6148,-3.5998,-3.7135,-3.6148,-3.5519,-3.5519,-3.5519,-3.5519,-3.5519,-3.5519,-3.5519,-3.5519,-3.5519,-3.5519,-3.5519,-3.5519,-3.5519,-3.5519,-3.5519,-3.5519,-3.5459,-3.4861,-3.4951,-3.5459,-3.4831,-3.4951,-3.5519,-3.5519,-3.5519,-3.5519,-3.5519,-3.5519,-3.5519,-3.5519,-3.4905,-3.4312,-3.5198,-3.4872,-3.4346,-3.5231,-3.4872,-3.4177,-3.4177,-3.4177,-3.4177,-3.4177,-3.478,-3.522,-3.4653,0.0,-3.4204,-3.3514,0.0,-3.3365,-3.3275,0.0,0.0,0.0,-3.3293,0.0,-3.1011,-3.1827,-3.1878,-3.0023,-2.9804,-2.9804,-2.9804,-2.9804,-2.9804,-2.9804,-2.9804,-2.9804,-2.9804,-2.9804,-2.9804,-2.9804,-2.9804,-2.9804,-2.9804,-2.9804,-3.008,-3.0633,-3.1135,-3.1687,-3.224,-3.2817,-3.3111,-3.3111,-3.3111,-3.3111,-3.3111,-3.3111,-3.3111,-3.3144,-3.3696,-3.3947,-3.4123,-3.5107,-3.5508,-3.5583,-3.6994,-3.7084,-3.7093,-3.6985,-3.6643,-3.6483,-3.6843,-3.6327,-3.5818,-3.5549,-3.5968,-3.6237,-3.6088,-3.6327,-3.6596,-3.6866,-3.6387,-3.6148,-3.6297,-3.5818,-3.5519,-3.5519,-3.5519,-3.5519,-3.5519,-3.5519,-3.5519,-3.5519,-3.5519,-3.5519,-3.5519,-3.5519,-3.5519,-3.5519,-3.5519,-3.5519,-3.5457,-3.4578,-3.4175,-3.4182,-3.4204,-3.397,-3.3686,-3.4582,-3.4921,-3.4921,-3.4921,-3.516,-3.5519,-3.5519,-3.5198,-3.4938,-3.5359,-3.5198,-3.4938,-3.5359,-3.4806,-3.3979,-3.3979,-3.3979,-3.3876,-3.3325,-3.3939,-3.4389,-3.3595,-3.3806,-3.4025,-3.341,0.0,0.0,0.0,0.0,0.0,0.0,-3.2758,-3.2409,0.0,0.0,-3.0663,-2.9882,0.0,0.0,-2.9804,-2.9804,-2.9804,-2.9804,-2.9804,-2.9804,-2.9804,-2.9804,-2.9804,-2.9804,-2.9804,-2.9804,-2.9804,-3.0105,-3.0382,-3.0633,-3.1461,-3.1989,-3.224,-3.2817,-3.3111,-3.3111,-3.3111,-3.3111,-3.3111,-3.3111,-3.3111,-3.3093,-3.3345,-3.342,-3.3545,-3.463,-3.5031,-3.5203,-3.6196,-3.6321,-3.6286,-3.6217,-3.5818,-3.5669,-3.6148,-3.5818,-3.5519,-3.5519,-3.5669,-3.5968,-3.6447,-3.6806,-3.7075,-3.7285,-3.6956,-3.6626,-3.6297,-3.5789,-3.5519,-3.5519,-3.5519,-3.5519,-3.5519,-3.5519,-3.5519,-3.5519,-3.5519,-3.5519,-3.5519,-3.5198,-3.51,-3.51,-3.4806,-3.4706,-3.4643,-3.3738,-3.3209,-3.3049,-3.31,-3.2502,-3.1775,-3.348,-3.4083,-3.3973,-3.3973,-3.4296,-3.4706,-3.4706,-3.4539,-3.4375,-3.4639,-3.4539,-3.4375,-3.4639,-3.4007,-3.3227,-3.3227,-3.3227,-3.3052,-3.2379,-3.2912,-3.3463,-3.2735,-3.3276,-3.3768,-3.3339,-3.408,0.0,0.0,0.0,0.0,0.0,0.0,-3.2434,0.0,-3.1548,0.0,-2.9804,0.0,0.0,0.0,-2.9804,-2.9804,-2.9804,-2.9804,-2.9804,-2.9804,-2.9804,-2.9804,-2.9804,-2.9804,-2.9804,-2.9804,-3.0331,-3.0683,-3.0834,-3.1763,-3.229,-3.2466,-3.2893,-3.3111,-3.3111,-3.3111,-3.3111,-3.3111,-3.3111,-3.3111,-3.3111,-3.3111,-3.3111,-3.3194,-3.4148,-3.46,-3.4851,-3.5522,-3.5552,-3.5522,-3.5519,-3.5519,-3.5519,-3.5519,-3.5519,-3.5519,-3.5519,-3.6058,-3.6477,-3.6477,-3.7584,-3.8601,-3.926,-3.8123,-3.7644,-3.8272,-3.6537,-3.5519,-3.5519,-3.5519,-3.5519,-3.5519,-3.5519,-3.5519,-3.5519,-3.5519,-3.5519,-3.5457,-3.4509,-3.4075,-3.4013,-3.3087,-3.27,-3.2636,-3.1985,-3.2068,-3.2518,-3.1357,-3.0594,-3.0308,-3.2335,-3.2925,-3.2672,-3.2672,-3.27,-3.27,-3.27,-3.2092,-3.1499,-3.2415,-3.2055,-3.1536,-3.2415,-3.2019,-3.1278,-3.1278,-3.1278,-3.1278,-3.1241,-3.1947,-3.2629,-3.2593,-3.3155,-3.3627,-3.3599,-3.4612,-3.5488,-3.5443,0.0,0.0,0.0,0.0,0.0,0.0,-2.9882,-2.9804,-2.9804,-2.9804,0.0,0.0,-2.9804,-2.9804,-2.9804,-2.9804,-2.9804,-2.9804,-2.9804,-2.9804,-2.9804,-2.9804,-2.9804,-2.9804,-3.0331,-3.0859,-3.1361,-3.1938,-3.2516,-3.3043,-3.3111,-3.3111,-3.3111,-3.3111,-3.3111,-3.3111,-3.3111,-3.3111,-3.3111,-3.3111,-3.3111,-3.3187,-3.3721,-3.4248,-3.4756,-3.5519,-3.5519,-3.5519,-3.5519,-3.5519,-3.5519,-3.5519,-3.5519,-3.5968,-3.7255,-3.7225,-3.7764,-3.9529,-3.9709,-3.9798,-4.0038,-3.926,-3.8452,-3.7793,-3.6746,-3.5968,-3.5519,-3.5519,-3.5519,-3.5519,-3.5519,-3.5519,-3.5519,-3.4839,-3.4509,-3.4476,-3.3533,-3.3052,-3.3052,-3.2735,-3.2593,-3.2558,-3.1721,-3.1039,-3.0457,-2.9241,-2.9375,-3.0258,-3.0377,-3.0815,-3.1405,-3.1405,-3.193,-3.2593,-3.2593,-3.2379,-3.2164,-3.2486,-3.2379,-3.2164,-3.2486,-3.1911,-3.1204,-3.1204,-3.1204,-3.1044,-3.0419,-3.1161,-3.178,-3.0947,-3.0924,-3.1086,-3.1086,-3.2415,-3.3974,-3.526,0.0,0.0,0.0,0.0,0.0,0.0,-2.9804,-2.9804,-2.9804,-2.9804,-2.9804,0.0,-2.9804,-2.9804,-2.9804,-2.9804,-2.9804,-2.9804,-2.9804,-2.9804,-2.9804,-2.9804,-2.9955,-3.0331,-3.0859,-3.1411,-3.1938,-3.2516,-3.2893,-3.3111,-3.3111,-3.3111,-3.3111,-3.3111,-3.3111,-3.3111,-3.3111,-3.3111,-3.3162,-3.347,-3.3621,-3.3646,-3.3822,-3.4248,-3.4851,-3.5519,-3.5519,-3.5519,-3.5519,-3.5519,-3.5519,-3.5519,-3.5878,-3.6626,-3.7883,-3.8093,-3.8871,-4.0816,-4.0876,-4.0756,-4.0756,-4.0157,-3.92,-3.7853,-3.7165,-3.6417,-3.5549,-3.5729,-3.5759,-3.5519,-3.5519,-3.5326,-3.4968,-3.4312,-3.3842,-3.3498,-3.2522,-3.2092,-3.2092,-3.1514,-3.1288,-3.1216,-3.0618,-2.9839,-2.8905,-2.7937,-2.8127,-2.8933,-2.8326,-2.8926,-3.0129,-3.0129,-3.061,-3.1315,-3.1556,-3.1573,-3.1573,-3.1573,-3.1573,-3.1573,-3.1573,-3.1193,-3.0696,-3.0696,-3.0696,-3.057,-2.9934,-3.042,-3.0825,-2.9997,-2.9821,-2.982,-2.982,-3.074,-3.1983,0.0,0.0,0.0,0.0,0.0,0.0,0.0,-2.9804,-2.9804,-2.9804,-2.9804,-2.9804,-2.9804,-2.9804,-2.9804,-2.9804,-2.9804,-2.9804,-2.9804,-2.9804,-2.9804,-2.9804,-2.998,-3.0256,-3.0608,-3.1311,-3.1863,-3.2215,-3.2792,-3.3111,-3.3111,-3.3111,-3.3111,-3.3111,-3.3111,-3.3111,-3.3111,-3.3111,-3.3111,-3.3144,-3.3696,-3.3897,-3.3897,-3.3897,-3.4248,-3.4876,-3.5519,-3.5519,-3.5519,-3.5519,-3.5519,-3.5519,-3.5519,-3.6596,-3.7434,-3.7554,-3.8691,-3.9798,-4.0516,-4.1115,-4.1474,-4.1474,-4.0846,-3.9888,-3.8571,-3.7853,-3.6896,-3.5609,-3.6148,-3.6178,-3.5519,-3.5424,-3.4968,-3.3979,-3.391,-3.3394,-3.2486,-3.1573,-3.113,-3.1003,-2.9541,-2.8888,-2.8838,-2.8838,-2.8574,-2.8021,-2.7469,-2.6977,-2.6524,-2.6499,-2.7444,-2.8813,-2.8813,-2.8838,-2.8988,-2.9578,-2.9779,-2.9804,-2.9804,-2.9804,-2.9804,-2.9804,-2.9804,-2.9804,-2.9804,-2.9804,-2.9804,-2.9804,-2.9804,-2.9804,-2.9804,-2.9804,-2.9804,-2.9804,-2.9808,-2.9818,0.0,0.0,0.0,0.0,0.0,0.0,0.0,0.0,-2.9804,-2.9804,-2.9804,-2.9804,-2.9804,-2.9804,-2.9804,-2.9804,-2.9804,-2.9804,-2.9804,-2.9804,-2.9804,-2.9804,-3.0331,-3.0633,-3.0658,-3.1687,-3.2215,-3.2265,-3.2817,-3.3111,-3.3111,-3.3111,-3.3111,-3.3111,-3.3111,-3.3111,-3.3111,-3.3111,-3.3111,-3.3187,-3.3721,-3.3947,-3.3972,-3.3972,-3.4299,-3.4926,-3.5519,-3.5519,-3.5519,-3.5519,-3.5519,-3.5519,-3.5519,-3.6596,-3.7943,-3.9439,-4.0367,-4.1504,-4.312,-4.303,-4.2821,-4.2821,-4.1773,-4.0786,-3.9948,-3.8781,-3.7554,-3.6297,-3.6387,-3.6178,-3.5519,-3.4773,-3.4245,-3.3979,-3.2593,-3.1829,-3.1536,-3.0582,-2.991,-2.9478,-2.9088,-2.8662,-2.8323,-2.8323,-2.7996,-2.7444,-2.6927,-2.6876,-2.7052,-2.665,-2.7002,-2.7695,-2.7695,-2.8222,-2.8913,-2.9063,-2.9428,-2.9804,-2.9804,-2.9804,-2.9804,-2.9804,-2.9804,-2.9804,-2.9804,-2.9804,-2.9804,-2.9804,-2.9804,-2.9804,-2.9804,-2.9804,-2.9804,-2.9804,-2.9794,-2.9782,-2.9818,-2.9794,0.0,0.0,0.0,0.0,0.0,-2.9804,-2.9804,-2.9804,-2.9804,-2.9804,-2.9804,-2.9804,-2.9804,-2.9804,-2.9804,-2.9804,-2.9804,-2.9804,-2.9804,-2.9804,-3.0331,-3.0809,-3.1185,-3.1863,-3.2441,-3.2867,-3.3061,-3.3111,-3.3111,-3.3111,-3.3111,-3.3111,-3.3111,-3.3111,-3.3111,-3.3111,-3.3111,-3.3169,-3.4148,-3.4731,-3.5082,-3.5082,-3.5182,-3.5382,-3.5519,-3.5519,-3.5519,-3.5519,-3.5968,-3.6327,-3.6327,-3.6956,-3.8033,-3.9738,-4.0786,-4.1683,-4.2521,-4.2791,-4.2791,-4.2491,-4.1534,-4.0666,-4.0008,-3.899,-3.7823,-3.6537,-3.6477,-3.6178,-3.5519,-3.4251,-3.3556,-3.3394,-3.1397,-3.0377,-3.0195,-2.9416,-2.8875,-2.8549,-2.8323,-2.8047,-2.772,-2.7494,-2.7344,-2.7243,-2.6725,-2.6675,0.0,-2.66,-2.6675,-2.6952,-2.6952,-2.7469,-2.8273,-2.8737,-2.9151,-2.9453,-2.9704,-2.9804,-2.9804,-2.9804,-2.9804,-2.9804,-2.9804,-2.9804,-2.9804,-2.9804,-2.9804,-2.9804,-2.9804,-2.9804,-2.9804,-2.9804,-2.9804,-2.9804,-2.9804,-2.9804,0.0,0.0,0.0,0.0,0.0,-2.9804,-2.9804,-2.9804,-2.9804,-2.9804,-2.9804,-2.9804,-2.9804,-2.9804,-2.9804,-2.9804,-2.9804,-2.9804,-2.9905,-3.0156,-3.0909,-3.1461,-3.1738,-3.2541,-3.2993,-3.3111,-3.3111,-3.3111,-3.3111,-3.3111,-3.3111,-3.3111,-3.3111,-3.3111,-3.3136,-3.3345,-3.3445,-3.3545,-3.465,-3.5429,-3.5906,-3.5906,-3.5708,-3.5583,-3.5519,-3.5579,-3.5609,-3.5519,-3.6567,-3.7464,-3.7644,-3.7823,-3.8302,-3.9409,-4.0696,-4.1265,-4.0606,-4.1602,-4.2051,-4.1482,-4.0786,-4.0127,-3.9433,-3.8781,-3.7823,-3.6537,-3.6477,-3.6115,-3.5207,-3.3773,-3.2755,-3.2195,-3.0246,-2.9135,-2.8787,-2.8323,-2.8072,-2.7971,-2.7494,-2.7278,-2.7178,-2.67,-2.6776,-2.7178,-2.6675,-2.6499,-2.6499,-2.6499,-2.6499,-2.6499,-2.6499,-2.6851,-2.7444,-2.8473,-2.8838,-2.8988,-2.9603,-2.9804,-2.9804,-2.9804,-2.9804,-2.9804,-2.9804,-2.9804,-2.9804,-2.9804,-2.9804,-2.9804,-2.9804,-2.9804,-2.9868,-3.0161,-3.0097,-3.0007,-2.9969,-2.9905,0.0,0.0,0.0,0.0,-2.9905,-2.9905,-2.988,-2.9804,-2.9804,0.0,-2.9804,-2.9804,-2.9804,-2.9804,-2.9804,-2.9804,0.0,0.0,-3.0055,-3.0608,-3.1587,-3.2164,-3.2315,-3.3294,-3.3596,-3.3194,-3.3119,-3.3111,-3.3111,-3.3111,-3.3111,-3.3111,-3.3111,-3.3162,-3.3219,-3.3696,-3.3972,-3.4198,-3.5132,-3.5881,-3.6405,-3.6405,-3.6056,-3.5683,-3.5519,-3.5938,-3.6148,-3.5609,-3.6567,-3.7793,-3.8901,-3.9978,-4.0576,-4.0277,-4.1422,-4.1991,-4.1294,-4.1414,-4.1542,-4.1384,-4.0786,-4.0127,-3.9433,-3.8781,-3.7823,-3.6537,-3.6477,-3.5581,-3.3623,-3.2585,-3.1413,-3.0024,-2.8908,-2.833,-2.8247,-2.8147,-2.7871,-2.7419,-2.7318,-2.7052,-2.6625,-2.6524,-2.6549,-2.6625,-2.6524,-2.6499,-2.6499,-2.6499,-2.6499,-2.6499,-2.6499,-2.6851,-2.7394,-2.8021,-2.8512,-2.8988,-2.9603,-2.9804,-2.9804,-2.9804,-2.9804,-2.9804,-2.9804,-2.9804,-2.9804,-2.9804,-2.9804,-2.9804,-2.9804,-2.9804,-3.0314,-3.2175,-3.1769,-3.1026,-3.0741,-3.0547,-3.0608,0.0,-3.111,-3.0959,-3.0532,-3.0457,-3.0306,-2.9854,-2.9804,-2.9804,-2.9804,-2.9804,-2.9804,-2.9804,-2.9804,-2.9804,0.0,0.0,-3.0055,0.0,-3.121,-3.1989,0.0,-3.3119,-3.3395,-3.3746,-3.3294,-3.3111,-3.3111,-3.3111,-3.3111,-3.3111,-3.3111,-3.3345,-3.3771,-3.3847,-3.4424,-3.5232,-3.5433,-3.5881,-3.6405,-3.6405,-3.6355,-3.6279,-3.5998,-3.6267,-3.6596,-3.6956,-3.7793,-3.8781,-3.9768,-4.1055,-4.1572,-4.0516,-4.0935,-4.0965,-3.9948,-4.0457,-4.0606,-3.9888,-3.9529,-3.908,-3.8422,-3.7764,-3.6901,-3.5776,-3.5389,-3.4341,-3.2523,-3.1268,-3.0242,-2.9486,-2.7991,-2.7394,-2.767,-2.7394,-2.7153,-2.6901,-2.6901,-2.6751,-2.6499,-2.6499,-2.6499,-2.6499,-2.6499,-2.6499,-2.6499,-2.6499,-2.6499,-2.6499,-2.6499,-2.6851,-2.7369,-2.7921,-2.8273,-2.8649,-2.9528,-2.9804,-2.9804,-2.9804,-2.9804,-2.9804,-2.9804,-2.9804,-2.9804,-2.9804,-2.9804,-2.9804,-2.9804,-2.9804,-3.0275,-3.1885,-3.1661,-3.1124,-3.1181,-3.1075,-3.111,-3.1361,-3.1386,-3.1311,-3.106,-3.1009,-3.0809,-3.0281,-3.0206,-3.0105,-2.9829,-2.9804,-2.9804,-2.9804,-2.9804,-2.9804,0.0,0.0,-3.0457,0.0,0.0,0.0,-3.3111,0.0,-3.3495,-3.347,-3.3194,-3.3111,-3.3111,-3.3111,-3.3244,-3.3495,-3.3495,-3.3822,-3.4349,-3.4625,-3.5228,-3.5981,-3.5981,-3.6132,-3.6405,-3.6405,-3.6405,-3.6405,-3.6477,-3.6716,-3.7195,-3.8212,-3.908,-3.9798,-4.0337,-4.1422,-4.1782,-4.0546,-4.0397,-3.9888,-3.8542,-3.9349,-3.9499,-3.8272,-3.8182,-3.7814,-3.6951,-3.6446,-3.5683,-3.4552,-3.3882,-3.2845,-3.1344,-3.0011,-2.9179,-2.8865,-2.7283,-2.6776,-2.7268,0.0,0.0,-2.6499,-2.6499,-2.6499,-2.6499,-2.6499,-2.6499,-2.6499,-2.6499,-2.6499,-2.6499,-2.6499,-2.6499,-2.6499,-2.6499,-2.6791,-2.7222,-2.7798,-2.811,-2.8411,-2.9478,-2.9804,-2.9804,-2.9804,-2.9804,-2.9804,-2.9804,-2.9804,-2.9804,-2.9804,-2.9804,-2.9804,-2.9804,-2.9804,-3.0108,-3.1269,-3.1341,-3.1307,-3.1703,-3.1637,-3.1612,-3.1738,-3.1738,-3.1712,-3.1587,-3.1562,-3.1336,-3.0683,-3.0608,0.0,-2.9854,-2.9804,-2.9804,-2.9804,-2.9804,-2.9804,-2.9804,0.0,0.0,0.0,-3.224,-3.2893,-3.3244,0.0,-3.3571,-3.3244,-3.3144,-3.3111,-3.3111,-3.3111,-3.337,-3.3897,-3.3897,-3.4274,-3.4881,-3.5433,-3.5981,-3.6405,-3.6405,-3.6405,-3.6405,-3.6405,-3.6405,-3.6405,-3.6477,-3.7404,-3.8242,-3.8362,-3.9469,-4.0337,-4.0397,-4.0995,-4.1205,-4.0487,-4.0397,-3.9888,-3.8542,-3.8512,-3.8272,-3.7554,-3.7494,-3.6852,-3.5317,-3.5195,-3.446,-3.2881,-3.2305,-3.1309,-2.9741,-2.9114,-2.8116,-2.6788,-2.6584,-2.6776,0.0,0.0,0.0,-2.6499,-2.6499,-2.6499,-2.6499,-2.6499,-2.6499,-2.6499,-2.6499,-2.6499,-2.6499,-2.6499,-2.6499,-2.6499,-2.6499,-2.6552,-2.6678,-2.7406,-2.8076,-2.8787,-2.954,-2.9804,-2.9804,-2.9804,-2.9804,-2.9804,-2.9804,-2.9804,-2.9804,-2.9804,-2.9804,-2.9804,-2.9804,-2.9804,-3.0209,-3.1661,-3.2003,-3.224,-3.2817,-3.2491,-3.2315,-3.2842,-3.296,-3.2742,-3.2215,-3.2139,-3.1763,-3.0733,0.0,0.0,-2.9854,-2.9804,-2.9804,-2.9804,-2.9804,-2.9804,-2.9804,0.0,0.0,-3.1361,-3.1486,-3.229,-3.3796,-3.337,-3.337,-3.3822,-3.3319,-3.3111,-3.3111,-3.3111,-3.337,-3.3897,-3.3897,-3.45,-3.5458,-3.6056,-3.6355,-3.6405,-3.6405,-3.6405,-3.6405,-3.6405,-3.6405,-3.6405,-3.7614,-3.8033,-3.8631,-3.9469,-3.9709,-3.9948,-4.0337,-4.0277,-3.9765,-3.8532,-3.8977,-3.9017,-3.7903,-3.7565,-3.7281,-3.6892,-3.63,-3.5525,-3.4479,-3.3867,-3.302,-3.1829,-3.1254,-3.0237,-2.8687,-2.8123,-2.7411,-2.6499,-2.6499,-2.66,0.0,0.0,0.0,-2.6499,-2.6499,-2.6499,-2.6499,-2.6499,-2.6499,-2.6499,-2.6499,-2.6499,-2.6499,-2.6499,-2.6499,-2.6499,-2.6499,-2.6776,-2.7246,-2.7739,-2.825,-2.8837,-2.9565,-2.9804,-2.9804,-2.9804,-2.9804,-2.9804,-2.9804,-2.9804,-2.9804,-2.9804,-2.9804,-2.9804,-2.9804,-3.0055,-3.0547,-3.1433,-3.2223,-3.2792,-3.3086,-3.2893,-3.2817,-3.3043,-3.3111,-3.2993,-3.2767,-3.2742,0.0,-3.1662,0.0,-3.1235,-3.0357,-3.0557,-3.0633,-3.0306,-2.998,-2.9804,-2.9804,0.0,0.0,-3.1386,0.0,-3.2717,-3.3395,-3.3237,-3.3237,-3.3395,-3.3194,-3.3111,-3.3111,-3.3111,-3.3571,-3.4424,-3.5102,-3.5629,-3.6056,-3.6329,-3.6405,-3.6405,-3.6405,-3.6405,-3.6405,-3.6405,-3.6405,-3.6405,-3.8362,-3.8392,-3.8751,-3.9918,-3.9559,-3.9152,-3.9343,-3.8832,-3.7827,-3.6221,-3.6637,-3.6987,-3.6738,-3.6699,-3.6447,-3.5803,-3.5146,-3.4295,-3.322,-3.2558,-3.1792,-3.0846,-3.0262,-2.9387,-2.8122,-2.757,-2.7052,-2.6499,-2.6499,-2.6575,-2.6725,-2.6725,-2.665,-2.6499,-2.6499,-2.6499,-2.6499,-2.6499,-2.6499,-2.6499,-2.6499,-2.6499,-2.6499,-2.6499,-2.6499,-2.6524,-2.6735,-2.7172,-2.7654,-2.8112,-2.86,-2.9126,-2.9654,-2.9804,-2.9804,-2.9804,-2.9804,-2.9804,-2.9804,-2.9804,-2.9804,-2.9804,-2.9804,-2.9829,-3.0005,-3.0331,-3.0809,-3.1486,-3.239,-3.3111,-3.3111,-3.3111,-3.3111,-3.3111,-3.3111,-3.3111,0.0,-3.3111,0.0,-3.229,-3.2215,-3.1863,-3.0934,-3.1185,-3.1235,-3.0859,-3.0482,-3.0256,-3.0256,-3.0834,0.0,0.0,0.0,0.0,-3.3111,-3.3111,-3.3111,-3.3111,-3.3111,-3.3111,-3.3136,-3.342,-3.4073,-3.4981,-3.5956,-3.6405,-3.6405,-3.6405,-3.6405,-3.6405,-3.6405,-3.6405,-3.6405,-3.6405,-3.6405,-3.6405,-3.8272,-3.8392,-3.8601,-3.932,-3.8871,-3.8109,-3.7179,-3.6454,-3.5468,-3.3843,-3.3295,-3.3571,-3.4909,-3.5912,-3.584,-3.4167,-3.4041,-3.322,-3.1352,-3.1204,-3.0809,-2.9856,-2.9227,-2.8674,-2.8122,-2.757,-2.7052,-2.6499,0.0,-2.6776,-2.7268,-2.7268,-2.7027,-2.6499,-2.6499,-2.6499,-2.6499,-2.6499,-2.6499,-2.6499,-2.6499,-2.6499,-2.6499,-2.6499,-2.6499,-2.6609,-2.7309,-2.7584,-2.7704,-2.8438,-2.9176,-2.9779,-2.9804,-2.9804,-2.9804,-2.9804,-2.9804,-2.9804,-2.9804,-2.9804,-2.9804,-2.9804,-2.9804,-2.993,-3.0482,-3.0608,-3.0909,-3.1989,-3.2667,-3.3111,-3.3111,-3.3111,-3.3111,-3.3111,-3.3111,-3.3111,0.0,-3.3111,0.0,-3.229,-3.2215,-3.1989,-3.1436,-3.1386,-3.1386,-3.1386,-3.1361,-3.1361,-3.1361,-3.0909,-3.111,-3.2164,-3.2215,0.0,-3.3111,-3.3111,-3.3111,-3.3111,-3.3111,-3.3111,-3.3162,-3.4198,-3.4956,-3.5508,-3.6132,-3.6405,-3.6405,-3.6405,-3.6405,-3.6405,-3.6405,-3.6405,-3.6405,-3.6405,-3.6405,-3.6405,-3.7853,-3.8093,-3.8126,-3.7256,-3.6915,-3.6447,-3.5497,-3.536,-3.4697,-3.2895,-3.3266,-3.337,-3.25,-3.3001,-3.3356,-3.3073,-3.2451,-3.1865,-3.1241,-3.0221,-2.9516,-2.9202,-2.8298,-2.772,-2.7544,-2.7027,-2.6675,-2.6499,-2.6499,-2.6575,-2.6751,-2.6751,-2.665,-2.6499,-2.6499,-2.6499,-2.6499,-2.6499,-2.6499,-2.6499,-2.6499,-2.6499,-2.6499,-2.6499,-2.6499,-2.6609,-2.7334,-2.7925,-2.8445,-2.9213,-2.9606,-2.9804,-2.9804,-2.9804,-2.9804,-2.9804,-2.9804,-2.9804,-2.9804,-2.9804,-2.9804,-2.9804,-2.9804,-2.993,-3.0482,-3.1185,-3.1913,-3.2641,-3.2943,-3.3111,-3.3111,-3.3111,-3.3111,-3.3111,-3.3111,0.0,-3.3111,-3.3111,-3.3061,-3.2817,-3.2792,-3.2566,-3.2014,-3.2315,-3.2365,-3.1989,-3.1964,-3.1788,-3.1411,-3.1587,-3.1863,0.0,-3.2968,0.0,-3.3646,-3.4022,-3.3997,-3.3646,-3.4022,-3.4198,-3.4223,-3.4906,-3.5332,-3.5533,-3.6132,-3.6405,-3.6405,-3.6405,-3.6405,-3.6405,-3.6405,-3.6405,-3.6405,-3.6405,-3.6405,-3.6405,-3.8332,-3.8093,-3.7709,-3.6676,-3.6131,-3.5468,-3.4517,-3.4214,-3.3569,-3.2022,-3.2181,-3.1974,-3.0809,-3.0969,0.0,-3.2037,-3.1536,-3.1044,-3.0696,-2.9542,-2.8888,-2.8888,-2.8072,-2.7494,-2.7293,-2.6977,-2.67,-2.6499,-2.6499,-2.6499,-2.6499,-2.6499,-2.6499,-2.6499,-2.6499,-2.6499,-2.6499,-2.6499,-2.6499,-2.6499,-2.6499,-2.6499,-2.6499,-2.6499,-2.6499,-2.6634,-2.7657,-2.8189,-2.8619,-2.9504,-2.9821,-2.9804,-2.9804,-2.9804,-2.9804,-2.9804,-2.9804,-2.9804,-2.9804,-2.9804,-2.9804,-2.9804,-2.9955,-3.0306,-3.1035,-3.1888,-3.2641,-3.2993,-3.3111,-3.3111,-3.3111,-3.3111,-3.3111,-3.3111,-3.3111,-3.3111,-3.3111,-3.3111,-3.3111,-3.3111,-3.3111,-3.2943,-3.2566,-3.2867,-3.2918,-3.2566,-3.2541,-3.239,-3.2039,-3.234,-3.2641,-3.2842,-3.3721,-3.4198,-3.4198,-3.455,-3.455,-3.4198,-3.455,-3.4826,-3.5006,-3.5332,-3.5608,-3.5881,-3.6254,-3.6405,-3.6405,-3.6405,-3.6405,-3.6405,-3.6405,-3.6405,-3.6405,-3.6405,-3.6405,-3.643,-3.9134,-3.8182,-3.728,-3.7182,-3.6168,-3.5034,-3.3945,-3.3122,-3.2236,-3.1204,-3.0381,-2.9856,-2.9804,-2.9804,-3.0114,-3.0992,0.0,0.0,-2.9806,-2.9202,-2.8813,-2.8787,-2.8298,-2.7745,-2.7278,-2.7218,-2.7002,-2.6499,-2.6499,-2.6499,-2.6499,-2.6499,-2.6499,-2.6499,-2.6499,-2.6499,-2.6499,-2.6499,-2.6499,-2.6499,-2.6499,-2.6499,-2.6499,-2.6499,-2.6524,-2.676,-2.8149,-2.8456,-2.8323,-2.9428,-2.9804,-2.9804,-2.9804,-2.9804,-2.9804,-2.9804,-2.9804,-2.9804,-2.9804,-2.9804,-2.9804,-2.9854,-3.0281,-3.0984,-3.1989,-3.2667,-3.3111,-3.3111,-3.3111,-3.3111,-3.3111,-3.3111,-3.3111,-3.3111,-3.3111,-3.3111,-3.3111,-3.3111,-3.3111,-3.3111,-3.3111,-3.3093,-3.3162,-3.3093,-3.3136,-3.3144,-3.3093,-3.3136,-3.3144,0.0,-3.3395,-3.3897,-3.4424,-3.4751,-3.4776,-3.4826,-3.4826,-3.4826,-3.4801,-3.5031,-3.5558,-3.5558,-3.5881,-3.6405,-3.6405,-3.6405,-3.6405,-3.6405,-3.6405,-3.6405,-3.6405,-3.6405,-3.6405,-3.6405,-3.643,-3.6531,0.0,0.0,-3.6305,-3.5035,-3.4549,-3.3774,-3.2128,-3.2272,-3.201,-3.0343,-3.0545,-3.0582,-2.9856,-2.9804,-2.968,-2.9491,-2.9885,-2.9847,-2.9151,-2.8624,-2.8122,-2.7695,-2.7178,-2.6826,-2.67,-2.67,-2.6625,-2.6499,-2.6499,-2.6499,-2.6499,-2.6499,-2.6499,-2.6499,-2.6499,-2.6499,-2.6499,-2.6499,-2.6499,-2.6499,-2.6499,-2.6499,-2.6499,-2.6499,-2.687,-2.741,-2.803,-2.8435,-2.8813,-2.9553,-2.9804,-2.9804,-2.9804,-2.9804,-2.9804,-2.9804,-2.9804,-2.9804,-2.9804,-2.9804,-2.9905,-3.0306,-3.1135,-3.1913,-3.2164,-3.2667,-3.3111,-3.3111,-3.3111,-3.3111,-3.3111,-3.3111,-3.3111,-3.3111,-3.3111,-3.3111,-3.3111,-3.3111,-3.3111,-3.3111,-3.3111,-3.3244,-3.3671,-3.3319,-3.3244,0.0,0.0,-3.3269,-3.3696,-3.4098,-3.4198,-3.3897,-3.4424,-3.4881,-3.5307,-3.5755,-3.6028,-3.6003,-3.5554,-3.5629,-3.6182,-3.6182,-3.6279,-3.6405,-3.6405,-3.6405,-3.6405,-3.6405,-3.6405,-3.6405,-3.6405,-3.6405,-3.6405,-3.6405,-3.6681,-3.701,-3.6507,-3.6447,-3.6224,-3.5305,-3.4516,-3.3671,-3.2629,-3.2164,-3.1573,-3.0545,-3.0533,-3.0381,-2.9856,-2.9804,-2.9654,-2.9352,-2.9377,-2.9151,-2.8562,-2.8047,-2.7595,-2.7293,-2.6801,-2.6499,-2.6499,-2.6499,-2.6499,-2.6499,-2.6499,-2.6499,-2.6499,-2.6499,-2.6499,-2.6499,-2.6499,-2.6499,-2.6499,-2.6499,-2.6499,-2.6499,-2.6499,-2.671,-2.6996,-2.6876,-2.7289,-2.7904,-2.8298,-2.8637,-2.8988,-2.9603,-2.9804,-2.9804,-2.9804,-2.9804,-2.9804,-2.9804,-2.9804,-2.9804,-2.9804,-2.998,-3.0357,-3.116,-3.1788,-3.229,-3.2541,-3.2842,-3.3111,-3.3111,-3.3111,-3.3111,-3.3111,-3.3111,-3.3111,-3.3111,-3.3111,-3.3111,-3.3111,-3.3111,-3.3111,-3.3111,-3.3294,-3.3571,-3.3872,-3.3847,-3.3947,-3.4248,-3.3997,0.0,-3.4248,-3.455,-3.47,-3.4605,-3.5177,-3.5604,-3.5906,-3.6254,-3.6405,-3.6405,-3.6056,-3.6081,-3.6405,-3.6405,-3.6405,-3.6405,-3.6405,-3.6405,-3.6405,-3.6405,-3.6405,-3.6405,-3.6405,-3.6405,-3.643,-3.6681,-3.6935,-3.7262,-3.7135,-3.6686,-3.6327,-3.6327,-3.5058,-3.3945,-3.3808,-3.2307,-3.113,-3.1007,-3.0266,-2.9804,-2.9804,-2.9804,-2.9754,-2.9679,-2.9126,-2.8599,-2.8147,-2.7595,-2.7278,-2.7203,-2.6751,-2.6499,-2.6499,-2.6499,-2.6499,-2.6499,-2.6499,-2.6499,-2.6499,-2.6499,-2.6499,-2.6499,-2.6499,-2.6499,-2.6499,-2.6499,-2.6499,-2.6499,-2.6499,-2.6946,-2.7536,-2.7389,-2.767,-2.8298,-2.8737,-2.8938,-2.9088,-2.9628,-2.9804,-2.9804,-2.9804,-2.9804,-2.9804,-2.9804,-2.9804,-2.9804,-2.9804,-3.0256,-3.0959,-3.1964,-3.229,-3.2466,-3.2968,-3.3111,-3.3111,-3.3111,-3.3111,-3.3111,-3.3111,-3.3111,-3.3111,-3.3111,-3.3111,-3.3111,-3.3111,0.0,-3.3194,-3.3194,-3.3696,-3.4048,-3.4148,-3.45,-3.4705,-3.4781,-3.4731,-3.4751,-3.4806,-3.4806,-3.5056,-3.5608,-3.6031,-3.6329,-3.6405,-3.6405,-3.6405,-3.6405,-3.6405,-3.6405,-3.6405,-3.6405,-3.6405,-3.6405,-3.6405,-3.6405,-3.6405,-3.6405,-3.6405,-3.6405,-3.6405,-3.6455,-3.6581,-3.701,-3.7287,-3.7563,-3.5789,-3.5729,-3.5669,-3.5669,-3.4765,-3.3739,-3.2947,-3.1901,-3.0932,-3.0101,-2.9895,-2.9804,-2.9804,-2.9804,-2.9603,-2.9063,-2.8549,-2.8197,-2.8122,-2.7595,-2.7102,-2.665,-2.6549,-2.6499,-2.6499,-2.6499,-2.6499,-2.6499,-2.6499,-2.6499,-2.6499,-2.6499,-2.6499,-2.6499,-2.6499,-2.6499,-2.6499,-2.6499,-2.6499,-2.6499,-2.6499,-2.6826,-2.7329,-2.7329,-2.7921,-2.8787,-2.8863,-2.9252,-2.9679,-2.9754,-2.9804,-2.9804,-2.9804,-2.9804,-2.9804,-2.9804,-2.9804,-2.9804,-2.9804,-3.0507,-3.1411,-3.2064,-3.2591,-3.2968,-3.3068,-3.3111,-3.3111,-3.3111,-3.3111,-3.3111,-3.3111,-3.3111,-3.3111,-3.3111,-3.3111,-3.3111,-3.3111,0.0,-3.3771,-3.3771,-3.4248,-3.4731,-3.5207,-3.4906,-3.4881,-3.5332,-3.4931,-3.4881,-3.5332,-3.5382,-3.568,-3.6254,-3.5881,-3.5881,-3.6405,-3.6405,-3.6405,-3.6405,-3.6405,-3.6405,-3.6405,-3.6405,-3.6405,-3.6405,-3.6405,-3.6405,-3.6405,-3.6405,-3.6405,-3.6405,-3.6405,-3.6707,-3.7061,-3.7161,-3.7789,-3.8693,-3.5519,-3.5519,-3.5519,-3.5519,-3.4643,-3.3671,-3.2735,-3.1829,-3.0857,-2.9934,-2.9804,-2.9804,-2.9804,-2.9804,-2.9553,-2.8938,-2.8423,-2.7971,-2.7695,-2.7178,-2.6751,-2.6499,-2.6499,-2.6499,-2.6499,-2.6499,-2.6499,-2.6499,-2.6499,-2.6499,-2.6499,-2.6499,-2.6499,-2.6499,-2.6499,-2.6499,-2.6499,-2.6499,-2.6499,-2.6499,-2.6499,-2.7002,-2.772,-2.772,-2.8423,-2.9402,-2.9402,-2.9578,-2.9804,-2.9804,-2.9804,-2.9804,-2.9804,-2.9804,-2.9804,-2.9804,-3.0005,-3.0306,-3.0583,-3.1235,-3.1964,-3.2541,-3.2867,-3.3111,-3.3111,-3.3111,-3.3111,-3.3111,-3.3111,-3.3111,-3.3111,-3.3111,-3.3111,-3.3111,-3.3111,-3.3194,-3.347,-3.3746,-3.3997,-3.4299,-3.4781,-3.5232,-3.5483,-3.5579,-3.5705,-3.5956,-3.5755,-3.5705,-3.5981,-3.5981,-3.6107,-3.6405,-3.6107,-3.6107,-3.6405,-3.6405,-3.6405,-3.6405,-3.6405,-3.6405,-3.6405,-3.6405,-3.6405,-3.6405,-3.6405,-3.6405,-3.6405,-3.6405,-3.6581,-3.6857,-3.6857,-3.7136,-3.7663,-3.7965,-3.8466,-3.8969,-3.5519,-3.5519,-3.5519,-3.5519,-3.4643,-3.3774,-3.3017,-3.2128,-3.1193,-3.0254,-3.0139,-3.0024,-2.9818,-2.9804,-2.9603,-2.9139,-2.8499,-2.7921,-2.7494,-2.6876,-2.6499,-2.6499,-2.6499,-2.6499,-2.6499,-2.6499,-2.6499,-2.6499,-2.6499,-2.6499,-2.6499,-2.6499,-2.6499,-2.6499,-2.6499,-2.6499,-2.6499,-2.6499,-2.6499,-2.6499,-2.6499,-2.7153,-2.8097,-2.8097,-2.88,-2.9804,-2.9804,-2.9804,-2.9804,-2.9804,-2.9804,-2.9804,-2.9804,-2.9804,-2.9804,-2.9955,-3.0457,-3.106,-3.1461,-3.1888,-3.234,-3.2943,-3.3111,-3.3111,-3.3111,-3.3111,-3.3111,-3.3111,-3.3111,-3.3111,-3.3111,-3.3111,-3.3111,-3.3111,0.0,-3.342,-3.3847,-3.4123,-3.4449,-3.4831,-3.5357,-3.5683,-3.5683,-3.6107,-3.6405,-3.6405,-3.6405,-3.6405,-3.6405,-3.6405,-3.6405,-3.6405,-3.6405,-3.6405,-3.6405,-3.6405,-3.6405,-3.6405,-3.6405,-3.648,-3.6606,-3.6455,-3.648,-3.6581,-3.6455,-3.648,-3.6606,-3.6606,-3.6885,-3.7387,-3.7387,-3.7713,-3.8266,-3.8718,-3.8994,-3.912,-3.5519,-3.5519,-3.5519,-3.5519,-3.4643,-3.3979,-3.391,-3.3087,-3.2164,-3.1204,-3.1119,-3.0771,-2.9895,-2.9804,-2.9779,-2.9729,-2.8725,-2.8097,-2.8047,-2.7077,-2.6499,-2.6499,-2.6499,-2.6499,-2.6499,-2.6499,-2.6499,-2.6499,-2.6499,-2.6499,-2.6499,-2.6499,-2.6499,-2.6499,-2.6499,-2.6499,-2.6499,-2.6499,-2.6499,-2.6499,-2.6499,-2.7153,-2.8097,-2.8097,-2.88,-2.9804,-2.9804,-2.9804,-2.9804,-2.9804,-2.9804,-2.9804,-2.9804,-2.9804,-2.9905,-3.0407,-3.1286,-3.2114,-3.2139,-3.219,-3.234,-3.2943,-3.3111,-3.3111,-3.3111,-3.3111,-3.3111,-3.3111,-3.3111,-3.3111,-3.3111,-3.3111,-3.3111,-3.3111,0.0,0.0,-3.3897,-3.4776,-3.5382,-3.5433,-3.5956,-3.6355,-3.6355,-3.638,-3.6405,-3.6405,-3.6405,-3.6405,-3.6405,-3.6405,-3.6405,-3.6405,-3.6405,-3.6405,-3.6405,-3.6405,-3.6405,-3.6405,-3.6405,-3.6681,-3.7111,-3.6631,-3.6681,-3.7086,-3.6631,-3.6707,-3.7136,-3.7136,-3.7437,-3.7939,-3.7939,-3.8291,-3.8869,-3.8894,-3.9195,-3.9647,-3.5519,-3.5519,-3.5519,-3.5519,-3.5166,-3.4739,-3.4109,-3.3705,-3.2912,-3.1389,-3.1204,-3.082,-2.9895,-2.9804,-2.9654,-2.9277,-2.8549,-2.7971,-2.762,-2.6927,-2.6499,-2.6499,-2.6499,-2.6499,-2.6499,-2.6499,-2.6499,-2.6499,-2.6499,-2.6499,-2.6499,-2.6499,-2.6499,-2.6499,-2.6499,-2.6499,-2.6499,-2.6499,-2.6499,-2.6499,-2.6499,-2.7153,-2.8097,-2.8097,-2.88,-2.9804,-2.9804,-2.9804,-2.9804,-2.9804,-2.9804,-2.9804,-2.9804,-2.9804,-2.9955,-3.0834,-3.1637,-3.229,-3.2641,-3.2742,-3.2792,-3.3018,-3.3111,-3.3111,-3.3111,-3.3111,-3.3169,-3.352,-3.3596,-3.3696,-3.4022,-3.4098,-3.4098,-3.4098,0.0,-3.4525,-3.4831,-3.5232,-3.5633,-3.6006,-3.6279,-3.6405,-3.6405,-3.6405,-3.6405,-3.6405,-3.6405,-3.6405,-3.6405,-3.6405,-3.6405,-3.6405,-3.6405,-3.6405,-3.6405,-3.6405,-3.6581,-3.686,-3.6581,-3.6883,-3.7688,-3.7136,-3.7186,-3.7688,-3.7462,-3.7487,-3.7688,-3.7688,-3.804,-3.8542,-3.8542,-3.8894,-3.9371,-3.9371,-3.9521,-3.9697,-3.5519,-3.5519,-3.5519,-3.5519,-3.5519,-3.5294,-3.4576,-3.4476,-3.3905,-3.2272,-3.1829,-3.1225,-3.0112,-2.9871,-2.9503,-2.8725,-2.8323,-2.7871,-2.7354,-2.6801,-2.6499,-2.6499,-2.6499,-2.6499,-2.6499,-2.6499,-2.6499,-2.6499,-2.6499,-2.6499,-2.6499,-2.6499,-2.6499,-2.6499,-2.6499,-2.6499,-2.6499,-2.6499,-2.6499,-2.6499,-2.6675,-2.7268,-2.8122,-2.8298,-2.895,-2.9804,-2.9804,-2.9804,-2.9804,-2.9804,-2.9804,-2.9804,-2.9804,-3.003,-3.0482,-3.1386,-3.2039,-3.2566,-3.2968,-3.3194,-3.3294,-3.3162,-3.3111,-3.3119,-3.3294,-3.3345,-3.3495,-3.4048,-3.4148,-3.4274,-3.4605,-3.468,-3.468,-3.468,-3.4831,-3.5056,-3.5458,-3.5633,-3.5956,-3.6355,-3.6556,-3.6606,-3.643,-3.6732,-3.6782,-3.643,-3.6581,-3.6581,-3.6405,-3.6732,-3.6857,-3.6681,-3.6656,-3.6757,-3.6885,-3.6757,-3.6933,-3.7437,-3.7061,-3.7362,-3.8266,-3.7688,-3.7739,-3.8266,-3.809,-3.8115,-3.8266,-3.8266,-3.8617,-3.912,-3.912,-3.9371,-3.9697,-3.9697,-3.9697,-3.9697,-3.5519,-3.5519,-3.5519,-3.5519,-3.5519,-3.5519,-3.5519,-3.5519,-3.5133,-3.4143,-3.3157,-3.2044,-3.0572,-3.0035,-2.9327,-2.8222,-2.8097,-2.7871,-2.7318,-2.6801,-2.6499,-2.6499,-2.6499,-2.6499,-2.6499,-2.6499,-2.6499,-2.6499,-2.6499,-2.6499,-2.6499,-2.6499,-2.6499,-2.6499,-2.6499,-2.6499,-2.6499,-2.6499,-2.6499,-2.6549,-2.7102,-2.762,-2.8172,-2.8687,-2.9277,-2.9804,-2.9804,-2.9804,-2.9804,-2.9804,-2.9804,-2.9804,-2.9804,-3.0532,-3.1512,-3.2039,-3.2616,-3.3111,-3.3136,-3.347,-3.3771,-3.3219,-3.3136,-3.3244,-3.3771,-3.3897,-3.4073,-3.4625,-3.4726,-3.4726,-3.4726,-3.4726,-3.468,-3.4751,-3.5157,-3.5508,-3.5508,-3.6031,-3.6405,-3.6405,-3.6908,-3.6985,-3.648,-3.7362,-3.7563,-3.6505,-3.6933,-3.696,-3.6455,-3.7412,-3.7764,-3.7211,-3.7186,-3.7462,-3.8015,-3.7462,-3.7462,-3.8015,-3.8015,-3.8316,-3.8919,-3.8266,-3.8341,-3.8894,-3.8266,-3.8341,-3.8919,-3.8919,-3.9195,-3.9697,-3.9697,-3.9697,-3.9697,-3.9697,-3.9697,-3.9697,-3.5519,-3.5519,-3.5519,-3.5519,-3.5519,-3.5519,-3.5519,-3.5519,-3.5133,-3.4143,-3.3157,-3.2181,-3.1103,-2.9881,-2.9227,-2.9277,-2.8197,-2.7329,-2.6776,-2.6575,-2.6499,-2.6499,-2.6499,-2.6499,-2.6499,-2.6499,-2.6499,-2.6499,-2.6499,-2.6499,-2.6499,-2.6499,-2.6499,-2.6499,-2.6499,-2.6499,-2.6499,-2.6499,-2.6725,-2.7077,-2.7253,-2.7846,-2.8662,-2.8838,-2.9277,-2.9804,-2.9804,-2.9804,-2.9804,-2.9804,-2.9804,-2.9854,-3.0256,-3.111,-3.1989,-3.2164,-3.2616,-3.3169,-3.3545,-3.3771,-3.3771,-3.3219,-3.3671,-3.4173,-3.3947,-3.4198,-3.4625,-3.5132,-3.5257,-3.5382,-3.5805,-3.5881,-3.6006,-3.6383,-3.6257,-3.6257,-3.6634,-3.6835,-3.6935,-3.6935,-3.7412,-3.7688,-3.7538,-3.7814,-3.7864,-3.7538,-3.7663,-3.7688,-3.7513,-3.7839,-3.7939,-3.7764,-3.7764,-3.804,-3.8617,-3.7663,-3.7663,-3.8617,-3.8191,-3.8517,-3.9421,-3.8868,-3.8919,-3.9446,-3.927,-3.9295,-3.9446,-3.9446,-3.9546,-3.9697,-3.9697,-3.9697,-3.9697,-3.9697,-3.9697,-3.9697,-3.5519,-3.5519,-3.5519,-3.5519,-3.5519,-3.5519,-3.5519,-3.5519,-3.5294,-3.4677,-3.3739,-3.2722,-3.1577,-3.0451,-2.9629,-2.9164,-2.8074,-2.7165,-2.654,-2.6507,-2.6492,-2.6492,-2.6506,-2.6499,-2.6499,-2.6499,-2.6499,-2.6499,-2.6499,-2.6499,-2.6499,-2.6499,-2.6499,-2.6499,-2.6499,-2.6499,-2.6499,-2.6725,-2.7002,-2.7318,-2.777,-2.8323,-2.8913,-2.9176,-2.9478,-2.9804,-2.9804,-2.9804,-2.9804,-2.9804,-2.993,-3.0256,-3.1009,-3.1687,-3.2265,-3.2491,-3.2792,-3.3194,-3.3746,-3.4048,-3.4148,-3.3796,-3.4223,-3.47,-3.4575,-3.4756,-3.5157,-3.5755,-3.5881,-3.6031,-3.6631,-3.6732,-3.686,-3.7412,-3.7236,-3.7136,-3.7462,-3.7513,-3.7513,-3.7513,-3.8015,-3.8266,-3.804,-3.8417,-3.8592,-3.8366,-3.8341,-3.8241,-3.8015,-3.8442,-3.8567,-3.8341,-3.8341,-3.8617,-3.9195,-3.8291,-3.8291,-3.9195,-3.8843,-3.9044,-3.9697,-3.9346,-3.9371,-3.9697,-3.9697,-3.9697,-3.9697,-3.9697,-3.9697,-3.9697,-3.9697,-3.9697,-3.9697,-3.9697,-3.9697,-3.9697,-3.5519,-3.5519,-3.5519,-3.5519,-3.5519,-3.5519,-3.5519,-3.5519,-3.5519,-3.5519,-3.461,-3.3477,-3.2158,-3.1487,-3.0388,-2.8605,-2.8049,-2.747,-2.6712,-2.6563,-2.6508,-2.6508,-2.6611,-2.6634,-2.6609,-2.6524,-2.6499,-2.6499,-2.6499,-2.6499,-2.6499,-2.6499,-2.6499,-2.6499,-2.6499,-2.6524,-2.66,-2.7102,-2.7379,-2.7519,-2.8524,-2.8913,-2.9038,-2.9603,-2.9804,-2.9804,-2.9804,-2.9804,-2.9804,-2.9854,-3.0256,-3.0934,-3.1913,-3.224,-3.2416,-3.2993,-3.3144,-3.3294,-3.3872,-3.4399,-3.4756,-3.4851,-3.4876,-3.5002,-3.5382,-3.5533,-3.5755,-3.6304,-3.6455,-3.6631,-3.7086,-3.7236,-3.7437,-3.799,-3.804,-3.8015,-3.8065,-3.809,-3.809,-3.809,-3.8592,-3.8743,-3.8216,-3.9094,-3.9496,-3.8994,-3.8994,-3.8718,-3.8191,-3.9145,-3.9471,-3.902,-3.8994,-3.9195,-3.9697,-3.9195,-3.9195,-3.9697,-3.9697,-3.9697,-3.9697,-3.9697,-3.9697,-3.9697,-3.9697,-3.9697,-3.9697,-3.9697,-3.9697,-3.9697,-3.9697,-3.9697,-3.9697,-3.9697,-3.9697,-3.9697,-3.5519,-3.5519,-3.5519,-3.5519,-3.5519,-3.5519,-3.5519,-3.5519,-3.5519,-3.5519,-3.461,-3.3853,-3.3539,-3.1771,-3.0665,-3.0908,-2.9928,-2.8886,-2.7814,-2.6962,-2.6508,-2.6508,-2.7289,-2.7637,-2.7369,-2.6785,-2.6499,-2.6499,-2.6499,-2.6499,-2.6499,-2.6499,-2.6499,-2.6499,-2.6499,-2.6725,-2.7153,-2.7243,-2.777,-2.8562,-2.8787,-2.9202,-2.9628,-2.9754,-2.9804,-2.9804,-2.9804,-2.9804,-2.9854,-3.0281,-3.106,-3.1913,-3.2139,-3.2516,-3.2993,-3.3545,-3.3721,-3.3947,-3.4881,-3.5232,-3.5433,-3.5906,-3.6053,-3.5931,-3.5558,-3.5881,-3.6254,-3.638,-3.6757,-3.7036,-3.7161,-3.7538,-3.8015,-3.8592,-3.8291,-3.8165,-3.8617,-3.8668,-3.8668,-3.8668,-3.917,-3.9471,-3.9346,-3.9546,-3.9647,-3.9521,-3.9521,-3.9471,-3.9346,-3.9572,-3.9647,-3.9521,-3.9521,-3.9572,-3.9697,-3.9572,-3.9572,-3.9697,-3.9697,-3.9697,-3.9697,-3.9697,-3.9697,-3.9697,-3.9697,-3.9697,-3.9697,-3.9697,-3.9697,-3.9697,-3.9697,-3.9697,-3.9697,-3.9697,-3.9697,-3.9697,-3.5519,-3.5519,-3.5519,-3.5519,-3.5519,-3.5519,-3.5519,-3.5519,-3.5519,-3.5519,-3.5034,-3.4346,-3.3429,-3.2483,-3.1612,-3.0875,-3.019,-2.9543,-2.895,-2.7875,-2.7182,-2.7025,-2.754,-2.7754,-2.745,-2.7304,-2.7278,-2.7278,-2.7278,-2.7153,-2.6876,-2.6876,-2.6751,-2.6499,-2.6776,-2.7052,-2.7318,-2.7846,-2.8398,-2.8913,-2.9189,-2.9528,-2.9804,-2.9804,-2.9804,-2.9804,-2.9804,-2.9955,-3.0256,-3.0809,-3.1537,-3.2265,-3.2541,-3.2842,-3.3237,-3.3746,-3.3897,-3.4148,-3.5207,-3.5508,-3.5633,-3.6279,-3.6405,-3.6405,-3.6332,-3.6558,-3.6835,-3.7086,-3.7387,-3.7663,-3.7939,-3.8216,-3.8617,-3.917,-3.9019,-3.8919,-3.922,-3.927,-3.927,-3.927,-3.9521,-3.9697,-3.9697,-3.9697,-3.9697,-3.9697,-3.9697,-3.9697,-3.9697,-3.9697,-3.9697,-3.9697,-3.9697,-3.9697,-3.9697,-3.9697,-3.9697,-3.9697,-3.9697,-3.9697,-3.9697,-3.9697,-3.9697,-3.9697,-3.9697,-3.9697,-3.9697,-3.9697,-3.9697,-3.9697,-3.9697,-3.9697,-3.9697,-3.9697,-3.9697,-3.9697,-3.5519,-3.5519,-3.5519,-3.5519,-3.5519,-3.5519,-3.5519,-3.5519,-3.5519,-3.5519,-3.5519,-3.4898,-3.3262,-3.3584,-3.2837,-3.0036,-2.9804,-2.9804,-2.9804,-2.8825,-2.8087,-2.7815,-2.7821,-2.7727,-2.757,-2.8122,-2.8298,-2.8097,-2.8097,-2.7871,-2.7419,-2.7419,-2.7203,-2.6801,-2.7253,-2.7469,-2.762,-2.8512,-2.8938,-2.9088,-2.9603,-2.9804,-2.9804,-2.9804,-2.9804,-2.9804,-2.9804,-3.0206,-3.0834,-3.1361,-3.1913,-3.2441,-3.2918,-3.3144,-3.3319,-3.3872,-3.4098,-3.4399,-3.5357,-3.5633,-3.578,-3.6304,-3.6405,-3.6581,-3.7186,-3.7262,-3.7337,-3.7889,-3.809,-3.8291,-3.8844,-3.8994,-3.917,-3.9622,-3.9697,-3.9697,-3.9697,-3.9697,-3.9697,-3.9697,-3.9697,-3.9697,-3.9697,-3.9697,-3.9697,-3.9697,-3.9697,-3.9697,-3.9697,-3.9697,-3.9697,-3.9697,-3.9697,-3.9697,-3.9697,-3.9697,-3.9697,-3.9697,-3.9697,-3.9697,-3.9697,-3.9697,-3.9697,-3.9697,-3.9697,-3.9697,-3.9697,-3.9697,-3.9697,-3.9697,-3.9697,-3.9697,-3.9697,-3.9697,-3.9697,-3.9697,-3.5519,-3.5519,-3.5519,-3.5519,-3.5519,-3.5519,-3.5519,-3.5519,-3.5519,-3.5519,-3.5519,-3.5377,-3.5122,-3.5196,-3.3769,-3.0112,-2.9804,-2.9804,-2.9804,-2.905,-2.8637,-2.87,-2.8712,-2.8725,-2.8662,-2.9277,-2.9076,-2.8097,-2.8097,-2.8072,-2.7996,-2.7996,-2.7946,-2.7896,-2.7971,-2.8273,-2.8687,-2.8838,-2.9227,-2.9679,-2.9754,-2.9804,-2.9804,-2.9804,-2.9804,-2.9804,-2.9804,-3.0432,-3.1361,-3.1913,-3.2491,-3.2968,-3.3043,-3.3395,-3.3897,-3.4449,-3.4906,-3.5408,-3.6081,-3.6304,-3.6329,-3.638,-3.6405,-3.6681,-3.7663,-3.7538,-3.7337,-3.7889,-3.8417,-3.8768,-3.8894,-3.927,-3.9597,-3.9697,-3.9697,-3.9697,-3.9697,-3.9697,-3.9697,-3.9697,-3.9697,-3.9697,-3.9697,-3.9697,-3.9697,-3.9697,-3.9697,-3.9697,-3.9697,-3.9697,-3.9697,-3.9697,-3.9697,-3.9697,-3.9697,-3.9697,-3.9697,-3.9697,-3.9697,-3.9697,-3.9697,-3.9697,-3.9697,-3.9697,-3.9697,-3.9697,-3.9697,-3.9697,-3.9697,-3.9697,-3.9697,-3.9697,-3.9697,-3.9697,-3.9697,-3.9697,-3.5519,-3.5519,-3.5519,-3.5519,-3.5519,-3.5519,-3.5519,-3.5519,-3.5519,-3.5519,-3.5519,-3.5492,-3.5485,-3.3606,-3.1651,-2.9945,-2.9804,-2.9804,-2.9804,-2.9189,-2.8825,-2.8888,-2.8888,-2.8888,-2.8888,-2.9503,-2.9553,-2.9051,-2.9051,-2.8875,-2.8574,-2.8574,-2.8398,-2.8122,-2.8423,-2.8662,-2.8913,-2.9277,-2.9553,-2.9804,-2.9804,-2.9804,-2.9804,-2.9804,-2.9804,-2.9829,-3.0131,-3.0934,-3.1888,-3.2139,-3.2591,-3.3144,-3.3445,-3.3696,-3.4073,-3.4881,-3.5307,-3.5608,-3.6254,-3.6405,-3.6405,-3.6405,-3.6631,-3.7036,-3.7814,-3.8065,-3.8291,-3.8843,-3.9145,-3.932,-3.932,-3.9521,-3.9697,-3.9697,-3.9697,-3.9697,-3.9697,-3.9697,-3.9697,-3.9697,-3.9697,-3.9697,-3.9697,-3.9697,-3.9697,-3.9697,-3.9697,-3.9697,-3.9697,-3.9697,-3.9697,-3.9697,-3.9697,-3.9697,-3.9697,-3.9697,-3.9697,-3.9697,-3.9697,-3.9697,-3.9697,-3.9697,-3.9697,-3.9697,-3.9697,-3.9697,-3.9697,-3.9697,-3.9697,-3.9697,-3.9697,-3.9697,-3.9697,-3.9697,-3.9697,-3.9697]},{"header":{"parameterUnit":"m.s-1","parameterCategory":1,"la1":30.6,"la2":28.766,"lo1":-90.7593,"lo2":-88.6598,"dy":0.0162,"dx":0.0183,"nx":116,"ny":114,"refTime":"2023-04-03T18:00:00:Z","depth":0,"parameterNumber":3,"parameterNumberName":"V-component_of_WINDS"},"data":[0.0,0.0,0.0,0.0,0.0,0.0,0.0,0.0,0.0,0.0,0.0,0.0,0.0,0.0,0.0,0.0,0.0,0.0,0.0,0.0,0.0,0.0,0.0,0.0,0.0,0.0,0.0,0.0,0.0,0.0,0.0,0.0,0.0,0.0,0.0,0.0,0.0,0.0,0.0,0.0,0.0,0.0,0.0,0.0,0.0,0.0,0.0,0.0,0.0,0.0,0.0,0.0,0.0,0.0,0.0,0.0,0.0,0.0,0.0,0.0,0.0,0.0,0.0,0.0,0.0,0.0,0.0,0.0,0.0,0.0,0.0,0.0,0.0,0.0,0.0,0.0,0.0,0.0,0.0,0.0,0.0,0.0,0.0,0.0,0.0,0.0,0.0,0.0,0.0,0.0,0.0,0.0,0.0,0.0,0.0,0.0,0.0,0.0,0.0,0.0,0.0,0.0,0.0,0.0,0.0,0.0,0.0,0.0,0.0,0.0,0.0,0.0,0.0,0.0,0.0,0.0,0.0,0.0,0.0,0.0,0.0,0.0,0.0,0.0,0.0,0.0,0.0,0.0,0.0,0.0,0.0,0.0,0.0,0.0,0.0,0.0,0.0,0.0,0.0,0.0,0.0,0.0,0.0,0.0,0.0,0.0,0.0,0.0,0.0,0.0,0.0,0.0,0.0,0.0,0.0,0.0,0.0,0.0,0.0,0.0,0.0,0.0,0.0,0.0,0.0,0.0,0.0,0.0,0.0,0.0,0.0,0.0,0.0,0.0,0.0,0.0,0.0,0.0,0.0,0.0,0.0,0.0,0.0,0.0,0.0,0.0,0.0,0.0,0.0,0.0,0.0,0.0,0.0,0.0,0.0,0.0,0.0,0.0,0.0,0.0,0.0,0.0,0.0,0.0,0.0,0.0,0.0,0.0,0.0,0.0,0.0,0.0,0.0,0.0,0.0,0.0,0.0,0.0,0.0,0.0,0.0,0.0,0.0,0.0,0.0,0.0,0.0,0.0,0.0,0.0,0.0,0.0,0.0,0.0,0.0,0.0,0.0,0.0,0.0,0.0,0.0,0.0,0.0,0.0,0.0,0.0,0.0,0.0,0.0,0.0,0.0,0.0,0.0,0.0,0.0,0.0,0.0,0.0,0.0,0.0,0.0,0.0,0.0,0.0,0.0,0.0,0.0,0.0,0.0,0.0,0.0,0.0,0.0,0.0,0.0,0.0,0.0,0.0,0.0,0.0,0.0,0.0,0.0,0.0,0.0,0.0,0.0,0.0,0.0,0.0,0.0,0.0,0.0,0.0,0.0,0.0,0.0,0.0,0.0,0.0,0.0,0.0,0.0,0.0,0.0,0.0,0.0,0.0,0.0,0.0,0.0,0.0,0.0,0.0,0.0,0.0,0.0,0.0,0.0,0.0,0.0,0.0,0.0,0.0,0.0,0.0,0.0,0.0,0.0,0.0,0.0,0.0,0.0,0.0,0.0,0.0,0.0,0.0,0.0,0.0,0.0,0.0,0.0,0.0,0.0,0.0,0.0,0.0,0.0,0.0,0.0,0.0,0.0,0.0,0.0,0.0,0.0,0.0,0.0,0.0,0.0,0.0,0.0,0.0,0.0,0.0,0.0,0.0,0.0,0.0,0.0,0.0,0.0,0.0,0.0,0.0,0.0,0.0,0.0,0.0,0.0,0.0,0.0,0.0,0.0,0.0,0.0,0.0,0.0,0.0,0.0,0.0,0.0,0.0,0.0,0.0,0.0,0.0,0.0,0.0,0.0,0.0,0.0,0.0,0.0,0.0,0.0,0.0,0.0,0.0,0.0,0.0,0.0,0.0,0.0,0.0,0.0,0.0,0.0,0.0,0.0,0.0,0.0,0.0,0.0,0.0,0.0,0.0,0.0,0.0,0.0,0.0,0.0,0.0,0.0,0.0,0.0,0.0,0.0,0.0,0.0,0.0,0.0,0.0,0.0,0.0,0.0,0.0,0.0,0.0,0.0,0.0,0.0,0.0,0.0,0.0,0.0,0.0,0.0,0.0,0.0,0.0,0.0,0.0,0.0,0.0,0.0,0.0,0.0,0.0,0.0,0.0,0.0,0.0,0.0,0.0,0.0,0.0,0.0,0.0,0.0,0.0,0.0,0.0,0.0,0.0,0.0,0.0,0.0,0.0,0.0,0.0,0.0,0.0,0.0,0.0,0.0,0.0,0.0,0.0,0.0,0.0,0.0,0.0,0.0,0.0,0.0,0.0,0.0,0.0,0.0,0.0,0.0,0.0,0.0,0.0,0.0,0.0,0.0,0.0,0.0,0.0,0.0,0.0,0.0,0.0,0.0,0.0,0.0,0.0,0.0,0.0,0.0,0.0,0.0,0.0,0.0,0.0,0.0,0.0,0.0,0.0,0.0,0.0,0.0,0.0,0.0,0.0,0.0,0.0,0.0,0.0,0.0,0.0,0.0,0.0,0.0,0.0,0.0,0.0,0.0,0.0,0.0,0.0,0.0,0.0,0.0,0.0,0.0,0.0,0.0,0.0,0.0,0.0,0.0,0.0,0.0,0.0,0.0,0.0,0.0,0.0,0.0,0.0,0.0,0.0,0.0,0.0,0.0,0.0,0.0,0.0,0.0,0.0,0.0,0.0,0.0,0.0,0.0,0.0,0.0,0.0,0.0,0.0,0.0,0.0,0.0,0.0,0.0,0.0,0.0,0.0,0.0,0.0,0.0,0.0,0.0,0.0,0.0,0.0,0.0,0.0,0.0,0.0,0.0,0.0,0.0,0.0,0.0,0.0,0.0,0.0,0.0,0.0,0.0,0.0,0.0,0.0,0.0,0.0,0.0,0.0,0.0,0.0,0.0,0.0,0.0,0.0,0.0,0.0,0.0,0.0,0.0,0.0,0.0,0.0,0.0,0.0,0.0,0.0,0.0,0.0,0.0,0.0,0.0,0.0,0.0,0.0,0.0,0.0,0.0,0.0,0.0,0.0,0.0,0.0,0.0,0.0,0.0,0.0,0.0,0.0,0.0,0.0,0.0,0.0,0.0,0.0,0.0,0.0,0.0,0.0,0.0,0.0,0.0,0.0,0.0,0.0,0.0,0.0,0.0,0.0,0.0,0.0,0.0,0.0,0.0,0.0,0.0,0.0,0.0,0.0,0.0,0.0,0.0,0.0,0.0,0.0,0.0,0.0,0.0,0.0,0.0,0.0,0.0,0.0,0.0,0.0,0.0,0.0,0.0,0.0,0.0,0.0,0.0,0.0,0.0,0.0,0.0,0.0,0.0,0.0,0.0,0.0,0.0,0.0,0.0,0.0,0.0,0.0,0.0,0.0,0.0,0.0,0.0,0.0,0.0,0.0,0.0,0.0,0.0,0.0,0.0,0.0,0.0,0.0,0.0,0.0,0.0,0.0,0.0,0.0,0.0,0.0,0.0,0.0,0.0,0.0,0.0,0.0,0.0,0.0,0.0,0.0,0.0,0.0,0.0,0.0,0.0,0.0,0.0,0.0,0.0,0.0,0.0,0.0,0.0,0.0,0.0,0.0,0.0,0.0,0.0,0.0,0.0,0.0,0.0,0.0,0.0,0.0,0.0,0.0,0.0,0.0,0.0,0.0,0.0,0.0,0.0,0.0,0.0,0.0,0.0,0.0,0.0,0.0,0.0,0.0,0.0,0.0,0.0,0.0,0.0,0.0,0.0,0.0,0.0,0.0,0.0,0.0,0.0,0.0,0.0,0.0,0.0,0.0,0.0,0.0,0.0,0.0,0.0,0.0,0.0,0.0,0.0,0.0,0.0,0.0,0.0,0.0,0.0,0.0,0.0,0.0,0.0,0.0,0.0,0.0,0.0,0.0,0.0,0.0,0.0,0.0,0.0,0.0,0.0,0.0,0.0,0.0,0.0,0.0,0.0,0.0,0.0,0.0,0.0,0.0,0.0,0.0,0.0,0.0,0.0,0.0,0.0,0.0,0.0,0.0,0.0,0.0,0.0,0.0,0.0,0.0,0.0,0.0,0.0,0.0,0.0,0.0,0.0,0.0,0.0,0.0,0.0,0.0,0.0,0.0,0.0,0.0,0.0,0.0,0.0,0.0,0.0,0.0,0.0,0.0,0.0,0.0,0.0,0.0,0.0,0.0,0.0,0.0,0.0,0.0,0.0,0.0,0.0,0.0,0.0,0.0,0.0,0.0,0.0,0.0,0.0,0.0,0.0,0.0,0.0,0.0,0.0,0.0,0.0,0.0,0.0,0.0,0.0,0.0,0.0,0.0,0.0,0.0,0.0,0.0,0.0,0.0,0.0,0.0,0.0,0.0,0.0,0.0,0.0,0.0,0.0,0.0,0.0,0.0,0.0,0.0,0.0,0.0,0.0,0.0,0.0,0.0,0.0,0.0,0.0,0.0,0.0,0.0,0.0,0.0,0.0,0.0,0.0,0.0,0.0,0.0,0.0,0.0,0.0,0.0,0.0,0.0,0.0,0.0,0.0,0.0,0.0,0.0,0.0,0.0,0.0,0.0,0.0,0.0,0.0,0.0,0.0,0.0,0.0,0.0,0.0,0.0,0.0,0.0,0.0,0.0,0.0,0.0,0.0,0.0,0.0,0.0,0.0,0.0,0.0,0.0,0.0,0.0,0.0,0.0,0.0,0.0,0.0,0.0,0.0,0.0,0.0,0.0,0.0,0.0,0.0,0.0,0.0,0.0,0.0,0.0,0.0,0.0,0.0,0.0,0.0,0.0,0.0,0.0,0.0,0.0,0.0,0.0,0.0,0.0,0.0,0.0,0.0,0.0,0.0,0.0,0.0,0.0,0.0,0.0,0.0,0.0,0.0,0.0,0.0,0.0,0.0,0.0,0.0,0.0,0.0,0.0,0.0,0.0,0.0,0.0,0.0,0.0,0.0,0.0,0.0,0.0,0.0,0.0,0.0,0.0,0.0,0.0,0.0,0.0,0.0,0.0,0.0,0.0,0.0,0.0,0.0,0.0,0.0,0.0,0.0,0.0,0.0,0.0,0.0,0.0,0.0,0.0,0.0,0.0,0.0,0.0,0.0,0.0,0.0,0.0,0.0,0.0,0.0,0.0,0.0,0.0,0.0,0.0,0.0,0.0,0.0,0.0,0.0,0.0,0.0,0.0,0.0,0.0,0.0,0.0,0.0,0.0,0.0,0.0,0.0,0.0,0.0,0.0,0.0,0.0,0.0,0.0,0.0,0.0,0.0,0.0,0.0,0.0,0.0,0.0,0.0,0.0,0.0,0.0,0.0,0.0,0.0,0.0,0.0,0.0,0.0,0.0,0.0,0.0,0.0,0.0,0.0,0.0,0.0,0.0,0.0,0.0,0.0,0.0,0.0,0.0,0.0,0.0,0.0,0.0,0.0,0.0,0.0,0.0,0.0,0.0,0.0,0.0,0.0,0.0,0.0,0.0,0.0,0.0,0.0,0.0,0.0,0.0,0.0,0.0,0.0,0.0,0.0,0.0,0.0,0.0,0.0,0.0,0.0,0.0,0.0,0.0,0.0,0.0,0.0,0.0,0.0,0.0,0.0,0.0,0.0,0.0,0.0,0.0,0.0,0.0,0.0,0.0,0.0,0.0,0.0,0.0,0.0,0.0,0.0,0.0,0.0,0.0,0.0,0.0,0.0,0.0,0.0,0.0,0.0,0.0,0.0,0.0,0.0,0.0,0.0,0.0,0.0,0.0,0.0,0.0,0.0,0.0,0.0,0.0,0.0,0.0,0.0,0.0,0.0,0.0,0.0,0.0,0.0,0.0,0.0,0.0,0.0,0.0,0.0,0.0,0.0,0.0,0.0,0.0,0.0,0.0,0.0,0.0,0.0,0.0,0.0,0.0,0.0,0.0,0.0,0.0,0.0,0.0,0.0,0.0,0.0,0.0,0.0,0.0,0.0,0.0,0.0,0.0,0.0,0.0,0.0,0.0,0.0,0.0,0.0,0.0,0.0,0.0,0.0,0.0,0.0,0.0,0.0,0.0,0.0,0.0,0.0,0.0,0.0,0.0,0.0,0.0,0.0,0.0,0.0,0.0,0.0,0.0,0.0,0.0,0.0,0.0,0.0,0.0,0.0,0.0,0.0,0.0,0.0,0.0,3.7315,0.0,0.0,0.0,0.0,0.0,0.0,0.0,0.0,0.0,0.0,0.0,0.0,0.0,0.0,0.0,0.0,0.0,0.0,0.0,0.0,0.0,0.0,0.0,0.0,0.0,0.0,0.0,0.0,0.0,0.0,0.0,0.0,0.0,0.0,0.0,0.0,0.0,0.0,0.0,1.9011,1.9149,1.943,1.943,1.9809,2.0587,0.0,0.0,0.0,0.0,0.0,0.0,0.0,0.0,0.0,0.0,0.0,0.0,0.0,0.0,0.0,0.0,0.0,0.0,0.0,0.0,0.0,0.0,0.0,0.0,0.0,0.0,0.0,0.0,0.0,0.0,0.0,0.0,0.0,0.0,0.0,0.0,0.0,0.0,0.0,0.0,0.0,0.0,0.0,0.0,0.0,0.0,0.0,0.0,0.0,0.0,0.0,0.0,0.0,0.0,0.0,0.0,0.0,0.0,0.0,0.0,0.0,0.0,0.0,0.0,0.0,0.0,0.0,0.0,0.0,0.0,0.0,3.7561,0.0,0.0,0.0,0.0,0.0,0.0,0.0,0.0,0.0,0.0,0.0,0.0,0.0,0.0,0.0,0.0,0.0,0.0,0.0,0.0,0.0,0.0,0.0,0.0,1.6855,1.7456,1.8712,1.9439,0.0,0.0,0.0,0.0,0.0,0.0,0.0,1.9078,1.8918,1.8918,1.8784,1.9052,1.9666,1.9779,1.9924,2.0368,2.273,0.0,0.0,0.0,0.0,0.0,0.0,0.0,0.0,0.0,0.0,0.0,0.0,0.0,0.0,0.0,0.0,0.0,0.0,0.0,0.0,0.0,0.0,0.0,0.0,0.0,0.0,0.0,0.0,0.0,0.0,0.0,0.0,0.0,0.0,0.0,0.0,0.0,0.0,0.0,0.0,0.0,0.0,0.0,0.0,0.0,0.0,0.0,0.0,0.0,0.0,0.0,0.0,0.0,0.0,0.0,0.0,0.0,0.0,0.0,0.0,0.0,0.0,0.0,4.4744,4.4744,4.4895,4.4443,4.394,4.3288,4.1056,3.917,3.7789,3.804,0.0,0.0,0.0,0.0,0.0,0.0,0.0,0.0,0.0,0.0,0.0,0.0,0.0,0.0,0.0,0.0,0.0,0.0,0.0,0.0,0.0,1.5011,1.6402,1.92,1.9615,1.9746,0.0,0.0,0.0,0.0,0.0,0.0,1.943,1.9078,1.8918,1.8918,1.9399,2.0054,2.0882,2.1149,2.2131,2.3539,2.3725,2.5145,2.7485,0.0,0.0,0.0,0.0,0.0,0.0,0.0,0.0,0.0,0.0,0.0,0.0,0.0,0.0,0.0,0.0,0.0,0.0,0.0,0.0,0.0,0.0,0.0,0.0,0.0,0.0,0.0,0.0,0.0,0.0,0.0,0.0,0.0,0.0,0.0,0.0,0.0,0.0,0.0,0.0,0.0,4.0224,3.9747,0.0,0.0,0.0,0.0,0.0,0.0,0.0,0.0,0.0,0.0,0.0,0.0,0.0,4.3865,4.492,4.6401,4.6803,4.61,4.7456,4.7405,4.6075,4.5999,4.5673,4.5146,4.4769,0.0,3.9998,3.912,0.0,0.0,0.0,0.0,0.0,0.0,0.0,0.0,0.0,0.0,0.0,0.0,0.0,0.0,0.0,0.0,0.0,0.0,0.0,0.0,0.0,1.3512,1.5043,1.8434,1.9187,1.96,2.002,0.0,0.0,0.0,0.0,1.9118,1.9118,1.8664,1.8542,1.8918,1.984,2.0655,2.1363,2.1657,2.2329,2.3289,2.495,2.6363,2.7643,2.8609,0.0,0.0,0.0,0.0,0.0,0.0,0.0,0.0,0.0,0.0,0.0,0.0,0.0,0.0,0.0,0.0,0.0,0.0,0.0,0.0,0.0,0.0,0.0,0.0,0.0,0.0,0.0,0.0,0.0,0.0,0.0,0.0,0.0,0.0,0.0,0.0,0.0,0.0,0.0,4.0249,4.0651,3.9798,3.9973,3.9697,0.0,0.0,0.0,0.0,0.0,0.0,0.0,0.0,0.0,4.4468,4.5271,4.605,4.6828,4.7883,4.8636,4.9113,4.9515,4.949,4.9088,4.8761,4.8159,4.7305,4.6979,4.5497,4.3187,4.143,3.9799,3.8165,0.0,0.0,0.0,0.0,3.7086,3.686,0.0,0.0,0.0,0.0,0.0,0.0,0.0,0.0,0.0,0.0,0.0,0.0,1.2167,1.2737,1.4427,1.8059,1.8781,1.947,2.0504,2.0628,0.0,0.0,1.9038,1.8891,1.8811,1.8531,1.8744,1.9479,2.0508,2.139,2.2191,2.2418,2.3188,2.4385,2.6814,2.7853,2.7831,2.9184,2.9551,2.9219,0.0,0.0,0.0,0.0,0.0,0.0,0.0,0.0,0.0,0.0,0.0,0.0,0.0,0.0,0.0,0.0,0.0,0.0,0.0,0.0,0.0,0.0,0.0,0.0,0.0,0.0,0.0,0.0,0.0,0.0,0.0,0.0,0.0,0.0,0.0,0.0,0.0,4.0526,4.1254,3.9848,4.0802,4.0752,0.0,0.0,0.0,0.0,0.0,0.0,4.374,4.4744,4.5773,4.6903,4.7606,4.8309,4.8962,4.954,5.0393,5.1498,5.1197,5.1147,5.1272,5.0695,4.9891,4.8937,4.8234,4.7154,4.5723,4.3489,4.153,3.9823,3.8969,3.814,3.7487,3.8191,3.799,3.7462,0.0,0.0,0.0,0.0,0.0,0.0,0.0,0.0,0.0,0.0,0.0,1.0595,1.2634,1.3361,1.532,1.9347,1.8993,1.9369,2.1381,2.0274,1.9305,1.8958,1.8931,1.8798,1.8517,1.9025,1.9853,2.1002,2.1617,2.2512,2.3661,2.3955,2.5984,2.9335,2.9926,2.9672,2.8974,2.9789,3.0859,3.1818,2.9297,0.0,0.0,0.0,0.0,0.0,0.0,0.0,0.0,0.0,0.0,0.0,0.0,0.0,0.0,0.0,0.0,0.0,0.0,0.0,0.0,0.0,0.0,0.0,0.0,0.0,0.0,0.0,0.0,0.0,0.0,0.0,0.0,0.0,0.0,0.0,0.0,0.0,0.0,3.9948,4.2484,0.0,0.0,0.0,0.0,4.2685,4.379,4.492,4.6075,4.6702,4.7506,4.8611,4.969,5.077,5.1875,5.2427,5.2503,5.2076,5.2578,5.2277,5.1272,5.0695,5.0092,4.949,4.8385,4.7581,4.6878,4.4644,4.2434,4.0475,4.0425,3.9396,3.809,3.9195,3.8919,3.804,0.0,0.0,0.0,0.0,0.0,0.0,0.0,0.0,0.9435,0.9591,0.9903,1.0912,1.2947,1.2774,1.4631,1.9953,1.9192,1.9461,2.1978,2.1096,2.0107,1.9252,1.8664,1.8435,1.8771,1.9533,2.0494,2.167,2.2659,2.3447,2.4062,2.4342,2.5836,2.8386,3.0007,3.1223,3.2154,3.2561,3.2168,3.1211,2.9726,2.8789,0.0,0.0,0.0,0.0,0.0,0.0,0.0,0.0,0.0,0.0,0.0,0.0,0.0,0.0,0.0,0.0,0.0,0.0,0.0,0.0,0.0,0.0,0.0,0.0,0.0,0.0,0.0,0.0,0.0,0.0,0.0,0.0,0.0,0.0,0.0,0.0,0.0,4.3438,4.5372,0.0,4.4141,4.3815,4.3991,4.4543,4.5623,4.6878,4.8335,4.9289,5.0318,5.1423,5.1825,5.2226,5.2628,5.2829,5.2653,5.2101,5.2302,5.1624,5.0193,4.9992,4.9012,4.7456,4.7054,4.6376,4.5447,4.4669,4.3664,4.2534,4.1455,4.045,3.9672,4.0074,3.9747,3.912,0.0,0.0,0.0,0.0,0.0,0.0,0.0,0.0,0.9361,0.951,0.9971,1.0869,1.2504,1.2359,1.4342,1.9865,1.8929,1.9271,2.2229,2.1229,2.0,1.8811,1.8397,1.8557,1.9345,2.0321,2.1403,2.2592,2.338,2.3968,2.4356,2.4449,2.5892,2.8501,3.0404,3.25,3.4803,3.5403,3.4355,3.2285,3.082,3.0234,2.998,0.0,0.0,0.0,0.0,0.0,0.0,0.0,0.0,0.0,0.0,0.0,0.0,0.0,0.0,0.0,0.0,0.0,0.0,0.0,0.0,0.0,0.0,0.0,0.0,0.0,0.0,0.0,0.0,0.0,0.0,0.0,0.0,0.0,0.0,4.2936,4.5146,4.5698,4.7707,4.8385,4.6753,4.6426,4.6527,4.7104,4.8008,4.9163,5.0645,5.1423,5.2176,5.2904,5.2929,5.2829,5.2653,5.2653,5.2176,5.1272,5.1448,5.0645,4.9012,4.8837,4.7857,4.6276,4.5899,4.5221,4.4342,4.4141,4.374,4.3162,4.2258,4.1455,4.0802,4.0802,4.0325,3.9749,0.0,0.0,0.0,0.0,0.0,0.0,0.0,0.9062,0.9262,0.9361,0.9917,1.0575,1.1321,1.2203,1.4576,1.9224,1.8209,1.8715,2.208,2.0494,1.8838,1.7662,1.8196,1.9065,2.0254,2.1416,2.2592,2.3781,2.3794,2.4088,2.4549,2.4342,2.6402,3.0343,3.1231,3.3499,3.6777,3.8047,3.7383,3.5293,3.2676,3.2617,3.3633,0.0,0.0,0.0,0.0,0.0,0.0,0.0,0.0,0.0,0.0,0.0,0.0,0.0,0.0,0.0,0.0,0.0,0.0,0.0,0.0,0.0,0.0,0.0,0.0,0.0,0.0,0.0,0.0,0.0,0.0,0.0,0.0,0.0,4.1351,4.4711,4.7004,4.6552,4.9364,5.0268,4.7606,4.8761,4.9916,5.0444,5.1021,5.18,5.2879,5.2929,5.2929,5.2929,5.2904,5.2653,5.2126,5.2076,5.1247,4.9615,5.0142,4.9515,4.7832,4.733,4.6778,4.615,4.5045,4.4242,4.3689,4.3137,4.2665,4.2292,4.2766,4.2283,4.1329,4.1329,4.0679,3.9981,0.0,0.0,0.0,0.0,0.0,0.0,0.0,0.9062,0.9262,0.9361,1.0093,1.088,1.1626,1.242,1.4128,1.7188,1.7253,1.7981,2.0075,1.9489,1.8811,1.8263,1.8811,1.9773,2.1162,2.2124,2.31,2.4088,2.4289,2.4476,2.4636,2.4556,2.6547,3.0343,3.1231,3.364,3.7187,3.8164,3.8418,3.793,3.5371,3.4043,3.3359,0.0,0.0,0.0,0.0,0.0,0.0,0.0,0.0,0.0,0.0,0.0,0.0,0.0,0.0,0.0,0.0,0.0,0.0,0.0,0.0,0.0,0.0,0.0,0.0,0.0,0.0,0.0,0.0,0.0,0.0,0.0,4.2007,4.3689,4.4267,4.6652,4.8862,5.0343,5.1674,5.2327,5.1925,5.1975,5.2076,5.2226,5.2377,5.2603,5.2904,5.2929,5.2929,5.2929,5.2528,5.2251,5.2101,5.1699,5.087,4.959,4.9741,4.8736,4.6753,4.6602,4.5573,4.3865,4.3564,4.2886,4.2007,4.1856,4.2195,4.2838,4.2084,4.2146,4.2632,4.2216,4.2224,4.2496,0.0,0.0,0.0,0.0,0.0,0.0,0.0,0.9062,0.9262,0.9361,1.0161,1.0955,1.1579,1.2264,1.3597,1.5976,1.6379,1.7174,1.8661,1.8635,1.8651,1.8851,1.9653,2.0668,2.1884,2.3033,2.3861,2.4382,2.4556,2.4636,2.4636,2.4516,2.6649,3.0629,3.1297,3.3943,3.7891,3.8769,3.9375,3.9629,3.8144,3.707,3.6094,3.3281,3.2363,3.2344,3.082,3.1526,3.3146,3.3073,0.0,0.0,0.0,0.0,0.0,0.0,0.0,0.0,0.0,0.0,0.0,0.0,0.0,0.0,0.0,0.0,0.0,0.0,0.0,0.0,0.0,0.0,0.0,0.0,4.4342,4.6451,4.7732,4.9012,5.0469,5.2251,5.2729,5.3055,5.3356,5.3105,5.2929,5.2929,5.2929,5.2929,5.2929,5.2929,5.2829,5.2578,5.2277,5.1875,5.1398,5.0845,5.0017,4.8887,4.8661,4.7657,4.5949,4.5472,4.4418,4.2992,4.3063,4.2592,4.1772,4.232,4.2882,0.0,0.0,0.0,0.0,0.0,4.304,4.3891,0.0,0.0,0.0,0.0,0.0,0.0,0.0,0.9049,0.9248,0.9361,1.0134,1.0833,1.1267,1.185,1.2957,1.4877,1.5368,1.6161,1.7666,1.7988,1.8571,1.9519,2.0655,2.1683,2.2605,2.4008,2.473,2.473,2.477,2.477,2.473,2.4436,2.6721,3.1082,3.1463,3.4244,3.8633,3.9531,4.0137,4.0527,4.0527,4.0488,4.0019,3.6074,3.5488,3.6367,3.3555,3.3135,3.3906,3.3686,0.0,0.0,0.0,0.0,0.0,0.0,0.0,0.0,0.0,0.0,0.0,0.0,0.0,0.0,0.0,0.0,0.0,0.0,0.0,0.0,0.0,0.0,0.0,0.0,4.6753,4.8962,5.1147,5.1473,5.1825,5.2804,5.2929,5.2929,5.2929,5.2929,5.2929,5.2929,5.2929,5.2929,5.2929,0.0,0.0,0.0,0.0,5.1398,5.0343,4.9766,4.8912,4.7732,4.7255,4.6487,4.5481,4.4421,4.3675,4.3263,4.331,4.3037,4.2608,4.377,4.4021,4.3654,4.291,4.2944,4.3377,4.3064,4.3704,4.4687,0.0,0.0,0.0,0.0,0.0,0.0,0.0,0.8905,0.9076,0.9347,0.9958,1.0487,1.0812,1.1389,1.1894,1.2322,1.301,1.4465,1.6798,1.8084,1.9359,2.0708,2.167,2.2699,2.3834,2.4836,2.5344,2.5344,2.5585,2.5571,2.5331,2.505,2.72,3.1373,3.1828,3.4493,3.8633,3.9531,4.0137,4.0527,4.0527,4.0312,3.9844,3.8301,3.748,3.6973,3.5351,3.5571,3.6669,3.7555,3.8408,3.9311,4.0446,3.9742,0.0,0.0,0.0,0.0,0.0,0.0,0.0,0.0,0.0,0.0,0.0,0.0,0.0,0.0,0.0,0.0,0.0,0.0,0.0,4.625,4.8485,5.0569,5.2352,5.2603,5.2678,5.2904,5.2929,5.2929,5.2929,5.2929,5.2929,5.2929,5.2929,5.2929,5.2929,5.2503,5.2226,5.2101,5.1222,5.0419,4.9766,4.9213,4.8159,4.6627,0.0,0.0,4.579,4.5005,4.4732,4.48,4.4293,4.3785,4.3287,4.3526,4.4228,4.4967,4.4276,4.4095,4.4297,4.5215,4.6061,4.6664,0.0,0.0,0.0,0.0,0.0,0.0,0.0,0.9062,0.9211,0.9361,0.9903,1.0365,1.0582,1.0812,1.0948,1.0948,1.2463,1.4381,1.6724,1.868,2.0454,2.1924,2.2699,2.3581,2.4623,2.5358,2.5732,2.5732,2.6026,2.6026,2.5732,2.5438,2.7679,3.2019,3.2367,3.506,3.957,4.0019,4.0449,4.084,4.084,4.0586,4.0137,3.9473,3.8965,3.8398,3.6894,3.6621,3.7015,3.715,3.8204,3.9584,4.0341,4.0324,3.9823,0.0,0.0,0.0,0.0,0.0,0.0,0.0,0.0,0.0,0.0,0.0,0.0,0.0,0.0,4.0981,4.2333,0.0,4.6502,4.846,5.0167,5.1649,5.2779,5.2929,5.2929,5.2929,5.2929,5.2929,5.2929,5.2929,5.2929,5.2929,5.2929,5.2804,5.2528,5.2251,5.1724,5.087,5.0293,4.9615,4.8761,4.7933,4.7129,4.6301,4.5748,4.5598,4.5864,4.4914,4.4803,4.5293,4.4956,4.4678,4.4489,4.5161,4.5605,4.5845,4.5478,4.5537,4.583,4.5811,4.6022,4.6202,0.0,0.0,0.0,0.0,0.0,0.0,0.0,0.9164,0.9347,0.9374,0.9856,1.0222,1.031,1.0243,1.0148,1.0032,1.2469,1.4734,1.6599,1.9325,2.1523,2.306,2.3701,2.4436,2.5317,2.5852,2.6132,2.6132,2.6413,2.6373,2.6039,2.5798,2.8004,3.2146,3.267,3.5487,3.9894,4.0452,4.0859,4.1172,4.1172,4.0918,4.0469,3.9961,3.9766,3.9551,3.7988,3.6992,3.6377,3.6075,3.7061,3.8598,3.9205,4.0219,4.0823,3.937,3.8316,0.0,0.0,0.0,0.0,0.0,0.0,0.0,0.0,3.7513,3.8668,4.1003,4.2283,4.3564,4.5598,4.728,4.8887,5.0343,5.1523,5.2427,5.2854,5.2929,5.2929,5.2929,5.2929,5.2929,5.2929,5.2929,5.2929,5.2929,5.2929,5.2678,5.2126,5.2,5.1222,4.964,4.949,4.8837,4.7606,4.6728,4.615,4.5799,4.4895,4.4976,4.5874,4.4811,4.4908,4.5906,4.5786,4.5779,4.5824,4.6887,4.698,4.6459,4.6459,4.683,4.716,4.5933,4.5484,4.5394,0.0,0.0,0.0,0.0,0.0,0.0,0.0,0.0,0.0,0.9361,0.9666,0.9829,0.972,0.9808,0.9659,0.908,1.2175,1.4631,1.5785,1.9387,2.2231,2.3981,2.4623,2.5344,2.6226,2.656,2.672,2.672,2.7028,2.6881,2.6333,2.6306,2.7689,3.029,3.2611,3.5123,3.7824,4.0123,4.1133,4.1172,4.1172,4.0918,4.043,3.959,3.9277,3.916,3.8203,3.6855,3.5776,3.7295,3.7403,3.7431,4.037,4.0949,4.0266,3.9208,3.7813,3.6204,3.4374,3.4048,3.4625,3.6458,3.6681,3.741,0.0,4.148,4.1656,4.4367,4.5422,4.6225,4.7405,4.9012,5.0368,5.1071,5.2126,5.2854,5.2929,5.2929,5.2929,5.2929,5.2929,5.2929,5.2929,5.2929,5.2929,5.2929,5.2929,5.2678,5.2126,5.1649,5.082,4.964,4.9113,4.8109,4.6502,4.6376,4.5547,4.4091,4.394,4.4652,4.6021,4.5313,4.6051,4.7926,4.7346,4.7062,4.7106,4.7266,4.7249,4.7189,4.7189,4.7249,4.7219,4.6471,4.6202,4.6112,0.0,0.0,0.0,0.0,0.0,0.0,0.0,0.0,0.0,0.0,0.9564,0.9707,0.9727,0.9632,0.9361,0.8852,1.123,1.3663,1.5809,1.8752,2.1705,2.4623,2.4943,2.5571,2.6613,2.676,2.6907,2.7081,2.7375,2.7308,2.6894,2.6894,2.8239,3.0671,3.3033,3.5361,3.7819,4.0198,4.1172,4.1172,4.1172,4.0762,4.0059,3.918,3.8066,3.6875,3.5996,3.4746,0.0,3.4099,3.4694,3.5806,3.878,3.9544,3.9235,3.896,3.7964,3.6609,3.5651,3.5102,3.5303,3.7186,3.8216,3.9421,4.1986,4.2886,4.394,4.6401,4.7857,4.9038,5.0142,5.1197,5.195,5.2201,5.2628,5.2929,5.2929,5.2653,5.2201,5.1548,5.1473,5.185,5.2829,5.2929,5.2929,5.2929,5.2628,5.2201,5.1649,5.1096,5.0117,4.8661,4.8083,4.7179,4.5849,4.5171,4.4493,4.379,4.3463,4.432,4.6082,4.5426,4.6054,4.7698,4.7429,4.7309,4.7309,4.7309,4.7309,4.7309,4.7309,4.707,4.6651,4.5992,4.5723,4.5574,0.0,0.0,0.0,0.0,0.0,0.0,0.0,0.0,0.0,0.0,0.949,0.9646,0.9754,0.9496,0.9171,0.8804,1.0548,1.2947,1.578,1.8208,2.1177,2.4789,2.5197,2.5825,2.6921,2.7028,2.7175,2.7388,2.7589,2.7549,2.7268,2.7348,2.8372,3.0194,3.2451,3.4725,3.7162,3.9374,4.053,4.0996,4.0996,4.0332,3.9238,3.8242,3.6387,3.4258,3.373,3.25,3.1094,3.0912,3.1712,3.3283,3.6095,3.7176,3.7508,3.7842,3.7036,3.6031,3.5931,3.5956,3.6411,3.8442,4.03,4.1982,4.3237,4.4568,4.6125,4.8184,4.9565,5.072,5.1699,5.2327,5.2703,5.2703,5.2829,5.2929,5.2929,5.2327,5.1523,5.0544,5.0142,5.0444,5.1674,5.2051,5.2302,5.2452,5.2101,5.1624,5.1071,5.0645,4.964,4.7958,4.7531,4.6753,4.5497,4.4518,4.394,4.379,4.3237,4.3983,4.5834,4.5748,4.6299,4.7309,4.7309,4.7309,4.7309,4.7309,4.7189,4.704,4.704,4.6621,4.5963,4.5274,4.5035,4.4885,0.0,0.0,0.0,0.0,0.0,0.0,0.0,0.0,0.0,0.0,0.0,0.0,0.0,0.934,0.9096,0.8892,1.0508,1.2735,1.5547,1.8019,2.0959,2.4482,2.5478,2.6346,2.7228,2.7522,2.7682,2.7682,2.7696,2.7549,2.7268,2.7549,2.7696,2.7875,3.035,3.2694,3.4894,3.7082,3.8974,4.0547,4.0547,3.9512,3.7851,3.6582,3.4238,3.168,3.209,3.0586,2.85,2.9157,2.9164,2.9423,3.2517,3.4017,3.4831,3.5414,3.4474,3.3445,3.4474,3.5931,3.7789,4.0498,4.283,4.4945,4.6602,4.7405,4.8284,4.9992,5.0393,5.0594,5.1197,5.1749,5.2126,5.2126,5.2578,5.2929,5.2929,5.2,5.1071,5.0494,4.9464,4.8837,4.8887,4.9866,5.072,5.1297,5.1322,5.1046,5.0469,5.0419,4.964,4.7958,4.7883,4.7104,4.5497,4.4895,4.4317,4.379,4.3237,4.3747,4.52,4.6599,4.7252,4.7309,4.7309,4.7309,4.7309,4.7309,4.692,4.6309,4.6309,4.5933,4.5244,4.4586,4.4347,4.4347,0.0,0.0,0.0,0.0,0.0,0.0,0.0,0.0,0.0,0.0,0.0,0.0,0.0,0.0,0.0,0.0,0.9566,1.1077,1.3703,1.5961,1.8565,2.1615,2.3687,2.5291,2.6373,2.6867,2.7308,2.7696,2.7896,2.7749,2.7281,2.7762,2.7883,2.7792,3.0281,3.2612,3.4813,3.7002,3.9123,4.0879,4.0,3.9121,3.8086,3.5644,3.3223,3.0898,0.0,2.7637,2.6173,2.6059,2.6465,2.745,3.0028,3.1205,3.1819,3.2537,3.3445,3.45,3.5956,3.8366,4.1207,4.394,4.6024,4.7606,4.856,4.9188,4.9515,4.9364,4.8736,4.8184,4.8008,4.8435,4.9038,4.9766,5.0996,5.1975,5.2327,5.1749,5.0519,4.8485,4.8209,4.7782,4.6702,4.8259,4.9565,5.0117,5.0167,5.0067,4.9891,4.9515,4.8887,4.7933,4.723,4.6225,4.492,4.4367,4.3614,4.274,4.3494,4.4111,4.4615,4.6456,4.7309,4.7309,4.7309,4.7309,4.7279,4.683,4.6531,4.6249,4.5813,4.5244,4.4616,4.4407,4.4047,4.3618,0.0,0.0,0.0,0.0,0.0,0.0,0.0,0.0,0.0,0.0,0.0,0.0,0.0,0.0,0.0,0.0,0.0,1.0315,1.3147,1.4701,1.7019,2.0273,2.2248,2.3701,2.4676,2.5157,2.5638,2.6132,2.644,2.644,2.6186,2.6667,2.6841,2.6854,2.8561,3.058,3.2904,3.4872,3.675,3.8288,3.7676,3.6836,3.5781,3.3203,3.1094,0.0,2.7266,2.5723,2.4643,2.4581,2.5047,2.6059,2.8339,2.9785,3.0816,3.1755,3.3571,3.5805,3.8065,4.0953,4.3966,4.6552,4.8284,4.9389,4.9565,4.9565,4.9163,4.7857,4.6702,4.5723,4.497,4.5121,4.5723,4.6803,4.8058,4.9439,5.0996,5.0393,4.9364,4.8159,4.7782,4.723,4.6175,4.7179,4.8209,4.8937,4.9188,4.9289,4.9289,4.8962,4.851,4.7933,4.6878,4.5874,4.4945,4.4192,4.3237,4.2187,4.36,4.429,4.4387,4.6369,4.7309,4.7309,4.707,4.695,4.689,4.6232,4.5813,4.5544,4.5125,4.4556,4.3958,4.3958,4.3648,4.329,0.0,0.0,0.0,0.0,0.0,0.0,0.0,0.0,0.0,0.0,0.0,0.0,0.0,0.0,0.0,0.0,0.0,0.0,1.3635,1.4276,1.6279,2.02,2.1086,2.1764,2.2338,2.2659,2.2966,2.3273,2.3567,2.3821,2.4075,2.4369,2.4636,2.4917,2.5224,2.6696,2.9124,3.0868,3.2185,3.3161,3.3715,3.2969,3.1328,2.9551,2.8105,2.6914,2.5986,2.4902,2.3929,2.4545,2.4849,2.5296,2.7458,2.9707,3.173,3.2832,3.4831,3.7412,4.0573,4.3589,4.625,4.841,4.9715,5.0293,4.969,4.8636,4.7305,4.5573,4.4292,4.3112,4.2037,4.1911,4.2389,4.3514,4.4292,4.5899,4.9213,4.8309,4.7883,4.9414,4.8209,4.723,4.7179,4.6728,4.6853,4.7832,0.0,4.8686,4.8686,4.8686,4.8435,4.7832,4.6803,4.5999,4.5397,4.4267,4.3137,4.2112,4.3496,4.4214,4.4332,4.6295,4.7236,4.7219,4.6621,4.6309,4.6219,4.5603,4.4975,4.4377,4.4317,4.3858,4.329,4.329,4.329,4.329,0.0,0.0,0.0,0.0,0.0,0.0,0.0,0.0,0.0,0.0,0.0,0.0,0.0,0.0,0.0,0.0,0.0,0.0,1.0143,1.273,1.4677,1.5732,1.8844,2.0842,2.143,2.1951,2.2352,2.2645,2.2726,2.2579,2.2298,2.2525,2.2592,2.2539,2.2979,2.4468,2.6725,2.841,3.0187,3.1901,3.2099,3.1914,3.1289,2.9238,2.7851,2.6914,2.5986,2.505,2.4284,2.442,2.5483,2.7003,2.8366,3.0602,3.2975,3.3718,3.7145,4.1207,4.3212,4.6426,4.949,5.0896,5.1147,5.0695,4.9314,4.7481,4.5271,4.2384,4.0224,3.8417,3.6885,3.7965,3.9823,4.2238,4.4769,4.7506,5.0444,5.0117,4.959,4.959,4.9213,4.8636,4.7782,4.7983,4.8083,4.7908,4.7682,4.7556,4.7556,4.7556,4.7305,4.6728,4.605,4.5221,4.4242,4.2735,4.163,4.0927,4.1819,4.2787,4.3772,4.5247,4.6124,4.6591,4.692,4.677,4.6279,4.6142,4.5663,4.5005,4.4496,4.3858,4.329,4.329,4.329,4.329,0.0,0.0,0.0,0.0,0.0,0.0,0.0,0.0,0.0,0.0,0.0,0.0,0.0,0.0,0.0,0.0,0.0,0.0,0.0,1.2671,1.4293,1.5571,1.7848,1.9225,1.9559,1.988,2.0201,2.0494,2.0494,2.0468,2.0401,2.0441,2.0508,2.0676,2.1069,2.2024,2.3408,2.5248,2.6856,0.0,0.0,2.8893,2.9101,2.748,2.6699,2.6387,2.5869,2.5547,2.5312,2.5488,2.6637,2.8174,2.9351,3.2117,3.5247,3.679,4.0428,4.4392,4.6301,4.8937,5.1247,5.1649,5.1147,4.9916,4.7506,4.5246,4.266,3.9019,3.696,3.5303,3.3872,3.4826,3.6659,3.9246,4.2007,4.5095,4.8611,4.9213,4.9464,4.9916,5.0167,4.9891,4.8761,4.8937,4.8786,4.7958,4.7631,4.7481,4.7481,4.7029,4.6627,4.6326,4.5296,4.4217,4.3087,4.1932,4.1,4.0501,4.1831,4.2786,4.3551,4.5389,4.6432,4.6741,0.0,4.6681,4.6219,4.5651,4.5214,4.4796,4.4137,4.3618,4.329,4.329,4.329,4.329,0.0,0.0,0.0,0.0,0.0,0.0,0.0,0.0,0.0,0.0,0.8865,0.0,0.0,0.0,0.0,0.0,0.0,0.0,0.0,0.0,1.4502,1.7199,1.7477,1.7582,1.7582,1.7582,1.7702,1.7876,1.7876,1.8115,1.8624,1.837,1.8531,1.9025,1.9319,1.9586,1.9959,2.1949,2.3208,2.3825,2.4545,2.54,2.6211,0.0,0.0,2.5693,2.5693,2.5977,2.6387,2.6992,2.7932,2.9096,3.0422,3.3879,3.7965,4.0517,4.3808,4.7104,4.9238,5.0946,5.2,5.1498,5.0368,4.851,4.5171,4.2585,3.9746,3.5859,3.4274,3.3219,3.2089,3.2466,3.379,3.6229,3.8391,4.1379,4.5899,4.733,4.8535,5.0218,5.087,5.077,4.9791,4.964,4.9163,4.8109,4.7883,4.7732,4.7581,4.6702,4.61,4.5874,4.4392,4.3062,4.2011,4.148,4.1006,4.0689,4.2422,4.3409,4.3834,4.6032,4.7119,4.716,4.6681,4.6369,4.619,4.5065,4.4526,4.4377,4.3678,4.3379,4.329,4.329,4.329,4.329,0.0,0.0,0.0,0.0,0.0,0.0,0.0,0.0,0.0,0.0,0.8825,0.875,0.0,0.0,0.0,0.0,0.0,0.0,0.0,0.0,0.0,1.5689,1.6935,1.7582,1.7582,1.7582,1.7488,1.7353,1.7353,1.7235,1.7088,1.7034,1.7074,1.7181,1.7527,1.7688,1.7808,1.9507,2.0997,2.2208,2.3467,2.4678,2.5791,2.5635,0.0,0.0,2.5693,2.5732,2.6025,2.7578,2.8898,3.0165,3.1486,3.5371,3.978,4.1524,4.5031,4.8736,5.0494,5.1523,5.2076,5.1975,5.0067,4.733,4.4016,4.0827,3.7487,3.3596,3.2265,3.1486,3.0407,3.1386,3.3545,3.7136,3.922,4.2082,4.6954,4.7782,4.8535,5.0218,5.0494,5.0494,5.0293,4.9866,4.9314,4.8661,4.7782,4.6878,4.5949,4.5723,4.4995,4.3614,4.2891,4.1907,4.0802,4.0701,4.0924,4.1426,4.1743,4.3026,4.507,4.5553,4.6006,4.6531,4.695,0.0,4.6249,4.604,4.5633,4.5065,4.4407,4.3768,4.329,4.329,4.329,4.329,0.0,0.0,0.0,0.0,0.0,0.0,0.0,0.856,0.871,0.9008,0.9055,0.9001,0.8845,0.8689,0.8655,0.0,0.0,0.0,0.0,0.0,0.0,0.0,0.0,0.0,1.7582,1.7582,1.7515,1.742,0.0,1.7206,1.7154,1.6847,1.678,1.6991,1.7139,1.7206,1.7271,1.8178,1.9369,2.0743,2.2114,2.3484,0.0,0.0,0.0,0.0,0.0,2.583,2.6269,2.7539,2.8965,3.0566,3.2539,3.6016,3.9885,4.2839,4.5935,4.8895,5.1472,5.2327,5.2402,5.1825,4.9364,4.605,4.2158,3.8693,3.5278,3.1687,3.0758,3.0407,2.988,3.0884,3.2692,3.5429,3.7287,3.9898,4.4292,4.5648,4.6928,4.8887,4.9891,5.0293,5.0017,4.9741,4.9238,4.8385,4.733,4.6476,4.5949,4.4819,4.3689,4.264,4.2007,4.1329,4.0526,4.0526,4.0537,4.0642,4.1985,4.3218,4.4442,4.5779,4.6578,4.686,4.716,4.713,4.677,4.6082,4.5603,4.5185,4.4197,4.3559,4.329,4.329,4.329,4.329,0.0,0.0,0.0,0.0,0.0,0.0,0.0,0.8669,0.8818,0.9173,0.9316,0.9232,0.8912,0.8723,0.8601,0.0,0.0,0.0,0.0,0.0,0.0,0.0,0.0,0.0,0.0,0.0,0.0,1.7582,1.7407,0.0,0.0,0.0,0.0,0.0,1.73,1.73,1.7313,1.7488,1.8551,0.0,0.0,2.2667,0.0,0.0,0.0,0.0,0.0,2.5957,2.6367,2.718,2.834,2.9902,3.2129,3.5445,3.9299,4.3152,4.5913,4.8522,5.1799,5.2829,5.2653,5.1548,4.8686,4.4995,4.0676,3.7036,3.3646,3.0457,2.9804,2.9804,2.9804,3.0482,3.1662,3.3596,3.5002,3.7262,4.1254,4.3237,4.5095,4.7305,4.9038,4.9891,4.9464,4.9314,4.8812,4.7807,4.6527,4.5773,4.5773,4.389,4.2559,4.2007,4.1455,4.0902,4.035,4.035,4.0255,4.0134,4.2398,4.3646,4.3975,4.6255,4.7309,4.7309,4.7309,4.7309,4.7189,4.5843,4.5304,4.5155,4.3798,4.329,4.329,4.329,4.329,4.329,0.0,0.0,0.0,0.0,0.0,0.0,0.0,0.854,0.8818,0.9173,0.9221,0.9117,0.8898,0.8858,0.8791,0.0,0.0,0.0,0.0,0.0,0.0,0.0,0.0,0.0,0.0,0.0,0.0,1.7582,1.7555,0.0,0.0,0.0,0.0,0.0,0.0,1.7542,1.7542,1.7569,0.0,0.0,0.0,0.0,0.0,0.0,0.0,0.0,0.0,2.5713,2.581,2.6348,2.6855,2.748,2.8496,3.2904,3.8146,4.0706,4.4202,4.7967,5.1295,5.2553,5.2653,5.1548,4.841,4.4518,4.0601,3.6734,3.3169,3.0382,2.9804,2.9804,2.9804,2.988,3.0809,3.347,3.4022,3.5655,4.0049,4.2082,4.3966,4.62,4.7908,4.8912,4.8862,4.836,4.7832,4.7255,4.5246,4.4041,4.4041,4.2886,4.1982,4.1376,4.0877,4.0325,3.9772,3.9772,4.0313,4.1468,4.2834,4.4116,4.5252,4.6682,4.7309,4.7309,4.7309,4.7309,0.0,4.5843,4.5304,4.5155,4.3798,4.329,4.329,4.329,4.329,4.329,0.0,0.0,0.0,0.0,0.0,0.0,0.8364,0.8574,0.8852,0.9239,0.9442,0.9462,0.9232,0.9123,0.8872,0.8397,0.0,0.0,0.0,0.0,0.0,0.0,0.0,0.0,0.0,0.0,1.7582,1.7582,1.7582,0.0,0.0,0.0,0.0,0.0,0.0,1.7582,1.7582,1.7582,0.0,0.0,0.0,0.0,0.0,0.0,0.0,0.0,0.0,0.0,2.5713,2.5937,2.6289,2.6562,2.6094,2.8535,3.2461,3.6967,4.0593,4.3991,4.8064,5.0528,5.1674,5.0544,4.7104,4.3137,3.9923,3.5931,3.229,3.0231,2.9804,2.9804,2.9804,2.9804,3.0357,3.2114,3.2114,3.3244,3.6937,3.8041,3.9948,4.384,4.5171,4.6426,4.8083,4.7456,4.6426,4.5221,4.3991,4.3162,4.2836,4.1756,4.1078,4.0852,4.03,3.9923,3.9697,3.9697,3.9929,4.0465,4.2496,4.3787,4.4303,4.6344,4.7309,4.7309,4.7309,4.7309,0.0,4.5843,4.5304,4.5155,4.3798,4.329,4.329,4.329,4.329,4.329,0.0,0.0,0.0,0.0,0.0,0.8126,0.8384,0.8547,0.8771,0.9137,0.9401,0.9652,0.9945,0.9405,0.9164,0.9595,0.9953,0.0,0.0,0.0,0.0,0.0,0.0,0.0,0.0,0.0,1.7582,1.7582,1.7582,1.7582,0.0,0.0,1.7779,1.8199,0.0,0.0,0.0,0.0,0.0,0.0,0.0,0.0,0.0,0.0,0.0,0.0,0.0,0.0,0.0,0.0,0.0,2.5625,2.457,2.5195,2.7399,3.2867,3.6957,4.0632,4.4817,4.8084,5.0092,4.9289,4.5773,4.1806,3.9195,3.5303,3.1763,3.0131,2.9804,2.9804,2.9804,2.9804,3.0105,3.1009,3.0984,3.1838,3.4605,3.5433,3.7287,4.1279,4.2384,4.384,4.6451,4.6326,4.5497,4.4141,4.3237,4.2484,4.1932,4.0877,4.035,4.0501,3.9973,3.9697,3.9697,3.9697,3.9697,3.9749,4.2252,4.3504,4.3598,4.6166,4.7309,4.7309,4.7309,4.7189,0.0,4.5753,4.5185,4.4885,4.3738,4.329,4.329,4.329,4.329,4.329,0.0,0.0,0.0,0.0,0.0,0.0,0.8248,0.8391,0.854,0.8696,0.8797,0.9485,1.1101,0.9617,0.9675,1.2505,1.1057,0.0,0.0,0.0,0.0,0.0,0.0,0.0,0.0,0.0,1.7582,1.7582,1.7582,1.7582,1.7582,1.7582,1.8304,1.9576,0.0,0.0,0.0,0.0,0.0,0.0,0.0,0.0,0.0,0.0,0.0,0.0,0.0,0.0,0.0,0.0,0.0,0.0,0.0,2.3516,2.4029,2.8551,3.379,3.8838,4.216,4.5464,4.7933,4.7933,4.4618,4.0724,3.8517,3.5002,3.1763,3.0131,2.9804,2.9804,2.9804,2.9804,2.998,3.0532,3.106,3.1964,3.3671,3.5353,3.7036,3.8768,3.9873,4.143,4.3639,4.4844,4.5246,4.4669,4.3087,0.0,4.1326,4.03,3.9948,4.0501,3.9973,3.9697,3.9697,3.9697,3.9697,3.9749,4.2252,4.3504,4.3598,4.6166,4.7309,4.7309,4.7309,4.692,0.0,4.5574,4.4915,4.4257,4.3559,4.329,4.329,4.329,4.329,4.329,0.0,0.0,0.0,0.0,0.0,0.0,0.0,0.8241,0.8391,0.8533,0.9479,1.0379,1.0975,1.1133,1.1887,1.3682,1.2302,0.0,0.0,0.0,0.0,0.0,0.0,0.0,0.0,1.7582,1.7689,1.7849,1.7689,1.7689,1.7889,1.8611,1.9161,1.9627,2.059,2.1288,0.0,0.0,0.0,0.0,0.0,0.0,2.6367,0.0,0.0,0.0,0.0,0.0,0.0,0.0,0.0,0.0,0.0,0.0,0.0,2.5853,3.0039,3.4624,3.724,4.0373,4.2685,4.1932,3.9546,3.6937,3.5529,3.3093,3.0859,2.998,2.9804,2.9804,2.9804,2.9804,3.008,3.1009,3.1286,3.1838,3.3144,3.4449,3.6157,3.8642,4.1856,4.4192,4.4895,4.492,4.4669,4.4116,4.2534,4.153,4.13,4.03,3.9772,3.9948,3.9798,3.9697,3.9697,3.9697,3.9697,3.9749,4.2252,4.3504,4.3598,4.6166,4.7309,4.7279,4.683,4.677,4.686,4.5274,4.4766,4.4885,4.3738,4.329,4.329,4.329,4.329,4.329,0.0,0.0,0.0,0.0,0.0,0.0,0.0,0.8514,0.8968,0.9064,1.0287,1.1435,1.2283,1.2257,1.3031,1.5052,1.3637,0.0,0.0,0.0,0.0,0.0,0.0,0.0,1.7569,1.7582,1.7729,1.7995,1.7969,1.8023,1.821,1.9545,2.031,2.0587,2.2062,2.2906,0.0,0.0,0.0,0.0,0.0,0.0,2.6582,0.0,0.0,0.0,0.0,0.0,0.0,0.0,0.0,0.0,0.0,0.0,0.0,0.0,2.8052,3.146,3.3716,3.6576,3.8843,3.8341,3.6558,3.47,3.3796,3.2039,3.0457,2.9905,2.9804,2.9804,2.9804,2.9804,3.0005,3.0683,3.1135,3.1712,3.2616,3.4073,3.5981,3.8567,4.2233,4.4543,4.4543,4.4593,4.4493,4.4141,4.2329,4.1275,4.1275,4.03,3.9697,3.9697,3.9697,3.9697,3.9697,3.9697,3.9697,3.9749,4.1789,4.3026,4.3551,4.5644,4.6844,4.7279,4.686,4.68,0.0,4.5304,4.4766,4.4825,4.3708,4.329,4.329,4.329,4.329,4.329,0.0,0.0,0.0,0.0,0.0,0.0,0.0,0.9312,1.0141,1.0141,1.1268,1.2741,1.4542,1.3183,1.3389,1.6394,0.0,0.0,0.0,0.0,0.0,0.0,0.0,0.0,1.7569,1.7582,1.7742,1.8022,1.8357,1.8559,1.878,2.0504,2.1635,2.2358,2.3854,2.4952,2.5713,2.6172,2.6582,2.6934,2.6543,2.6621,0.0,0.0,0.0,0.0,0.0,0.0,0.0,0.0,0.0,0.0,0.0,0.0,0.0,0.0,0.0,0.0,0.0,3.3973,3.6103,3.6533,3.5127,3.347,3.3011,3.1662,0.0,2.9905,2.9804,2.9804,2.9854,2.9829,2.9804,2.9905,3.0733,3.1587,3.219,3.4279,3.6659,3.8894,4.1505,4.3137,4.3037,4.3991,4.4593,4.4568,4.2504,4.1275,4.1275,4.03,3.9697,3.9697,3.9697,3.9697,3.9697,3.9697,3.9697,3.9749,4.0969,4.2252,4.3551,4.484,4.6121,0.0,4.7249,4.689,4.6219,4.5514,4.4855,4.4257,4.3559,4.329,4.329,4.329,4.329,4.329,0.0,0.0,0.0,0.0,0.0,0.0,0.0,0.0,0.0,0.0,1.2619,1.3582,1.4037,1.4581,1.5204,0.0,0.0,0.0,0.0,0.0,0.0,0.0,0.0,0.0,1.7569,1.7582,1.7849,1.8384,1.8464,1.9361,2.108,2.2488,2.3582,2.4365,2.5745,2.6126,2.5693,2.5791,2.6133,2.6523,2.6426,2.6445,0.0,0.0,0.0,0.0,2.5693,2.5693,0.0,0.0,0.0,0.0,0.0,0.0,0.0,0.0,2.7371,2.8594,2.9982,0.0,3.1888,3.1612,3.1135,3.0733,0.0,3.0256,2.9955,2.9829,2.9804,2.993,3.0357,3.008,3.0055,3.0884,3.1235,3.1738,3.2742,3.6257,3.9396,4.1232,4.3463,4.4568,4.3689,4.4217,4.4443,4.4016,4.2359,4.1275,4.1275,4.03,3.9697,3.9697,3.9697,3.9697,3.9697,3.9697,3.9697,3.9749,4.0969,4.2252,4.3551,4.484,4.6121,4.7279,4.677,4.6429,4.619,4.5035,4.4436,4.4257,4.3559,4.329,4.329,4.329,4.329,4.329,0.0,0.0,0.0,0.0,0.0,0.0,0.0,0.0,0.0,0.0,0.0,1.4758,1.4758,1.5391,0.0,0.0,0.0,0.0,0.0,0.0,0.0,0.0,0.0,1.6981,1.7569,1.7582,1.7876,1.849,1.932,2.0511,2.2024,2.4069,2.5066,2.5213,2.6053,2.6122,2.5693,2.5957,2.6172,2.6387,2.6387,0.0,0.0,0.0,0.0,0.0,2.5693,2.5693,0.0,2.5508,2.5137,2.4687,0.0,0.0,0.0,0.0,2.7626,2.9028,2.9624,3.0005,3.0156,2.9854,2.9804,2.9804,2.9804,2.9804,2.9804,2.9804,2.9804,2.988,3.0181,3.0005,3.0055,3.0909,3.1461,3.2516,3.465,3.7688,4.04,4.2363,4.4041,4.4945,0.0,4.4367,4.4016,4.3463,4.1907,4.0899,4.0899,4.0149,3.9697,3.9697,3.9697,3.9697,3.9697,3.9697,3.9697,3.9697,4.0415,4.169,4.3504,4.421,4.538,4.683,4.6429,4.6142,4.5783,4.4713,4.4295,4.4236,4.3559,4.329,4.329,4.329,4.329,4.329,0.0,0.0,0.0,0.0,0.0,0.0,0.0,0.0,0.0,0.0,0.0,0.0,0.0,0.0,0.0,0.0,0.0,0.0,0.0,0.0,0.0,0.0,1.67,1.6981,1.7569,1.7582,1.7983,1.8809,2.0448,2.182,2.2933,2.5508,2.6352,2.5733,2.5798,2.5752,2.5713,2.6133,2.6289,2.6289,2.6289,0.0,0.0,0.0,0.0,0.0,0.0,0.0,0.0,2.5195,2.4746,2.4304,2.4112,0.0,0.0,0.0,0.0,0.0,2.9804,2.9905,3.0005,2.9829,2.9804,2.9804,2.9804,2.9804,2.9804,2.9804,2.9804,2.9829,2.9905,2.9905,3.0131,3.0758,3.1989,3.3997,3.7236,3.9145,4.0927,4.2861,4.4166,0.0,4.5095,4.4317,4.3539,4.2911,4.1404,4.0526,4.0526,3.9998,3.9697,3.9697,3.9697,3.9697,3.9697,3.9697,3.98,3.9981,3.9981,4.1319,4.3787,4.3676,4.4595,4.6279,4.6202,0.0,4.5083,4.4523,4.4244,4.4105,4.3489,4.329,4.329,4.329,4.329,4.329,0.0,0.0,0.0,0.0,0.0,0.0,0.0,0.0,0.0,0.0,0.0,0.0,0.0,0.0,0.0,0.0,0.0,0.0,0.0,0.0,0.0,1.6673,1.67,1.6981,1.7569,1.7582,1.845,2.0179,2.1212,2.3167,2.6042,2.7115,2.7511,2.7336,2.6598,2.6074,2.5693,2.5752,2.5791,2.5791,2.5791,0.0,0.0,0.0,0.0,0.0,0.0,0.0,0.0,2.5145,2.4551,2.4047,2.4883,0.0,0.0,0.0,0.0,0.0,2.9804,3.0457,3.0934,3.003,2.9804,2.9804,2.9804,2.9804,2.9804,2.9804,2.9804,2.993,3.0407,3.0482,3.0809,3.1813,3.4098,3.6759,3.9597,4.143,4.276,4.3589,4.507,4.5347,4.3539,4.3639,4.3388,4.2414,4.1178,4.0526,4.0526,3.9998,3.9697,3.9697,3.9697,3.9697,3.9697,3.9697,4.0211,4.1319,4.1319,4.2641,4.5087,4.4526,4.5025,4.6249,0.0,4.5083,4.4463,4.4333,4.3956,4.3469,4.3349,4.329,4.329,4.329,4.329,4.329,0.0,0.0,0.0,0.0,0.0,0.0,0.0,0.0,0.0,0.0,0.0,0.0,0.0,0.0,0.0,0.0,0.0,0.0,0.0,0.0,1.6086,1.6673,1.7385,1.8067,1.8641,1.9141,2.0282,2.2071,2.3756,2.5552,2.7404,2.7884,2.7774,2.7285,2.6426,2.5869,2.5693,2.5693,2.5693,2.5693,0.0,0.0,0.0,0.0,0.0,0.0,0.0,0.0,0.0,0.0,2.4121,2.3974,2.4817,0.0,0.0,0.0,0.0,0.0,2.9804,3.0156,3.0482,3.0281,3.0457,3.0507,2.993,2.9804,2.9804,2.9804,2.9804,2.9955,3.0507,3.1085,3.224,3.4525,3.6483,3.8391,4.0249,4.143,4.2815,4.4767,0.0,4.5953,4.5656,4.4666,4.353,4.2395,4.092,4.0074,4.0074,3.9823,3.9697,3.9697,3.9697,3.9546,3.9245,3.9245,3.9853,4.1093,4.1748,4.2887,4.4307,4.4394,4.469,4.5173,0.0,4.4385,4.3787,4.3787,4.3578,4.329,4.329,4.329,4.3359,4.3688,4.3588,4.3459,0.0,0.0,0.0,0.0,0.0,0.0,0.0,0.0,0.0,0.0,0.0,0.0,0.0,0.0,0.0,0.0,0.0,0.0,0.0,1.5784,1.623,1.7122,1.8163,1.911,2.0009,2.091,2.2295,2.4145,2.6109,2.7506,2.8381,2.8336,2.7832,2.6973,2.6181,2.5791,2.5693,2.5693,2.5693,2.5693,0.0,0.0,0.0,0.0,0.0,0.0,0.0,0.0,0.0,0.0,0.0,0.0,0.0,0.0,0.0,2.8187,2.9106,2.9804,2.9804,2.998,3.0206,3.0382,3.0708,3.0934,3.0633,3.0457,3.0432,3.0708,3.0658,3.0658,3.0934,3.1989,3.3721,3.6533,3.8266,3.9647,4.0752,4.1749,4.3313,4.5891,4.6404,4.6867,4.7631,4.5865,4.4013,4.249,4.1028,4.0134,4.0134,3.9826,3.9826,4.0134,3.97,3.9448,3.9296,3.9017,3.9556,4.0872,4.184,4.2851,4.3863,4.4211,4.4334,4.4317,4.4146,4.3787,4.329,4.329,4.329,4.329,4.329,4.3389,4.3588,4.4127,4.3978,4.3786,0.0,0.0,0.0,0.0,0.0,0.0,0.0,0.0,0.0,0.0,0.0,0.0,0.0,0.0,0.0,0.0,0.0,0.0,0.0,1.5784,1.6601,1.8479,1.8641,1.9541,2.1233,2.2253,2.3965,2.6457,2.7115,2.8163,2.9478,2.8657,2.7832,2.6992,2.6543,2.6113,2.5693,2.5693,2.5693,2.5693,2.5693,0.0,0.0,0.0,0.0,0.0,0.0,0.0,0.0,0.0,0.0,0.0,0.0,0.0,2.8227,2.9326,2.974,2.9804,2.9804,3.0507,3.106,3.0105,2.988,3.0432,3.239,3.2416,3.234,3.3395,3.3194,3.2692,3.219,3.3445,3.4951,3.6254,3.8668,4.0777,4.1936,4.41,4.5834,4.6576,4.7812,4.8183,4.716,4.6393,4.4959,4.2592,4.1834,4.1468,4.1468,4.0364,4.0211,4.1419,3.9802,3.9421,4.0455,3.9428,3.9841,4.1627,4.1718,4.2947,4.515,4.4583,4.4325,4.4287,4.3648,4.3349,4.329,4.329,4.329,4.329,4.329,4.3688,4.4227,4.4257,4.4269,4.434,0.0,0.0,0.0,0.0,0.0,0.0,0.0,0.0,0.0,0.0,0.0,0.0,0.0,0.0,0.0,0.0,0.0,0.0,0.0,1.6527,1.7461,1.8528,2.02,2.1876,2.3502,2.4522,2.6136,2.8518,2.8993,2.9028,2.8769,2.8184,2.7441,2.6602,2.6172,2.5898,2.5693,2.5693,2.5693,2.5693,2.5693,2.5693,0.0,0.0,0.0,0.0,0.0,0.0,0.0,0.0,2.4612,2.5126,2.6953,2.7763,2.8307,2.9443,2.9804,2.9804,2.9804,3.008,3.0382,3.0331,3.0055,3.0281,3.2114,3.2365,3.2441,3.3219,3.3771,3.4148,3.4229,3.5353,3.6609,3.7788,3.9396,4.1322,4.3638,4.475,4.6357,4.9019,4.9089,4.8909,4.8992,4.7348,4.5712,4.4394,4.3328,4.2786,4.2786,4.193,4.1356,4.1112,4.0723,4.0171,3.9544,3.9857,4.0553,4.1667,4.2036,4.2881,4.4077,4.4257,4.4077,4.3648,4.3409,4.329,4.329,4.329,4.329,4.329,4.329,4.3688,4.4368,4.478,4.4942,4.5067,0.0,0.0,0.0,0.0,0.0,0.0,0.0,0.0,0.0,0.0,0.0,0.0,0.0,0.0,0.0,0.0,0.0,0.0,1.6386,1.7217,1.8253,1.9526,2.1419,2.3256,2.5039,2.6045,2.7555,2.9626,2.9863,2.9414,2.8281,2.7715,2.7148,2.6562,2.5996,2.5771,2.5937,2.5752,2.5693,2.5693,2.5693,2.5693,0.0,0.0,0.0,0.0,0.0,0.0,0.0,0.0,2.5252,2.6108,2.7643,2.8347,2.8806,2.9585,2.9804,2.9804,2.9804,2.9804,2.988,3.0256,3.0331,3.0783,3.2591,3.3018,3.3319,3.4399,3.4675,3.4831,3.5408,3.6157,3.718,3.8707,3.9854,4.1486,4.4359,4.494,4.628,4.9416,4.9348,4.9216,4.9582,4.8024,4.6567,4.5492,4.4411,4.3789,4.3789,4.2787,4.1852,4.1126,4.1205,4.0659,3.9459,4.0131,4.1012,4.2152,4.2231,4.2648,4.3319,4.3768,4.3708,4.329,4.329,4.329,4.329,4.329,4.329,4.3319,4.3558,4.4027,4.469,4.5361,4.5636,4.5752,0.0,0.0,0.0,0.0,0.0,0.0,0.0,0.0,0.0,0.0,0.0,0.0,0.0,0.0,0.0,0.0,0.0,0.0,1.7638,1.7731,1.9031,2.1869,2.2025,2.3168,2.5635,2.6562,2.7832,2.9607,2.9607,2.9121,2.8262,2.7402,2.7012,2.6973,2.6064,2.5977,2.6348,2.5918,2.5693,2.5693,2.5693,2.5693,2.5693,0.0,0.0,0.0,0.0,0.0,0.0,0.0,2.6273,2.8084,2.8124,2.8885,2.9804,2.9804,2.9804,2.9804,2.9804,2.9804,2.9804,2.9804,3.0608,3.1989,3.4223,3.468,3.5353,3.7563,3.6257,3.4881,3.5433,3.5533,3.6324,3.8701,3.9849,4.1389,4.395,4.4863,4.579,4.7071,4.8466,4.906,4.8356,4.8267,4.7481,4.5537,4.4813,4.4422,4.4394,4.2576,4.1562,4.1681,4.1073,4.0741,4.0697,4.0189,4.1071,4.329,4.215,4.2233,4.329,4.329,4.329,4.329,4.329,4.329,4.329,4.329,4.329,4.3359,4.4027,4.4688,4.5394,4.6045,4.628,4.6383,0.0,0.0,0.0,0.0,0.0,0.0,0.0,0.0,0.0,0.0,0.0,0.0,0.0,0.0,0.0,0.0,0.0,0.0,1.7684,1.9268,2.0619,2.1482,2.2651,2.3602,2.4355,2.546,2.6953,2.8672,2.8672,2.8086,2.6953,2.6992,2.6699,2.6064,2.6172,2.6094,2.5918,2.5752,2.5693,2.5693,2.5693,2.5693,2.5693,0.0,0.0,0.0,0.0,0.0,0.0,0.0,0.0,0.0,2.9028,2.9546,2.9804,2.9804,2.9804,2.9804,2.9804,2.9804,2.988,3.0281,3.1185,3.2441,3.4254,3.468,3.5353,3.7563,3.7186,3.6609,3.7186,3.7287,3.7459,3.8199,3.8943,4.0591,4.3938,4.4602,4.5701,4.8362,4.8611,4.8506,4.8297,4.7878,4.7179,4.6105,4.5868,4.55,4.5069,4.4053,4.3124,4.2366,4.2473,4.2125,4.1341,4.1951,4.2659,4.329,4.296,4.296,4.329,4.329,4.329,4.329,4.329,4.329,4.329,4.329,4.329,4.3319,4.3489,4.4295,4.5268,4.4995,4.5781,4.694,0.0,0.0,0.0,0.0,0.0,0.0,0.0,0.0,0.0,0.0,1.5784,1.5784,0.0,0.0,0.0,0.0,0.0,0.0,1.9085,2.0477,2.1525,2.1987,2.298,2.3691,2.4023,2.5332,2.6328,2.7012,2.7539,2.7305,2.6406,2.6816,2.6738,2.62,2.6523,2.6484,2.623,2.6574,2.6318,2.5742,2.6235,2.6428,2.6428,0.0,0.0,0.0,0.0,0.0,0.0,0.0,0.0,0.0,2.9585,2.9804,2.9804,2.9804,2.9804,2.9804,2.9804,2.9804,2.998,3.0733,3.1913,3.3319,3.5002,3.5881,3.681,3.8366,3.7889,3.7437,3.8191,3.7789,3.7682,3.8623,3.9285,4.0788,4.4059,4.4697,4.5785,4.8194,4.8147,4.7788,4.7549,4.716,4.6621,4.5963,4.5663,4.5334,4.4915,4.4047,4.2998,4.183,4.2296,4.209,4.1188,4.2366,4.306,4.329,4.329,4.329,4.329,4.329,4.329,4.329,4.329,4.329,4.329,4.329,4.329,4.3319,4.3588,4.4176,4.4882,4.4743,4.5465,4.6496,0.0,0.0,0.0,0.0,0.0,0.0,0.0,0.0,0.0,0.0,1.5927,1.5974,0.0,0.0,0.0,0.0,0.0,0.0,0.0,2.1391,2.1943,2.3057,2.314,2.353,2.4394,2.5547,2.5801,2.5106,2.6348,2.6719,2.6269,2.6777,2.6992,2.6953,2.7094,2.7125,2.7168,2.7958,2.7448,2.6159,2.7315,2.7767,2.7767,2.7767,0.0,0.0,0.0,0.0,0.0,0.0,0.0,0.0,2.9804,2.9804,2.9804,2.9804,2.9804,2.9804,2.9804,2.9829,3.0131,3.1185,3.2792,3.455,3.6204,3.7737,3.8919,3.932,3.8266,3.7563,3.8642,3.7586,3.7238,3.938,4.0298,4.1551,4.3995,4.487,4.5694,4.697,4.713,4.689,4.6249,4.619,4.5933,4.5244,4.4586,4.4197,4.4137,4.294,4.1824,4.0729,4.1145,4.1183,4.0665,4.1764,4.2599,4.314,4.311,4.315,4.312,4.323,4.329,4.329,4.329,4.329,4.329,4.329,4.329,4.3359,4.3957,4.4218,4.4368,4.492,4.5221,4.5391,0.0,0.0,0.0,0.0,0.0,0.0,0.0,0.0,0.0,0.0,0.0,0.0,0.0,0.0,0.0,0.0,0.0,0.0,0.0,2.2164,2.2818,2.3101,2.3457,2.3887,2.4414,2.4375,2.459,2.5106,2.6035,2.6113,2.5371,2.6484,2.6836,2.6593,2.7873,2.826,2.8007,2.8795,2.8954,2.8634,2.8912,2.9004,2.9004,2.9004,2.9761,0.0,0.0,0.0,0.0,0.0,0.0,0.0,2.9804,2.9804,2.9804,2.9804,2.9804,2.9804,2.9804,3.0105,3.0708,3.1763,3.3947,3.6204,3.7362,3.7939,3.799,3.7285,3.7487,3.7889,3.814,3.7889,3.7811,3.8333,3.931,4.0582,4.2129,4.3158,4.4284,4.5597,4.5723,4.5663,4.5514,4.5514,4.5244,4.4586,4.3888,4.3329,4.286,4.2051,4.1501,4.1263,4.1338,4.1343,4.1232,4.1466,4.1675,4.1811,4.1786,4.182,4.1844,4.283,4.329,4.329,4.329,4.329,4.329,4.329,4.329,4.329,4.3459,4.3808,4.4246,4.3868,4.4387,4.5226,0.0,0.0,0.0,0.0,0.0,0.0,0.0,0.0,0.0,0.0,0.0,0.0,0.0,0.0,0.0,0.0,0.0,0.0,0.0,0.0,2.3198,2.3437,2.3867,2.4102,2.4121,2.4297,2.4716,2.5331,2.6195,2.6519,2.6324,2.7751,2.8335,2.8195,2.9251,2.9499,2.912,2.9873,2.9715,2.906,2.9645,2.9708,2.9523,2.9777,3.0481,3.1205,3.0358,0.0,0.0,0.0,0.0,0.0,0.0,0.0,2.9804,2.9804,2.9804,2.9804,2.9804,3.0005,3.0683,3.2566,3.45,3.6257,3.7362,3.7412,3.6985,3.6132,3.7061,3.8015,3.8015,3.7789,3.7613,3.7613,3.9123,4.0513,4.1194,4.3026,4.4575,4.5191,4.5304,4.5155,4.4855,4.4526,4.4077,4.3419,4.2761,4.2252,4.1961,4.1287,4.0912,4.0918,4.0599,4.0606,4.0939,4.0919,4.1078,4.1414,4.14,4.1415,4.1445,4.2404,4.3021,4.329,4.329,4.329,4.329,4.329,4.329,4.329,4.329,4.3529,4.3787,4.3439,4.3738,4.4347,0.0,0.0,0.0,0.0,0.0,0.0,0.0,0.0,0.0,0.0,0.0,0.0,0.0,0.0,0.0,0.0,0.0,0.0,0.0,0.0,0.0,2.3769,2.4121,2.418,2.3906,2.4512,2.5157,2.5693,2.6653,2.7494,2.8236,2.9443,2.9972,3.0041,3.0656,3.0638,3.0235,3.0913,3.0376,2.9164,3.0166,3.0313,2.9978,3.0409,3.0905,3.1311,3.0809,3.0608,3.0557,3.008,0.0,0.0,0.0,0.0,2.9804,2.9804,2.9804,2.9804,2.9804,2.993,3.0658,3.3144,3.4525,3.5483,3.6533,3.6408,3.5956,3.5458,3.6511,3.7563,3.7462,3.7061,3.6855,3.702,3.8868,4.0403,4.0562,4.3018,4.4796,4.4796,4.4885,4.4706,4.4047,4.3479,4.288,4.2291,4.1632,4.1235,4.1235,4.0592,4.0256,4.0256,3.9666,3.9697,4.0215,4.0245,4.051,4.1069,4.1069,4.1115,4.1235,4.1811,4.2436,4.311,4.311,4.32,4.329,4.329,4.329,4.329,4.329,4.329,4.329,4.329,4.329,4.3379,0.0,0.0,0.0,0.0,0.0,0.0,0.0,0.0,0.0,0.0,2.0387,2.106,0.0,0.0,0.0,0.0,0.0,0.0,0.0,0.0,0.0,2.3769,2.3848,2.4023,2.4316,2.4082,2.4651,2.602,2.7327,2.8898,3.0687,3.0214,2.9972,3.0019,3.1229,3.1385,3.0913,3.1706,3.1655,3.1034,3.1199,3.1231,3.1182,3.1256,3.1313,3.1311,3.0809,3.0608,3.0608,3.0532,3.0181,0.0,0.0,0.0,2.9804,2.9804,2.9804,2.9804,2.9804,3.0482,3.1486,3.2842,3.3646,3.4274,3.4901,3.5002,3.4926,3.4806,3.5332,3.5683,3.5253,3.5102,3.5345,3.6278,3.7574,3.8755,3.9617,4.1538,4.28,4.28,4.324,4.3329,4.271,4.259,4.2261,4.1602,4.0905,4.0539,4.0554,3.9905,3.9523,3.9523,3.9433,3.9439,3.9535,3.9535,3.9595,3.9685,3.9685,3.9948,4.0546,4.0629,4.1316,4.253,4.253,4.2821,4.329,4.329,4.329,4.329,4.329,4.329,4.329,4.329,4.329,4.329,0.0,0.0,0.0,0.0,0.0,0.0,0.0,0.0,0.0,0.0,0.0,2.2315,0.0,0.0,0.0,0.0,0.0,0.0,0.0,0.0,0.0,2.3769,2.3555,2.3633,2.4062,2.4279,2.5159,2.6759,2.8279,3.0157,3.2264,3.2219,3.2189,3.2189,3.2755,3.271,3.2166,3.1863,3.1612,3.1361,3.106,3.0758,3.0532,3.0834,3.0758,3.0457,3.0231,3.0156,3.0156,3.0156,3.0005,2.9829,3.008,0.0,0.0,0.0,2.9804,2.9804,2.9804,3.0131,3.0758,3.1863,3.2315,3.2717,3.3596,3.4048,3.4173,3.3872,3.4248,3.465,3.468,3.468,3.506,3.6131,3.6796,3.777,3.9367,4.0371,4.1194,4.1765,4.2073,4.2132,4.1871,4.1512,4.0995,4.0337,3.9649,3.929,3.929,3.9026,3.8853,3.8843,3.9212,3.923,3.8816,3.92,3.9373,3.9373,3.9373,3.9559,3.9858,3.9858,4.0576,4.1841,4.1841,4.1983,4.2252,4.2641,4.2791,4.2821,4.314,4.329,4.329,4.329,4.329,4.329,0.0,0.0,0.0,0.0,0.0,0.0,0.0,0.0,0.0,0.0,0.0,0.0,0.0,0.0,0.0,0.0,0.0,0.0,0.0,0.0,0.0,2.3613,2.332,2.3413,2.4038,2.4547,2.5677,2.7524,2.8868,3.0712,3.2867,3.342,3.3771,3.3897,3.4048,3.3646,3.2792,3.1964,3.1436,3.116,3.0608,3.0156,2.9829,3.0256,3.0156,2.9804,2.9804,2.9804,2.9804,2.9955,2.9905,2.9804,2.9955,2.9905,0.0,0.0,0.0,2.9754,2.9603,2.9578,2.9754,3.0557,3.0884,3.1235,3.224,3.2867,3.3144,3.2742,3.2968,3.3395,3.3796,3.4123,3.4717,3.6072,3.6342,3.718,3.9225,3.979,4.0255,4.104,4.1294,4.1324,4.1145,4.0546,3.9888,3.92,3.8536,3.8207,3.8407,3.8383,3.8389,3.8405,3.8892,3.8816,3.8132,3.8781,3.926,3.9373,3.9373,3.9373,3.9373,3.9373,3.9948,4.0876,4.1055,4.1235,4.1452,4.1961,4.2261,4.244,4.291,4.314,4.329,4.329,4.329,4.329,0.0,0.0,0.0,0.0,0.0,0.0,0.0,0.0,0.0,0.0,0.0,0.0,2.3101,2.3101,2.3101,2.3101,2.3101,0.0,0.0,0.0,0.0,2.314,2.3101,0.0,2.4701,2.4808,2.588,2.8051,2.8655,3.0087,3.2265,3.2842,3.3395,3.3922,3.4449,3.3771,3.2265,3.219,3.1587,3.0608,3.0055,2.9804,2.9804,2.9829,2.9804,2.9804,2.9804,2.9804,2.988,3.0407,3.0231,2.988,3.0407,3.0206,2.9804,0.0,0.0,0.0,2.9088,2.8938,2.8938,2.9013,2.9478,3.003,3.0608,3.1135,3.1512,3.1486,3.1486,3.1537,3.1562,3.2441,3.3845,3.5856,3.6215,3.6989,3.9106,3.9964,4.042,4.0457,4.0995,4.1145,4.0516,3.9858,3.917,3.8482,3.7828,3.7739,3.8377,3.8383,3.8412,3.8377,3.8437,3.8132,3.7464,3.8123,3.8781,3.9373,3.9373,3.9373,3.9373,3.9373,3.9469,3.9559,4.0187,4.0816,4.1422,4.1452,4.1841,4.241,4.244,4.2791,4.329,4.329,4.329,4.329,0.0,0.0,0.0,0.0,0.0,0.0,0.0,0.0,0.0,0.0,0.0,0.0,0.0,2.3101,2.3101,2.3101,2.3101,0.0,0.0,0.0,0.0,2.4168,2.4168,2.4702,2.588,2.6584,2.7296,2.8084,2.9342,3.0571,3.1712,3.2641,3.3194,3.3395,3.3947,3.347,3.219,3.1838,3.126,3.0557,3.0005,2.9804,2.9804,2.9804,2.9804,2.9804,2.9804,2.9804,2.9829,3.003,2.9955,2.9829,3.003,2.9955,2.9804,2.9804,2.9804,2.9654,2.9038,2.8637,2.8398,2.8398,2.8298,2.8323,2.8875,2.9704,3.0357,3.0357,3.0909,3.1386,3.1386,3.1712,3.2603,3.4353,3.4647,3.5398,3.7432,3.831,3.8649,3.8501,3.905,3.92,3.8542,3.8272,3.7849,3.7246,3.6969,3.6952,3.7164,3.7191,3.7187,3.7198,3.7571,3.7614,3.7404,3.8063,3.8512,3.8751,3.92,3.9373,3.9373,3.9373,3.9373,3.9403,3.9679,3.9918,4.0157,4.0576,4.0876,4.1175,4.2081,4.253,4.2761,4.314,4.329,4.329,0.0,0.0,0.0,0.0,0.0,0.0,0.0,0.0,2.3101,2.3101,0.0,0.0,0.0,0.0,2.3101,2.3101,2.3101,2.3101,2.3101,2.3474,2.3996,2.4787,2.5168,2.588,2.6994,2.7723,2.8307,2.8688,2.9777,3.0608,3.116,3.1888,3.234,3.2516,3.2893,3.2742,3.219,3.1813,3.126,3.0557,3.0005,2.9804,2.9804,2.9804,2.9804,2.9804,2.9804,2.9804,2.9804,2.9804,2.9804,2.9804,2.9804,2.9804,2.9804,2.9804,2.9804,2.9654,2.9038,2.8524,2.8097,2.8097,2.7695,2.7419,2.7971,2.8699,2.9277,2.9478,3.0055,3.0633,3.0809,3.0859,3.1462,3.3238,3.378,3.4574,3.6298,3.7179,3.7615,3.7425,3.7793,3.7883,3.7434,3.7225,3.6922,3.6522,3.6287,3.6274,3.6511,3.6514,3.6507,3.6501,3.6697,3.6866,3.7105,3.7524,3.7973,3.8392,3.8841,3.92,3.9373,3.9373,3.9373,3.9373,3.9373,3.9373,3.9403,3.9888,4.0217,4.0487,4.1392,4.2021,4.244,4.2851,4.315,4.329,0.0,0.0,0.0,0.0,0.0,0.0,0.0,0.0,2.3101,2.3101,0.0,0.0,0.0,0.0,0.0,2.3125,2.3169,2.3188,2.3125,2.4211,2.4872,2.4914,0.0,0.0,2.8148,2.8124,2.8688,2.9804,2.9804,3.0055,3.0583,3.0608,3.0884,3.1361,3.1386,3.1687,3.2164,3.2164,3.1562,3.0532,3.0005,2.9804,2.9804,2.9804,2.9804,2.9804,2.9804,2.9804,2.9804,2.9804,2.9804,2.9804,2.9804,2.9804,2.9804,2.9804,2.9804,2.9654,0.0,0.0,0.0,2.8097,2.767,2.7419,2.7946,2.8072,2.8222,2.8737,2.8863,2.9038,2.9654,2.9754,3.0456,3.2568,3.3745,3.4762,3.5777,3.6792,3.7404,3.7375,3.7375,3.7375,3.7345,3.6806,3.6473,3.6462,3.5842,3.5767,3.6451,3.6484,3.6466,3.6447,3.5848,3.5818,3.6447,3.6477,3.7105,3.8332,3.8362,3.8751,3.9379,3.9373,3.9373,3.9373,3.9373,3.9373,3.9373,3.9373,3.9798,4.0367,4.0397,4.1205,4.2381,4.241,4.2791,4.329,0.0,0.0,0.0,0.0,0.0,2.3101,2.3101,2.3101,2.3101,0.0,0.0,0.0,2.3101,2.3844,2.4339,2.4339,2.5083,2.5231,2.4382,2.5378,2.6378,2.7134,2.7481,2.8187,2.9326,2.9326,2.9482,2.9804,2.9804,2.988,3.003,3.0432,3.0683,3.0859,3.1235,3.126,3.106,3.106,3.0658,3.0005,2.9854,2.9804,2.9804,2.9804,2.9804,2.9804,2.9804,2.9804,2.9804,2.9804,2.9804,2.9804,2.9804,2.9804,2.9804,2.9804,2.9804,2.9654,2.9038,0.0,0.0,0.0,0.0,0.0,2.7002,2.7218,2.7544,2.772,2.8047,2.8499,2.9076,2.9139,2.9479,3.0534,3.2466,3.39,3.4083,3.6015,3.7075,3.6148,3.6447,3.6567,3.6088,3.5878,3.5789,0.0,3.5576,3.5582,3.5767,3.5759,3.5786,3.5789,3.5609,3.5579,3.5759,3.6237,3.6656,3.7015,3.7943,3.8482,3.8691,3.92,3.9373,3.9373,3.9373,3.9373,3.9373,3.9373,3.9493,3.9798,4.0726,4.1324,4.1811,4.2701,4.314,4.329,0.0,0.0,0.0,0.0,0.0,2.3418,2.3418,2.3418,2.3531,0.0,0.0,0.0,2.4467,2.5317,2.5763,2.5526,2.611,2.6213,2.5546,2.6543,2.7441,2.8084,2.8569,2.9106,2.9804,2.9804,2.9804,2.9804,2.9804,2.9804,2.9804,3.0131,3.0281,3.0281,3.0583,3.0557,3.0281,3.0281,3.008,2.9804,2.9804,2.9804,2.9804,2.9804,2.9804,2.9804,2.9804,2.9804,2.9804,2.9804,2.9804,2.9804,2.9804,2.9804,2.9804,2.9804,2.9804,2.9704,2.9377,2.9063,2.8787,2.8423,0.0,0.0,2.7203,2.7077,2.7027,2.7243,2.7544,2.7921,2.8473,2.8574,2.8887,2.9895,3.1629,3.2913,3.3054,3.4737,3.5832,3.5547,3.5848,3.5938,3.5549,3.5519,3.5519,3.5519,3.5519,3.5519,3.5519,3.5519,3.5519,3.5519,3.5519,3.5519,3.5519,3.5878,3.6357,3.6866,3.7614,3.8272,3.8841,3.923,3.9373,3.9373,3.9373,3.9373,3.9373,3.9373,3.9589,3.9918,4.0666,4.1294,4.1931,4.2641,4.309,4.329,0.0,0.0,2.3144,2.3359,2.3737,2.4058,2.4252,2.4257,2.4529,0.0,2.5337,2.5485,2.6565,2.7114,2.7205,2.6712,2.6812,2.6812,2.6689,2.7683,2.8307,2.8307,2.9287,2.9804,2.9804,2.9804,2.9804,2.9804,2.9804,2.9804,2.9804,2.9804,2.9804,2.9804,2.9804,2.9804,2.9804,2.9804,2.9804,2.9804,2.9804,2.9804,2.9804,2.9804,2.9804,2.9804,2.9804,2.9804,2.9804,2.9804,2.9804,2.9804,2.9804,2.9804,2.9804,2.9804,2.9804,2.9804,2.9804,2.9428,2.9088,2.9578,2.8574,0.0,2.7921,2.7243,2.67,2.7128,2.7228,2.7404,2.7921,2.8021,2.8489,2.9912,3.0877,3.1763,3.2616,3.3567,3.4509,3.5392,3.5519,3.5519,3.5519,3.5519,3.5519,3.5519,3.5519,3.5519,3.5519,3.5519,3.5519,3.5519,3.5519,3.5519,3.5519,3.5519,3.6088,3.7195,3.7345,3.8033,3.9164,3.9313,3.9373,3.9373,3.9373,3.9373,3.9373,3.9373,3.9768,4.0307,4.0457,4.1235,4.2321,4.244,4.2851,4.329,0.0,2.3101,2.3549,2.49,2.5199,2.5693,2.7042,2.691,2.6843,2.75,2.7101,2.7076,2.773,2.7898,2.7921,2.7827,2.8609,2.8791,2.7844,2.8846,2.9482,2.9482,2.9663,2.9804,2.9804,2.9804,2.9804,2.9804,2.9804,2.9804,2.9804,2.9804,2.9804,2.9804,2.9804,2.9804,2.9804,2.9804,2.9804,2.9804,2.9804,2.9804,2.9804,2.9804,2.9804,2.9804,2.9804,2.9804,2.9804,2.9804,2.9804,2.9804,2.9804,2.9804,2.9804,2.9804,2.9804,2.9804,2.9804,2.9704,2.9553,2.9176,2.8813,0.0,2.762,2.7268,2.7052,2.6725,2.665,2.6826,2.7379,2.7444,2.7691,2.8428,2.9043,3.0434,3.3344,3.4576,3.5294,3.5457,3.5519,3.5519,3.5519,3.5519,3.5519,3.5519,3.5519,3.5519,3.5519,3.5519,3.5519,3.5519,3.5519,3.5519,3.5519,3.5519,3.5639,3.5878,3.6926,3.7554,3.7823,3.8931,3.9373,3.9373,3.9373,3.9373,3.9373,3.9373,3.9499,3.9709,4.0786,4.1354,4.1713,4.2761,4.32,4.329,2.3844,2.3973,2.4483,2.6174,2.6389,2.6714,2.7806,2.7557,2.7502,2.8345,2.8727,2.897,2.8958,2.9169,2.9242,2.8973,2.9482,2.9585,2.8988,2.9482,2.9804,2.9804,2.9804,2.9804,2.9804,2.9804,2.9804,2.9804,2.9804,2.9804,2.9804,2.9804,2.9804,2.9804,2.9804,2.9804,2.9804,2.9804,2.9804,2.9804,2.9804,2.9804,2.9804,2.9804,2.9804,2.9804,2.9804,2.9804,2.9804,2.9804,2.9804,2.9804,2.9804,2.9804,2.9804,2.9804,2.9804,2.9804,2.9804,2.9804,2.9729,2.9428,2.9113,0.0,0.0,2.7896,2.7544,2.7027,2.6901,2.6901,2.6901,2.6901,2.7319,2.8569,2.9467,3.0902,3.3608,3.4031,3.4409,3.5392,3.5519,3.5519,3.5519,3.5519,3.5519,3.5519,3.5519,3.5519,3.5519,3.5519,3.5519,3.5519,3.5519,3.5519,3.5519,3.5519,3.5669,3.5998,3.6956,3.7584,3.7943,3.896,3.9373,3.9373,3.9373,3.9373,3.9373,3.9373,3.9373,3.9529,4.0516,4.1085,4.1542,4.2491,4.2851,4.288,2.4957,2.5126,2.5655,2.7321,2.7538,2.7697,2.8454,2.8111,2.806,2.8872,3.0022,3.0507,2.9854,3.0281,3.0482,3.0131,2.9905,2.988,3.008,2.9905,2.9804,2.9804,2.9804,2.9804,2.9804,2.9804,2.9804,2.9804,2.9804,2.9804,2.9804,2.9804,2.9804,2.9804,2.9804,2.9804,2.9779,2.9679,2.9679,2.9779,2.9679,2.9704,2.9804,2.9804,2.9804,2.9804,2.9804,2.9804,2.9804,2.9804,2.9934,3.0024,2.9856,2.9934,3.0024,2.9856,2.9934,3.0062,3.0062,3.0062,3.0062,3.0062,2.958,2.9038,0.0,0.0,0.0,2.7544,2.7444,2.7293,2.6901,2.6826,0.0,2.9197,0.0,0.0,0.0,3.3269,0.0,3.5294,3.5519,3.5519,3.5519,3.5519,3.5519,3.5519,3.5519,3.5519,3.5519,3.5519,3.5519,3.5519,3.5519,3.5519,3.5519,3.5519,3.5848,3.6507,3.7105,3.7764,3.8422,3.911,3.9373,3.9373,3.9373,3.9373,3.9373,3.9373,3.9373,3.9499,4.0157,4.0726,4.1294,4.2111,4.241,4.25,2.6276,2.6318,2.6824,2.8445,2.8704,2.9224,3.0795,3.0571,3.0089,2.9735,3.0628,3.0909,2.9905,3.0281,3.0783,3.116,3.0331,3.0206,3.116,3.0331,2.9804,2.9804,2.9804,2.9804,2.9804,2.9804,2.9804,2.9804,2.9804,2.9804,2.9804,2.9804,2.9804,2.9804,2.9804,2.9804,2.9754,2.9252,2.9327,2.9754,2.9227,2.9327,2.9804,2.9804,2.9804,2.9804,2.9804,2.9804,2.9804,2.9804,3.0343,3.0895,3.0062,3.0381,3.0857,3.0024,3.0381,3.1044,3.1044,3.1044,3.1044,3.1044,3.0367,2.9553,2.9013,0.0,2.8637,2.8122,0.0,2.7996,2.7921,0.0,0.0,0.0,3.0043,0.0,3.3038,3.3612,3.426,3.5386,3.5519,3.5519,3.5519,3.5519,3.5519,3.5519,3.5519,3.5519,3.5519,3.5519,3.5519,3.5519,3.5519,3.5519,3.5519,3.5519,3.5848,3.6507,3.7105,3.7764,3.8422,3.911,3.9373,3.9373,3.9373,3.9373,3.9373,3.9373,3.9373,3.9499,4.0157,4.0457,4.0666,4.1931,4.241,4.25,2.7562,2.7441,2.7951,2.9618,2.9607,2.9742,3.0778,3.0482,3.0055,2.9829,3.0181,3.0407,3.0281,3.0482,3.0708,3.0934,3.0532,3.0331,3.0457,3.0055,2.9804,2.9804,2.9804,2.9804,2.9804,2.9804,2.9804,2.9804,2.9804,2.9804,2.9804,2.9804,2.9804,2.9804,2.9804,2.9804,2.9818,3.0124,3.0169,3.0043,3.0195,2.9988,2.9542,2.934,2.9302,2.9302,2.9302,2.9503,2.9804,2.9804,3.0062,3.0305,2.9934,3.0062,3.0305,2.9934,3.0457,3.1204,3.1204,3.1204,3.1315,3.1901,3.1304,3.0693,3.0987,3.064,3.0103,2.9559,0.0,0.0,0.0,0.0,0.0,0.0,3.0681,3.1779,0.0,0.0,3.5041,3.5454,0.0,0.0,3.5519,3.5519,3.5519,3.5519,3.5519,3.5519,3.5519,3.5519,3.5519,3.5519,3.5519,3.5519,3.5519,3.5878,3.6207,3.6507,3.7494,3.8123,3.8422,3.911,3.9373,3.9373,3.9373,3.9373,3.9373,3.9373,3.9373,3.9439,3.9738,3.9828,3.9978,4.1362,4.1841,4.1953,2.8727,2.8569,2.8928,3.0188,3.0055,2.993,3.0331,3.0055,2.9804,2.9804,2.993,3.0181,3.0583,3.0884,3.111,3.1286,3.1009,3.0733,3.0457,3.003,2.9804,2.9804,2.9804,2.9804,2.9804,2.9804,2.9804,2.9804,2.9804,2.9804,2.9804,3.0062,3.0177,3.0177,3.0457,3.057,3.0582,3.1119,3.1172,3.0886,3.1002,3.0441,2.9502,2.9361,2.9562,2.9925,2.9925,3.0209,3.057,3.057,3.0759,3.0884,3.0646,3.0759,3.0884,3.0646,3.123,3.1947,3.1947,3.1947,3.2128,3.2806,3.2272,3.1756,3.2451,3.2064,3.1489,3.1089,3.0217,0.0,0.0,0.0,0.0,0.0,0.0,3.2861,0.0,3.5038,0.0,3.5519,0.0,0.0,0.0,3.5519,3.5519,3.5519,3.5519,3.5519,3.5519,3.5519,3.5519,3.5519,3.5519,3.5519,3.5519,3.6148,3.6567,3.6746,3.7853,3.8482,3.8691,3.92,3.9373,3.9373,3.9373,3.9373,3.9373,3.9373,3.9373,3.9373,3.9373,3.9373,3.9559,4.0696,4.1235,4.1534,2.974,2.9765,2.974,2.9804,2.9804,2.9804,2.9804,2.9804,2.9804,2.9804,3.0256,3.0608,3.0608,3.1537,3.239,3.2943,3.1989,3.1587,3.2114,3.0658,2.9804,2.9804,2.9804,2.9804,2.9804,2.9804,2.9804,2.9804,2.9804,2.9804,2.9818,3.0733,3.1156,3.1167,3.2092,3.2486,3.2494,3.1985,3.2068,3.2447,3.1288,3.0394,2.9849,3.0219,3.1245,3.2459,3.2459,3.2486,3.2486,3.2486,3.3087,3.3705,3.277,3.3122,3.3671,3.277,3.3157,3.391,3.391,3.391,3.391,3.3945,3.3227,3.2558,3.2593,3.2581,3.2544,3.2517,3.1785,3.1397,3.2265,0.0,0.0,0.0,0.0,0.0,0.0,3.5454,3.5519,3.5519,3.5519,0.0,0.0,3.5519,3.5519,3.5519,3.5519,3.5519,3.5519,3.5519,3.5519,3.5519,3.5519,3.5519,3.5519,3.6148,3.6776,3.7375,3.8063,3.8751,3.9379,3.9373,3.9373,3.9373,3.9373,3.9373,3.9373,3.9373,3.9373,3.9373,3.9373,3.9373,3.9463,4.0187,4.0816,4.1512,2.9804,2.9804,2.9804,2.9804,2.9804,2.9804,2.9804,2.9804,3.0181,3.126,3.1235,3.1687,3.3169,3.3319,3.3395,3.3596,3.2943,3.2265,3.1712,3.0834,3.0181,2.9804,2.9804,2.9804,2.9804,2.9804,2.9804,2.9804,3.0419,3.0733,3.0771,3.1683,3.2128,3.2128,3.2451,3.2593,3.2629,3.3064,3.2851,3.2165,3.0949,3.1091,3.1815,3.0113,3.0281,3.1405,3.1405,3.193,3.2593,3.2593,3.2806,3.3017,3.27,3.2806,3.3017,3.27,3.3262,3.3979,3.3979,3.3979,3.4177,3.4839,3.423,3.3709,3.437,3.397,3.3556,3.3556,3.277,3.224,3.2523,0.0,0.0,0.0,0.0,0.0,0.0,3.5519,3.5519,3.5519,3.5519,3.5519,0.0,3.5519,3.5519,3.5519,3.5519,3.5519,3.5519,3.5519,3.5519,3.5519,3.5519,3.5699,3.6148,3.6776,3.7434,3.8063,3.8751,3.92,3.9373,3.9373,3.9373,3.9373,3.9373,3.9373,3.9373,3.9373,3.9373,3.9433,3.9888,4.0068,4.0098,4.0307,4.0816,4.1534,2.9804,2.9804,2.9804,2.9804,2.9804,2.9804,2.9804,3.0105,3.0733,3.1788,3.1964,3.2616,3.4248,3.4299,3.4198,3.4198,3.3696,3.2893,3.1763,3.1185,3.0557,2.9829,2.998,3.0005,2.9804,2.9804,2.9972,3.033,3.0895,3.1352,3.1719,3.2664,3.3087,3.3087,3.3208,3.326,3.3328,3.3931,3.3579,3.2528,3.1508,3.1652,3.2346,3.0575,3.0817,3.2098,3.2098,3.2611,3.3289,3.3545,3.3636,3.3636,3.3636,3.3636,3.3636,3.3636,3.4041,3.4543,3.4543,3.4543,3.4706,3.5359,3.4994,3.4689,3.5356,3.4993,3.4531,3.4531,3.3768,3.3192,0.0,0.0,0.0,0.0,0.0,0.0,0.0,3.5519,3.5519,3.5519,3.5519,3.5519,3.5519,3.5519,3.5519,3.5519,3.5519,3.5519,3.5519,3.5519,3.5519,3.5519,3.5729,3.6058,3.6477,3.7315,3.7973,3.8392,3.908,3.9373,3.9373,3.9373,3.9373,3.9373,3.9373,3.9373,3.9373,3.9373,3.9373,3.9499,4.0157,4.0397,4.0397,4.0397,4.0816,4.1564,2.9804,2.9804,2.9804,2.9804,2.9804,2.9804,2.9804,3.0708,3.1411,3.1512,3.2466,3.3395,3.3997,3.45,3.4801,3.4801,3.4274,3.347,3.2365,3.1763,3.0959,2.988,3.0331,3.0357,2.9804,2.9856,3.033,3.1204,3.1278,3.1829,3.27,3.3636,3.4047,3.4057,3.4359,3.4503,3.4444,3.4444,3.4053,3.3395,3.2736,3.2079,3.154,3.1511,3.2706,3.4414,3.4414,3.4444,3.4623,3.525,3.5489,3.5519,3.5519,3.5519,3.5519,3.5519,3.5519,3.5519,3.5519,3.5519,3.5519,3.5519,3.5519,3.5519,3.5519,3.5519,3.5519,3.5519,3.4747,3.4378,0.0,0.0,0.0,0.0,0.0,0.0,0.0,0.0,3.5519,3.5519,3.5519,3.5519,3.5519,3.5519,3.5519,3.5519,3.5519,3.5519,3.5519,3.5519,3.5519,3.5519,3.6148,3.6507,3.6537,3.7764,3.8392,3.8452,3.911,3.9373,3.9373,3.9373,3.9373,3.9373,3.9373,3.9373,3.9373,3.9373,3.9373,3.9463,4.0187,4.0457,4.0487,4.0487,4.0876,4.1624,2.9804,2.9804,2.9804,2.9804,2.9804,2.9804,2.9804,3.0708,3.1838,3.3093,3.3872,3.4826,3.6182,3.6107,3.5931,3.5931,3.5052,3.4223,3.352,3.2541,3.1512,3.0457,3.0532,3.0357,2.9804,3.0495,3.097,3.1204,3.2593,3.3394,3.3671,3.4643,3.4866,3.4362,3.4437,3.4234,3.3754,3.3754,3.3365,3.2706,3.2019,3.1959,3.2168,3.169,3.2108,3.3006,3.3006,3.3634,3.4533,3.4713,3.507,3.5519,3.5519,3.5519,3.5519,3.5519,3.5519,3.5519,3.5519,3.5519,3.5519,3.5519,3.5519,3.5519,3.5519,3.5519,3.5519,3.5519,3.5272,3.518,3.5457,3.5272,0.0,0.0,0.0,0.0,0.0,3.5519,3.5519,3.5519,3.5519,3.5519,3.5519,3.5519,3.5519,3.5519,3.5519,3.5519,3.5519,3.5519,3.5519,3.5519,3.6148,3.6716,3.7165,3.7973,3.8661,3.917,3.9313,3.9373,3.9373,3.9373,3.9373,3.9373,3.9373,3.9373,3.9373,3.9373,3.9373,3.9529,4.0696,4.1482,4.1901,4.1901,4.2021,4.2261,2.9804,2.9804,2.9804,2.9804,3.0181,3.0482,3.0482,3.1009,3.1913,3.3345,3.4223,3.4977,3.568,3.5906,3.5906,3.5655,3.4851,3.4123,3.3571,3.2717,3.1738,3.0658,3.0608,3.0357,2.9804,3.0436,3.1086,3.1829,3.2726,3.3516,3.4204,3.4518,3.4412,3.4023,3.3754,3.3425,3.3036,3.2766,3.2587,3.2467,3.178,3.172,0.0,3.163,3.172,3.2049,3.2049,3.2736,3.3694,3.4324,3.4741,3.51,3.54,3.5519,3.5519,3.5519,3.5519,3.5519,3.5519,3.5519,3.5519,3.5519,3.5519,3.5519,3.5519,3.5519,3.5519,3.5519,3.5519,3.5519,3.5519,3.5519,0.0,0.0,0.0,0.0,0.0,3.5519,3.5519,3.5519,3.5519,3.5519,3.5519,3.5519,3.5519,3.5519,3.5519,3.5519,3.5519,3.5519,3.5639,3.5938,3.6836,3.7494,3.7823,3.8781,3.932,3.9373,3.9373,3.9373,3.9373,3.9373,3.9373,3.9373,3.9373,3.9373,3.9403,3.9738,3.9858,3.9978,4.1294,4.2222,4.2791,4.2791,4.265,4.25,2.9804,2.9854,2.988,2.9804,3.0683,3.1436,3.1587,3.1738,3.2139,3.3068,3.4148,3.4625,3.4073,3.4831,3.5207,3.4731,3.4223,3.3671,3.3162,3.2541,3.1738,3.0658,3.0608,3.0371,2.9871,3.021,3.1083,3.2548,3.2364,3.3003,3.4384,3.3754,3.3455,3.3335,3.2766,3.2437,3.2318,3.175,3.1839,3.2318,3.172,3.1511,3.1511,3.1511,3.1511,3.1511,3.1511,3.1929,3.2706,3.3933,3.4444,3.4623,3.528,3.5519,3.5519,3.5519,3.5519,3.5519,3.5519,3.5519,3.5519,3.5519,3.5519,3.5519,3.5519,3.5519,3.5517,3.5627,3.563,3.5603,3.5636,3.5639,0.0,0.0,0.0,0.0,3.5639,3.5639,3.5609,3.5519,3.5519,0.0,3.5519,3.5519,3.5519,3.5519,3.5519,3.5519,0.0,0.0,3.5818,3.6477,3.7644,3.8332,3.8512,3.9679,4.0038,3.9559,3.9469,3.9373,3.9373,3.9373,3.9373,3.9373,3.9373,3.9433,3.9589,4.0157,4.0487,4.0756,4.1961,4.2761,4.329,4.329,4.297,4.262,2.9804,3.0156,3.0331,2.988,3.0683,3.1712,3.2641,3.3545,3.4048,3.3796,3.468,3.5157,3.465,3.4751,3.4781,3.4726,3.4223,3.3671,3.3162,3.2541,3.1738,3.0658,3.0608,3.0456,3.0142,3.0922,3.1619,3.2197,3.2891,3.339,3.3664,3.3544,3.3215,3.2677,3.2557,3.2168,3.166,3.154,3.157,3.166,3.154,3.1511,3.1511,3.1511,3.1511,3.1511,3.1511,3.1929,3.2647,3.3395,3.4054,3.4623,3.528,3.5519,3.5519,3.5519,3.5519,3.5519,3.5519,3.5519,3.5519,3.5519,3.5519,3.5519,3.5519,3.5519,3.5651,3.6207,3.6305,3.6327,3.6313,3.6324,3.6477,0.0,3.7075,3.6896,3.6387,3.6297,3.6118,3.5579,3.5519,3.5519,3.5519,3.5519,3.5519,3.5519,3.5519,3.5519,0.0,0.0,3.5818,0.0,3.7195,3.8123,0.0,3.9469,3.9798,4.0217,3.9679,3.9373,3.9373,3.9373,3.9373,3.9373,3.9373,3.9738,4.0247,4.0337,4.1025,4.2081,4.2321,4.2761,4.329,4.329,4.323,4.314,3.0206,3.0432,3.0708,3.1009,3.1712,3.2541,3.337,3.4449,3.4806,3.3997,3.4349,3.4374,3.352,3.3947,3.4073,3.347,3.3169,3.2792,3.224,3.1687,3.1377,3.1306,3.1036,3.0921,3.0931,3.1542,3.1938,3.2108,3.2343,3.2647,3.2976,3.2647,3.2288,3.1989,3.1989,3.1809,3.1511,3.1511,3.1511,3.1511,3.1511,3.1511,3.1511,3.1511,3.1511,3.1511,3.1511,3.1929,3.2617,3.3275,3.3694,3.4143,3.519,3.5519,3.5519,3.5519,3.5519,3.5519,3.5519,3.5519,3.5519,3.5519,3.5519,3.5519,3.5519,3.5519,3.5684,3.6358,3.6502,3.6603,3.6914,3.6952,3.7075,3.7375,3.7404,3.7315,3.7015,3.6956,3.6716,3.6088,3.5998,3.5878,3.5549,3.5519,3.5519,3.5519,3.5519,3.5519,0.0,0.0,3.6297,0.0,0.0,0.0,3.9373,0.0,3.9918,3.9888,3.9559,3.9373,3.9373,3.9373,3.9619,3.9918,3.9918,4.0307,4.0935,4.1265,4.1983,4.288,4.288,4.306,4.329,4.329,4.329,4.329,3.0608,3.0809,3.121,3.2064,3.2792,3.3395,3.3847,3.468,3.4981,3.4022,3.3897,3.347,3.234,3.3018,3.3144,3.2114,3.2039,3.187,3.1559,3.1128,3.1293,3.208,3.1596,3.1442,3.1687,3.1833,3.1913,3.1988,3.1664,3.1839,3.2497,0.0,0.0,3.1511,3.1511,3.1511,3.1511,3.1511,3.1511,3.1511,3.1511,3.1511,3.1511,3.1511,3.1511,3.1511,3.1511,3.1928,3.2586,3.3276,3.3575,3.3934,3.513,3.5519,3.5519,3.5519,3.5519,3.5519,3.5519,3.5519,3.5519,3.5519,3.5519,3.5519,3.5519,3.5519,3.5723,3.6531,3.6777,3.7063,3.7699,3.7704,3.7674,3.7823,3.7823,3.7793,3.7644,3.7614,3.7345,3.6567,3.6477,0.0,3.5579,3.5519,3.5519,3.5519,3.5519,3.5519,3.5519,0.0,0.0,0.0,3.8422,3.92,3.9619,0.0,4.0008,3.9619,3.9499,3.9373,3.9373,3.9373,3.9768,4.0397,4.0397,4.0846,4.1662,4.2321,4.288,4.329,4.329,4.329,4.329,4.329,4.329,4.329,3.0608,3.1386,3.2089,3.219,3.3119,3.3847,3.3897,3.4399,3.4575,3.3972,3.3897,3.347,3.234,3.2315,3.2114,3.1512,3.1461,3.1614,3.1939,3.1899,3.2064,3.2525,3.1885,3.1721,3.2033,3.1495,3.1295,3.1573,3.1541,3.1839,0.0,0.0,0.0,3.1511,3.1511,3.1511,3.1511,3.1511,3.1511,3.1511,3.1511,3.1511,3.1511,3.1511,3.1511,3.1511,3.1511,3.1925,3.258,3.3246,3.3908,3.4536,3.5282,3.5519,3.5519,3.5519,3.5519,3.5519,3.5519,3.5519,3.5519,3.5519,3.5519,3.5519,3.5519,3.5519,3.5842,3.707,3.7804,3.8422,3.911,3.8721,3.8512,3.914,3.9194,3.902,3.8392,3.8302,3.7853,3.6626,0.0,0.0,3.5579,3.5519,3.5519,3.5519,3.5519,3.5519,3.5519,0.0,0.0,3.7375,3.7524,3.8482,4.0277,3.9768,3.9768,4.0307,3.9709,3.9373,3.9373,3.9373,3.9768,4.0397,4.0397,4.1115,4.2351,4.297,4.323,4.329,4.329,4.329,4.329,4.329,4.329,4.329,3.1562,3.1913,3.2416,3.3119,3.3319,3.352,3.3847,3.3796,3.3738,3.3791,3.4408,3.4067,3.1946,3.2583,3.2551,3.1025,3.1417,3.1707,3.1525,3.2068,3.2662,3.3394,3.2863,3.2639,3.2928,3.228,3.1812,3.1511,3.1511,3.163,0.0,0.0,0.0,3.1511,3.1511,3.1511,3.1511,3.1511,3.1511,3.1511,3.1511,3.1511,3.1511,3.1511,3.1511,3.1511,3.1511,3.2195,3.3125,3.3427,3.3967,3.4596,3.5312,3.5519,3.5519,3.5519,3.5519,3.5519,3.5519,3.5519,3.5519,3.5519,3.5519,3.5519,3.5519,3.5818,3.6324,3.7212,3.8232,3.908,3.9343,3.92,3.911,3.9379,3.9373,3.932,3.905,3.902,0.0,3.7734,0.0,3.7225,3.6178,3.6417,3.6507,3.6118,3.5729,3.5519,3.5519,0.0,0.0,3.7404,0.0,3.899,3.9798,3.9523,3.9523,3.9798,3.9559,3.9373,3.9373,3.9373,4.0008,4.1025,4.1833,4.2462,4.297,4.32,4.329,4.329,4.329,4.329,4.329,4.329,4.329,4.329,3.219,3.2215,3.2516,3.3495,3.3194,3.3071,3.3751,3.3386,3.3173,3.3555,3.4767,3.4566,3.1866,3.2326,3.2317,3.0918,3.1369,3.1841,3.201,3.2629,3.3429,3.4409,3.3831,3.351,3.3514,3.2856,3.2168,3.1511,3.1511,3.16,3.178,3.178,3.169,3.1511,3.1511,3.1511,3.1511,3.1511,3.1511,3.1511,3.1511,3.1511,3.1511,3.1511,3.1511,3.154,3.1721,3.2526,3.3548,3.3726,3.4235,3.4865,3.534,3.5519,3.5519,3.5519,3.5519,3.5519,3.5519,3.5519,3.5519,3.5519,3.5519,3.5549,3.5759,3.6148,3.6716,3.7524,3.8601,3.9373,3.9373,3.9373,3.9373,3.9373,3.9373,3.9373,0.0,3.9373,0.0,3.8482,3.8392,3.7973,3.6866,3.7165,3.7225,3.6776,3.6327,3.6058,3.6058,3.6746,0.0,0.0,0.0,0.0,3.9373,3.9373,3.9373,3.9373,3.9373,3.9373,3.9403,3.9828,4.0606,4.1782,4.2851,4.329,4.329,4.329,4.329,4.329,4.329,4.329,4.329,4.329,4.329,4.329,3.2114,3.2215,3.239,3.2993,3.2616,3.2548,3.3549,3.3185,3.293,3.333,3.4856,3.4916,3.2269,3.1149,3.0814,3.1172,3.1193,3.201,3.3842,3.3979,3.4442,3.5424,3.4831,3.4173,3.3514,3.2856,3.2168,3.1511,0.0,3.1839,3.2497,3.2497,3.2138,3.1511,3.1511,3.1511,3.1511,3.1511,3.1511,3.1511,3.1511,3.1511,3.1511,3.1511,3.1511,3.1571,3.2258,3.2946,3.3608,3.4268,3.4925,3.5489,3.5519,3.5519,3.5519,3.5519,3.5519,3.5519,3.5519,3.5519,3.5519,3.5519,3.5519,3.5669,3.6327,3.6477,3.6836,3.8123,3.8931,3.9373,3.9373,3.9373,3.9373,3.9373,3.9373,3.9373,0.0,3.9373,0.0,3.8482,3.8392,3.8123,3.7464,3.7404,3.7404,3.7404,3.7375,3.7375,3.7375,3.6836,3.7075,3.8332,3.8392,0.0,3.9373,3.9373,3.9373,3.9373,3.9373,3.9373,3.9433,4.0756,4.1752,4.241,4.306,4.329,4.329,4.329,4.329,4.329,4.329,4.329,4.329,4.329,4.329,4.329,3.1763,3.1964,3.2348,3.2817,3.2731,3.2961,3.3981,3.3046,3.2782,3.4212,3.3412,3.2864,3.3289,3.3509,3.3211,3.2218,3.2735,3.3359,3.3945,3.4233,3.4483,3.4801,3.3724,3.3036,3.2826,3.2138,3.172,3.1511,3.1511,3.16,3.1809,3.1809,3.169,3.1511,3.1511,3.1511,3.1511,3.1511,3.1511,3.1511,3.1511,3.1511,3.1511,3.1511,3.1511,3.1571,3.2288,3.2914,3.36,3.428,3.4971,3.5519,3.5519,3.5519,3.5519,3.5519,3.5519,3.5519,3.5519,3.5519,3.5519,3.5519,3.5519,3.5669,3.6327,3.7165,3.8033,3.8901,3.926,3.9373,3.9373,3.9373,3.9373,3.9373,3.9373,0.0,3.9373,3.9373,3.9313,3.911,3.908,3.8811,3.8153,3.8512,3.8571,3.8123,3.8093,3.7883,3.7434,3.7644,3.7973,0.0,3.929,0.0,4.0098,4.0546,4.0516,4.0098,4.0546,4.0756,4.0786,4.1692,4.2201,4.244,4.306,4.329,4.329,4.329,4.329,4.329,4.329,4.329,4.329,4.329,4.329,4.329,3.2164,3.1964,3.1994,3.2235,3.1966,3.2005,3.2971,3.261,3.2773,3.4339,3.3543,3.3255,3.4442,3.4927,0.0,3.3248,3.3671,3.4177,3.4543,3.4513,3.4503,3.4503,3.3455,3.2766,3.2527,3.2079,3.175,3.1511,3.1511,3.1511,3.1511,3.1511,3.1511,3.1511,3.1511,3.1511,3.1511,3.1511,3.1511,3.1511,3.1511,3.1511,3.1511,3.1511,3.1511,3.1601,3.2526,3.3151,3.3657,3.4545,3.5148,3.5519,3.5519,3.5519,3.5519,3.5519,3.5519,3.5519,3.5519,3.5519,3.5519,3.5519,3.5699,3.6118,3.6985,3.8003,3.8901,3.932,3.9373,3.9373,3.9373,3.9373,3.9373,3.9373,3.9373,3.9373,3.9373,3.9373,3.9373,3.9373,3.9373,3.926,3.8811,3.917,3.923,3.8811,3.8781,3.8601,3.8182,3.8542,3.8901,3.914,4.0187,4.0756,4.0756,4.1175,4.1175,4.0756,4.1175,4.1504,4.1811,4.2201,4.253,4.2761,4.311,4.329,4.329,4.329,4.329,4.329,4.329,4.329,4.329,4.329,4.329,4.3319,3.291,3.2039,3.1351,3.1407,3.055,3.0254,3.1241,3.2055,3.2947,3.3979,3.4872,3.5424,3.5519,3.5519,3.5103,3.4119,0.0,0.0,3.5365,3.4801,3.4414,3.4384,3.3724,3.3066,3.2437,3.2437,3.2108,3.1511,3.1511,3.1511,3.1511,3.1511,3.1511,3.1511,3.1511,3.1511,3.1511,3.1511,3.1511,3.1511,3.1511,3.1511,3.1511,3.1511,3.154,3.175,3.3031,3.3539,3.3754,3.507,3.5519,3.5519,3.5519,3.5519,3.5519,3.5519,3.5519,3.5519,3.5519,3.5519,3.5519,3.5579,3.6088,3.6926,3.8123,3.8931,3.9373,3.9373,3.9373,3.9373,3.9373,3.9373,3.9373,3.9373,3.9373,3.9373,3.9373,3.9373,3.9373,3.9373,3.9373,3.9439,3.9433,3.9439,3.9403,3.9499,3.9439,3.9403,3.9499,0.0,3.9798,4.0397,4.1025,4.1414,4.1444,4.1504,4.1504,4.1504,4.1474,4.1841,4.247,4.247,4.2761,4.329,4.329,4.329,4.329,4.329,4.329,4.329,4.329,4.329,4.329,4.329,4.3319,4.3439,0.0,0.0,3.0871,3.1201,3.104,3.1426,3.3052,3.2912,3.322,3.4905,3.4677,3.4643,3.5424,3.5519,3.5215,3.4453,3.4836,3.5023,3.4741,3.4113,3.3514,3.3006,3.2318,3.1899,3.175,3.175,3.166,3.1511,3.1511,3.1511,3.1511,3.1511,3.1511,3.1511,3.1511,3.1511,3.1511,3.1511,3.1511,3.1511,3.1511,3.1511,3.1511,3.1511,3.1811,3.2378,3.3183,3.3813,3.4414,3.522,3.5519,3.5519,3.5519,3.5519,3.5519,3.5519,3.5519,3.5519,3.5519,3.5519,3.5639,3.6118,3.7105,3.8033,3.8332,3.8931,3.9373,3.9373,3.9373,3.9373,3.9373,3.9373,3.9373,3.9373,3.9373,3.9373,3.9373,3.9373,3.9373,3.9373,3.9373,3.9619,4.0127,3.9709,3.9619,0.0,0.0,3.9649,4.0157,4.0636,4.0756,4.0397,4.1025,4.1662,4.2171,4.2611,4.2841,4.2811,4.2372,4.2462,4.312,4.312,4.314,4.329,4.329,4.329,4.329,4.329,4.329,4.329,4.329,4.329,4.329,4.329,4.3618,4.4107,3.0633,3.0583,3.0666,3.0894,3.1078,3.1536,3.2558,3.3017,3.3636,3.4677,3.4739,3.4872,3.5424,3.5519,3.534,3.4981,3.5011,3.4741,3.4114,3.3425,3.2886,3.2527,3.1869,3.1511,3.1511,3.1511,3.1511,3.1511,3.1511,3.1511,3.1511,3.1511,3.1511,3.1511,3.1511,3.1511,3.1511,3.1511,3.1511,3.1511,3.1511,3.1691,3.196,3.1959,3.2378,3.3034,3.3724,3.4204,3.4623,3.528,3.5519,3.5519,3.5519,3.5519,3.5519,3.5519,3.5519,3.5519,3.5519,3.5729,3.6178,3.7135,3.7883,3.8482,3.8781,3.914,3.9373,3.9373,3.9373,3.9373,3.9373,3.9373,3.9373,3.9373,3.9373,3.9373,3.9373,3.9373,3.9373,3.9373,3.9679,4.0008,4.0367,4.0337,4.0457,4.0816,4.0516,0.0,4.0816,4.1175,4.1354,4.1332,4.1923,4.2432,4.2791,4.311,4.329,4.329,4.297,4.3,4.329,4.329,4.329,4.329,4.329,4.329,4.329,4.329,4.329,4.329,4.329,4.329,4.3319,4.3618,4.4018,4.4407,3.116,3.0783,3.0482,3.0482,3.088,3.1241,3.1389,3.2876,3.4047,3.4211,3.4971,3.5519,3.5519,3.5519,3.5459,3.537,3.4711,3.4083,3.3544,3.2886,3.2437,3.2348,3.1809,3.1511,3.1511,3.1511,3.1511,3.1511,3.1511,3.1511,3.1511,3.1511,3.1511,3.1511,3.1511,3.1511,3.1511,3.1511,3.1511,3.1511,3.1511,3.19,3.2527,3.2497,3.2976,3.3724,3.4324,3.4563,3.4743,3.531,3.5519,3.5519,3.5519,3.5519,3.5519,3.5519,3.5519,3.5519,3.5519,3.6058,3.6896,3.8093,3.8482,3.8691,3.929,3.9373,3.9373,3.9373,3.9373,3.9373,3.9373,3.9373,3.9373,3.9373,3.9373,3.9373,3.9373,0.0,3.9559,3.9559,4.0157,4.0576,4.0696,4.1115,4.1452,4.1542,4.1482,4.1414,4.1572,4.1572,4.1871,4.253,4.294,4.32,4.329,4.329,4.329,4.329,4.329,4.329,4.329,4.329,4.329,4.329,4.329,4.329,4.329,4.329,4.329,4.329,4.329,4.3349,4.3499,4.4107,4.4436,4.4766,3.003,2.998,2.993,2.993,3.0622,3.1462,3.2236,3.3325,3.4279,3.5166,3.5392,3.5519,3.5519,3.5519,3.528,3.4713,3.4023,3.3604,3.3514,3.2886,3.2228,3.169,3.157,3.1511,3.1511,3.1511,3.1511,3.1511,3.1511,3.1511,3.1511,3.1511,3.1511,3.1511,3.1511,3.1511,3.1511,3.1511,3.1511,3.1511,3.1511,3.1899,3.2497,3.2497,3.3275,3.4384,3.4474,3.4861,3.537,3.5459,3.5519,3.5519,3.5519,3.5519,3.5519,3.5519,3.5519,3.5519,3.5519,3.6357,3.7434,3.8212,3.8841,3.929,3.9409,3.9373,3.9373,3.9373,3.9373,3.9373,3.9373,3.9373,3.9373,3.9373,3.9373,3.9373,3.9373,0.0,4.0247,4.0247,4.0816,4.1482,4.2051,4.1692,4.1662,4.2201,4.1722,4.1662,4.2201,4.2261,4.2521,4.311,4.2761,4.2761,4.329,4.329,4.329,4.329,4.329,4.329,4.329,4.329,4.329,4.329,4.329,4.329,4.329,4.329,4.329,4.329,4.329,4.3648,4.4167,4.4287,4.5035,4.601,2.9804,2.9804,2.9804,2.9804,3.0582,3.1536,3.2451,3.3394,3.4346,3.5359,3.5519,3.5519,3.5519,3.5519,3.522,3.4563,3.3873,3.3335,3.3006,3.2318,3.1809,3.1511,3.1511,3.1511,3.1511,3.1511,3.1511,3.1511,3.1511,3.1511,3.1511,3.1511,3.1511,3.1511,3.1511,3.1511,3.1511,3.1511,3.1511,3.1511,3.1511,3.2108,3.3036,3.3036,3.3873,3.504,3.504,3.525,3.5519,3.5519,3.5519,3.5519,3.5519,3.5519,3.5519,3.5519,3.5759,3.6118,3.6447,3.7225,3.8093,3.8781,3.917,3.9373,3.9373,3.9373,3.9373,3.9373,3.9373,3.9373,3.9373,3.9373,3.9373,3.9373,3.9373,3.9559,3.9888,4.0217,4.0516,4.0876,4.1542,4.2081,4.2381,4.2402,4.2551,4.2851,4.2611,4.2551,4.288,4.288,4.303,4.329,4.303,4.303,4.329,4.329,4.329,4.329,4.329,4.329,4.329,4.329,4.329,4.329,4.329,4.329,4.329,4.329,4.3499,4.3828,4.3828,4.4257,4.4885,4.5244,4.5741,4.6339,2.9804,2.9804,2.9804,2.9804,3.0582,3.1426,3.2164,3.3052,3.4041,3.5034,3.5133,3.5231,3.5457,3.5519,3.528,3.4803,3.3963,3.3275,3.2766,3.1959,3.1511,3.1511,3.1511,3.1511,3.1511,3.1511,3.1511,3.1511,3.1511,3.1511,3.1511,3.1511,3.1511,3.1511,3.1511,3.1511,3.1511,3.1511,3.1511,3.1511,3.1511,3.2288,3.3484,3.3484,3.4322,3.5519,3.5519,3.5519,3.5519,3.5519,3.5519,3.5519,3.5519,3.5519,3.5519,3.5699,3.6297,3.7015,3.7494,3.8003,3.8542,3.926,3.9373,3.9373,3.9373,3.9373,3.9373,3.9373,3.9373,3.9373,3.9373,3.9373,3.9373,3.9373,0.0,3.9828,4.0337,4.0666,4.1055,4.1602,4.2231,4.262,4.262,4.303,4.329,4.329,4.329,4.329,4.329,4.329,4.329,4.329,4.329,4.329,4.329,4.329,4.329,4.329,4.329,4.3379,4.3529,4.3349,4.3379,4.3499,4.3349,4.3379,4.3529,4.3529,4.3958,4.4556,4.4556,4.4945,4.5603,4.6142,4.6369,4.6621,2.9804,2.9804,2.9804,2.9804,3.0582,3.1204,3.1278,3.2092,3.3017,3.3979,3.4109,3.4476,3.5392,3.5519,3.5489,3.5429,3.4233,3.3484,3.3425,3.2198,3.1511,3.1511,3.1511,3.1511,3.1511,3.1511,3.1511,3.1511,3.1511,3.1511,3.1511,3.1511,3.1511,3.1511,3.1511,3.1511,3.1511,3.1511,3.1511,3.1511,3.1511,3.2288,3.3484,3.3484,3.4322,3.5519,3.5519,3.5519,3.5519,3.5519,3.5519,3.5519,3.5519,3.5519,3.5639,3.6237,3.7285,3.8272,3.8302,3.8362,3.8542,3.926,3.9373,3.9373,3.9373,3.9373,3.9373,3.9373,3.9373,3.9373,3.9373,3.9373,3.9373,3.9373,0.0,0.0,4.0397,4.1444,4.2261,4.2321,4.2851,4.323,4.323,4.326,4.329,4.329,4.329,4.329,4.329,4.329,4.329,4.329,4.329,4.329,4.329,4.329,4.329,4.329,4.329,4.3618,4.4227,4.3559,4.3618,4.4197,4.3559,4.3648,4.4257,4.4257,4.4616,4.5214,4.5214,4.5633,4.6219,4.6249,4.6711,4.7249,2.9804,2.9804,2.9804,2.9804,3.0101,3.0533,3.1119,3.1499,3.2272,3.3808,3.3979,3.438,3.5392,3.5519,3.534,3.4891,3.4023,3.3335,3.2916,3.2019,3.1511,3.1511,3.1511,3.1511,3.1511,3.1511,3.1511,3.1511,3.1511,3.1511,3.1511,3.1511,3.1511,3.1511,3.1511,3.1511,3.1511,3.1511,3.1511,3.1511,3.1511,3.2288,3.3484,3.3484,3.4322,3.5519,3.5519,3.5519,3.5519,3.5519,3.5519,3.5519,3.5519,3.5519,3.5699,3.6746,3.7704,3.8482,3.8901,3.902,3.908,3.9349,3.9373,3.9373,3.9373,3.9373,3.9529,3.9948,4.0038,4.0157,4.0546,4.0636,4.0636,4.0636,0.0,4.1145,4.1602,4.2081,4.256,4.291,4.314,4.329,4.329,4.329,4.329,4.329,4.329,4.329,4.329,4.329,4.329,4.329,4.329,4.329,4.329,4.329,4.3499,4.3928,4.3499,4.3858,4.4915,4.4257,4.4317,4.4915,4.4646,4.4676,4.4915,4.4915,4.5334,4.5933,4.5933,4.6352,4.692,4.692,4.71,4.7309,2.9804,2.9804,2.9804,2.9804,2.9804,3.0011,3.0658,3.0771,3.1341,3.2912,3.3394,3.3853,3.464,3.5207,3.516,3.4233,3.3754,3.3215,3.2527,3.1869,3.1511,3.1511,3.1511,3.1511,3.1511,3.1511,3.1511,3.1511,3.1511,3.1511,3.1511,3.1511,3.1511,3.1511,3.1511,3.1511,3.1511,3.1511,3.1511,3.1511,3.172,3.2497,3.3514,3.3724,3.4502,3.5519,3.5519,3.5519,3.5519,3.5519,3.5519,3.5519,3.5519,3.5789,3.6327,3.7404,3.8182,3.8811,3.929,3.9559,3.9679,3.9433,3.9373,3.9469,3.9679,3.9738,3.9918,4.0576,4.0696,4.0846,4.1332,4.1422,4.1422,4.1422,4.1602,4.1871,4.2351,4.256,4.2851,4.323,4.3469,4.3529,4.3319,4.3678,4.3738,4.3319,4.3499,4.3499,4.329,4.3678,4.3828,4.3618,4.3589,4.3708,4.3958,4.3708,4.3917,4.4616,4.4167,4.4526,4.5603,4.4915,4.4975,4.5603,4.5394,4.5424,4.5603,4.5603,4.6022,4.6621,4.6621,4.692,4.7309,4.7309,4.7309,4.7309,2.9804,2.9804,2.9804,2.9804,2.9804,2.9804,2.9804,2.9804,3.0139,3.1082,3.2019,3.2751,3.3073,3.4551,3.4951,3.3634,3.3484,3.3215,3.2557,3.1869,3.1511,3.1511,3.1511,3.1511,3.1511,3.1511,3.1511,3.1511,3.1511,3.1511,3.1511,3.1511,3.1511,3.1511,3.1511,3.1511,3.1511,3.1511,3.1511,3.157,3.2228,3.2916,3.3574,3.4264,3.4891,3.5519,3.5519,3.5519,3.5519,3.5519,3.5519,3.5519,3.5519,3.6387,3.7554,3.8182,3.8871,3.9373,3.9403,3.9888,4.0247,3.9589,3.9403,3.9619,4.0247,4.0397,4.0606,4.1265,4.1384,4.1384,4.1384,4.1384,4.1422,4.1414,4.1991,4.241,4.241,4.294,4.329,4.329,4.3888,4.4077,4.3379,4.4526,4.4766,4.3409,4.3917,4.4047,4.3349,4.4586,4.5005,4.4347,4.4317,4.4646,4.5304,4.4646,4.4646,4.5304,4.5304,4.5663,4.6279,4.5603,4.5693,4.6249,4.5603,4.5693,4.6279,4.6279,4.6711,4.7309,4.7309,4.7309,4.7309,4.7309,4.7309,4.7309,2.9804,2.9804,2.9804,2.9804,2.9804,2.9804,2.9804,2.9804,3.0139,3.1082,3.2019,3.2891,3.3647,3.4375,3.4831,3.4891,3.3604,3.2497,3.1839,3.16,3.1511,3.1511,3.1511,3.1511,3.1511,3.1511,3.1511,3.1511,3.1511,3.1511,3.1511,3.1511,3.1511,3.1511,3.1511,3.1511,3.1511,3.1511,3.178,3.2198,3.2407,3.3185,3.4234,3.4444,3.4891,3.5519,3.5519,3.5519,3.5519,3.5519,3.5519,3.5579,3.6058,3.7075,3.8123,3.8332,3.8871,3.9529,3.9978,4.0247,4.0247,3.9589,4.0127,4.0726,4.0457,4.0756,4.1265,4.1961,4.2111,4.2261,4.2671,4.2761,4.291,4.3359,4.321,4.321,4.3658,4.3898,4.4018,4.4018,4.4586,4.4915,4.4736,4.5065,4.5125,4.4736,4.4885,4.4915,4.4706,4.5095,4.5214,4.5005,4.5005,4.5334,4.6022,4.4885,4.4885,4.6022,4.5514,4.5903,4.698,4.6322,4.6381,4.701,4.68,4.683,4.701,4.701,4.713,4.7309,4.7309,4.7309,4.7309,4.7309,4.7309,4.7309,2.9804,2.9804,2.9804,2.9804,2.9804,2.9804,2.9804,2.9804,3.0011,3.0545,3.1462,3.2297,3.2986,3.3819,3.4386,3.468,3.3606,3.2735,3.234,3.2013,3.1924,3.1924,3.1658,3.1511,3.1511,3.1511,3.1511,3.1511,3.1511,3.1511,3.1511,3.1511,3.1511,3.1511,3.1511,3.1511,3.1511,3.178,3.2108,3.2557,3.3095,3.3754,3.4533,3.4771,3.513,3.5519,3.5519,3.5519,3.5519,3.5519,3.5669,3.6058,3.6956,3.7764,3.8452,3.8721,3.908,3.9559,4.0217,4.0576,4.0696,4.0277,4.0786,4.1354,4.1205,4.1512,4.1991,4.2611,4.2761,4.294,4.3559,4.3678,4.3928,4.4586,4.4377,4.4257,4.4646,4.4706,4.4706,4.4706,4.5304,4.5603,4.5334,4.5783,4.5992,4.5723,4.5693,4.5574,4.5304,4.5813,4.5963,4.5693,4.5693,4.6022,4.6711,4.5633,4.5633,4.6711,4.6292,4.6531,4.7309,4.689,4.692,4.7309,4.7309,4.7309,4.7309,4.7309,4.7309,4.7309,4.7309,4.7309,4.7309,4.7309,4.7309,4.7309,2.9804,2.9804,2.9804,2.9804,2.9804,2.9804,2.9804,2.9804,2.9804,2.9804,3.062,3.1286,3.1533,3.2964,3.3823,3.3566,3.3576,3.3547,3.3507,3.2875,3.2517,3.2517,3.1926,3.1601,3.1571,3.154,3.1511,3.1511,3.1511,3.1511,3.1511,3.1511,3.1511,3.1511,3.1511,3.154,3.163,3.2228,3.2557,3.2796,3.3993,3.4533,3.4683,3.528,3.5519,3.5519,3.5519,3.5519,3.5519,3.5579,3.6058,3.6866,3.8033,3.8422,3.8631,3.932,3.9499,3.9679,4.0367,4.0995,4.1512,4.1534,4.1564,4.1713,4.2261,4.244,4.2611,4.317,4.3349,4.3559,4.4197,4.4377,4.4616,4.5274,4.5334,4.5304,4.5364,4.5394,4.5394,4.5394,4.5992,4.6172,4.5544,4.6591,4.707,4.6471,4.6369,4.6142,4.5514,4.6651,4.704,4.6399,4.6369,4.6711,4.7309,4.6711,4.6711,4.7309,4.7309,4.7309,4.7309,4.7309,4.7309,4.7309,4.7309,4.7309,4.7309,4.7309,4.7309,4.7309,4.7309,4.7309,4.7309,4.7309,4.7309,4.7309,2.9804,2.9804,2.9804,2.9804,2.9804,2.9804,2.9804,2.9804,2.9804,2.9804,3.062,3.1225,3.1276,3.2472,3.3465,3.3879,3.4126,3.4046,3.3517,3.2853,3.2517,3.2517,3.2378,3.2287,3.2258,3.178,3.1511,3.1511,3.1511,3.1511,3.1511,3.1511,3.1511,3.1511,3.1511,3.178,3.2288,3.2467,3.3095,3.4114,3.4384,3.4801,3.531,3.5459,3.5519,3.5519,3.5519,3.5519,3.5579,3.6088,3.7015,3.8033,3.8302,3.8751,3.932,3.9978,4.0187,4.0457,4.1662,4.2081,4.2321,4.2791,4.2871,4.2821,4.247,4.2761,4.311,4.326,4.3708,4.4137,4.4287,4.4736,4.5304,4.5992,4.5633,4.5484,4.6022,4.6082,4.6082,4.6082,4.6681,4.704,4.689,4.713,4.7249,4.71,4.71,4.704,4.689,4.716,4.7249,4.71,4.71,4.716,4.7309,4.716,4.716,4.7309,4.7309,4.7309,4.7309,4.7309,4.7309,4.7309,4.7309,4.7309,4.7309,4.7309,4.7309,4.7309,4.7309,4.7309,4.7309,4.7309,4.7309,4.7309,2.9804,2.9804,2.9804,2.9804,2.9804,2.9804,2.9804,2.9804,2.9804,2.9804,3.0254,3.0857,3.1792,3.2483,3.3385,3.4593,3.4883,3.482,3.4502,3.3517,3.2975,3.3003,3.2676,3.2495,3.2497,3.2467,3.2437,3.2437,3.2437,3.2288,3.1959,3.1959,3.1809,3.1511,3.1839,3.2168,3.2557,3.3185,3.3844,3.4533,3.4863,3.519,3.5519,3.5519,3.5519,3.5519,3.5519,3.5699,3.6058,3.6716,3.7584,3.8452,3.8781,3.914,3.9523,4.0217,4.0397,4.0696,4.2051,4.241,4.256,4.314,4.329,4.329,4.3299,4.3569,4.3898,4.4197,4.4556,4.4885,4.5214,4.5544,4.6022,4.6681,4.6501,4.6381,4.6741,4.68,4.68,4.68,4.71,4.7309,4.7309,4.7309,4.7309,4.7309,4.7309,4.7309,4.7309,4.7309,4.7309,4.7309,4.7309,4.7309,4.7309,4.7309,4.7309,4.7309,4.7309,4.7309,4.7309,4.7309,4.7309,4.7309,4.7309,4.7309,4.7309,4.7309,4.7309,4.7309,4.7309,4.7309,4.7309,4.7309,4.7309,4.7309,2.9804,2.9804,2.9804,2.9804,2.9804,2.9804,2.9804,2.9804,2.9804,2.9804,2.9804,3.047,3.2191,3.2645,3.3561,3.5323,3.5519,3.5519,3.5519,3.4352,3.3696,3.3668,3.3155,3.2825,3.2856,3.3514,3.3724,3.3484,3.3484,3.3215,3.2677,3.2677,3.2348,3.1869,3.2407,3.2736,3.2916,3.4054,3.4563,3.4743,3.528,3.5519,3.5519,3.5519,3.5519,3.5519,3.5519,3.5998,3.6746,3.7375,3.8033,3.8661,3.923,3.9499,3.9709,4.0367,4.0636,4.0995,4.2231,4.256,4.2641,4.317,4.329,4.3499,4.4317,4.4407,4.4496,4.5155,4.5394,4.5633,4.619,4.6369,4.6681,4.7219,4.7309,4.7309,4.7309,4.7309,4.7309,4.7309,4.7309,4.7309,4.7309,4.7309,4.7309,4.7309,4.7309,4.7309,4.7309,4.7309,4.7309,4.7309,4.7309,4.7309,4.7309,4.7309,4.7309,4.7309,4.7309,4.7309,4.7309,4.7309,4.7309,4.7309,4.7309,4.7309,4.7309,4.7309,4.7309,4.7309,4.7309,4.7309,4.7309,4.7309,4.7309,4.7309,2.9804,2.9804,2.9804,2.9804,2.9804,2.9804,2.9804,2.9804,2.9804,2.9804,2.9804,3.0214,3.1279,3.2821,3.4288,3.5413,3.5519,3.5519,3.5519,3.4775,3.4356,3.4355,3.4294,3.4233,3.4234,3.4891,3.4651,3.3484,3.3484,3.3455,3.3365,3.3365,3.3305,3.3245,3.3335,3.3694,3.4264,3.4444,3.4831,3.537,3.5459,3.5519,3.5519,3.5519,3.5519,3.5519,3.5519,3.6267,3.7375,3.8033,3.8721,3.929,3.9379,3.9798,4.0397,4.1055,4.1692,4.2291,4.3,4.317,4.32,4.326,4.329,4.3618,4.4885,4.4736,4.4496,4.5155,4.5783,4.6202,4.6249,4.68,4.7189,4.7309,4.7309,4.7309,4.7309,4.7309,4.7309,4.7309,4.7309,4.7309,4.7309,4.7309,4.7309,4.7309,4.7309,4.7309,4.7309,4.7309,4.7309,4.7309,4.7309,4.7309,4.7309,4.7309,4.7309,4.7309,4.7309,4.7309,4.7309,4.7309,4.7309,4.7309,4.7309,4.7309,4.7309,4.7309,4.7309,4.7309,4.7309,4.7309,4.7309,4.7309,4.7309,4.7309,2.9804,2.9804,2.9804,2.9804,2.9804,2.9804,2.9804,2.9804,2.9804,2.9804,2.9804,3.038,3.1811,3.3679,3.4998,3.5451,3.5519,3.5519,3.5519,3.4863,3.4505,3.4503,3.4503,3.4503,3.4503,3.516,3.522,3.4622,3.4622,3.4412,3.4053,3.4053,3.3844,3.3514,3.3873,3.4234,3.4533,3.4891,3.522,3.5519,3.5519,3.5519,3.5519,3.5519,3.5519,3.5549,3.5908,3.6866,3.8003,3.8302,3.8841,3.9499,3.9858,4.0157,4.0606,4.1662,4.2171,4.253,4.311,4.329,4.329,4.329,4.3559,4.4137,4.5065,4.5364,4.5633,4.6292,4.6651,4.686,4.686,4.71,4.7309,4.7309,4.7309,4.7309,4.7309,4.7309,4.7309,4.7309,4.7309,4.7309,4.7309,4.7309,4.7309,4.7309,4.7309,4.7309,4.7309,4.7309,4.7309,4.7309,4.7309,4.7309,4.7309,4.7309,4.7309,4.7309,4.7309,4.7309,4.7309,4.7309,4.7309,4.7309,4.7309,4.7309,4.7309,4.7309,4.7309,4.7309,4.7309,4.7309,4.7309,4.7309,4.7309,4.7309]}]]